[[{"header":{"parameterUnit":"m.s-1","parameterCategory":1,"la1":30.6,"la2":29.2853,"lo1":-89.7004,"lo2":-87.6739,"dy":0.0162,"dx":0.0183,"nx":112,"ny":82,"refTime":"2026-05-24T12:00:00:Z","depth":0,"parameterNumber":2,"parameterNumberName":"U-component_of_WINDS"},"data":[0.0,0.0,0.0,0.0,0.0,0.0,0.0,0.0,0.0,0.0,0.0,0.0,0.0,0.0,0.0,0.0,0.0,0.0,0.0,0.0,0.0,0.0,0.0,0.0,0.0,0.0,0.0,0.0,0.0,0.0,0.0,0.0,0.0,0.0,0.0,0.0,0.0,0.0,0.0,0.0,0.0,0.0,0.0,0.0,0.0,0.0,0.0,0.0,0.0,0.0,0.0,0.0,0.0,0.0,0.0,0.0,0.0,0.0,0.0,0.0,0.0,0.0,0.0,0.0,0.0,0.0,0.0,0.0,0.0,0.0,0.0,0.0,0.0,0.0,0.0,0.0,0.0,0.0,0.0,0.0,0.0,0.0,0.0,0.0,0.0,0.0,0.0,0.0,0.0,0.0,0.0,-2.9214,-3.3115,-3.4721,-3.3038,-3.2115,-2.9768,-2.5396,0.0,0.0,0.0,0.0,0.0,0.0,0.0,0.0,0.0,0.0,0.0,0.0,0.0,0.0,0.0,0.0,0.0,0.0,0.0,0.0,0.0,0.0,0.0,0.0,0.0,0.0,0.0,0.0,0.0,0.0,0.0,0.0,0.0,0.0,0.0,0.0,0.0,0.0,0.0,0.0,0.0,0.0,0.0,0.0,0.0,0.0,0.0,0.0,0.0,0.0,0.0,0.0,0.0,0.0,0.0,0.0,0.0,0.0,0.0,0.0,0.0,0.0,0.0,0.0,0.0,0.0,0.0,0.0,0.0,0.0,0.0,0.0,0.0,0.0,0.0,0.0,0.0,0.0,0.0,0.0,0.0,0.0,0.0,0.0,0.0,0.0,0.0,0.0,0.0,0.0,0.0,0.0,0.0,0.0,0.0,0.0,0.0,0.0,0.0,0.0,0.0,0.0,0.0,0.0,-2.6811,-3.1788,-3.4224,-3.4782,-3.3058,-3.2148,-2.983,-2.5453,0.0,0.0,0.0,0.0,0.0,0.0,0.0,0.0,0.0,0.0,0.0,0.0,0.0,0.0,0.0,0.0,0.0,0.0,0.0,0.0,0.0,0.0,0.0,0.0,0.0,0.0,0.0,0.0,0.0,0.0,0.0,0.0,0.0,0.0,0.0,0.0,0.0,0.0,0.0,0.0,0.0,0.0,0.0,0.0,0.0,0.0,0.0,0.0,0.0,0.0,0.0,0.0,0.0,0.0,0.0,0.0,0.0,0.0,0.0,0.0,0.0,0.0,0.0,0.0,0.0,0.0,0.0,0.0,0.0,0.0,0.0,0.0,0.0,0.0,0.0,0.0,0.0,0.0,0.0,0.0,0.0,0.0,0.0,0.0,0.0,0.0,0.0,0.0,0.0,0.0,0.0,0.0,0.0,0.0,0.0,0.0,0.0,0.0,0.0,0.0,0.0,0.0,0.0,-2.5534,-2.8615,-3.191,-3.3353,-3.341,-3.1692,-3.0775,-2.845,-2.4124,-2.1392,0.0,0.0,0.0,0.0,0.0,0.0,0.0,0.0,0.0,0.0,0.0,0.0,0.0,0.0,0.0,0.0,0.0,0.0,0.0,0.0,0.0,0.0,0.0,0.0,0.0,0.0,0.0,0.0,0.0,0.0,0.0,0.0,0.0,0.0,0.0,0.0,0.0,0.0,0.0,0.0,0.0,0.0,0.0,0.0,0.0,0.0,0.0,0.0,0.0,0.0,0.0,0.0,0.0,0.0,0.0,0.0,0.0,0.0,0.0,0.0,0.0,0.0,0.0,0.0,0.0,0.0,0.0,0.0,0.0,0.0,0.0,0.0,0.0,0.0,0.0,0.0,0.0,0.0,0.0,0.0,0.0,0.0,0.0,0.0,0.0,0.0,0.0,0.0,0.0,0.0,0.0,0.0,0.0,0.0,0.0,0.0,0.0,0.0,0.0,0.0,0.0,0.0,-2.7698,-3.0006,-3.1545,-3.2429,-3.2141,-3.025,-2.9313,-2.6995,-2.2685,-2.0037,0.0,0.0,0.0,0.0,0.0,0.0,0.0,0.0,0.0,0.0,0.0,0.0,0.0,0.0,0.0,0.0,0.0,0.0,0.0,0.0,0.0,0.0,0.0,0.0,0.0,0.0,0.0,0.0,0.0,0.0,0.0,0.0,0.0,0.0,0.0,0.0,0.0,0.0,0.0,0.0,0.0,0.0,0.0,0.0,0.0,0.0,0.0,0.0,0.0,0.0,0.0,0.0,0.0,0.0,0.0,0.0,0.0,0.0,0.0,0.0,0.0,0.0,0.0,0.0,0.0,0.0,0.0,0.0,0.0,0.0,0.0,0.0,0.0,0.0,0.0,0.0,0.0,0.0,0.0,0.0,0.0,0.0,0.0,0.0,0.0,0.0,0.0,0.0,0.0,0.0,0.0,0.0,0.0,0.0,0.0,0.0,0.0,0.0,0.0,0.0,0.0,0.0,-2.8231,-3.0673,-3.1602,-3.2429,-3.1891,-2.9396,-2.8453,-2.6144,-2.1856,-1.9188,0.0,0.0,0.0,0.0,0.0,0.0,0.0,0.0,0.0,0.0,0.0,0.0,0.0,0.0,0.0,0.0,0.0,0.0,0.0,0.0,0.0,0.0,0.0,0.0,0.0,0.0,0.0,0.0,0.0,0.0,0.0,0.0,0.0,0.0,0.0,0.0,0.0,0.0,0.0,0.0,0.0,0.0,0.0,0.0,0.0,0.0,0.0,0.0,0.0,0.0,0.0,0.0,0.0,0.0,0.0,0.0,0.0,0.0,0.0,0.0,0.0,0.0,0.0,0.0,0.0,0.0,0.0,0.0,0.0,0.0,0.0,0.0,0.0,0.0,0.0,0.0,0.0,0.0,0.0,0.0,0.0,0.0,0.0,0.0,0.0,0.0,0.0,0.0,0.0,0.0,0.0,0.0,0.0,0.0,0.0,0.0,0.0,0.0,0.0,0.0,0.0,0.0,-2.7055,-2.9162,0.0,-3.0858,-3.0314,-2.7755,-2.6318,-2.3923,-2.0179,0.0,0.0,0.0,0.0,0.0,0.0,0.0,0.0,0.0,0.0,0.0,0.0,0.0,0.0,0.0,0.0,0.0,0.0,0.0,0.0,0.0,0.0,0.0,0.0,0.0,0.0,0.0,0.0,0.0,0.0,0.0,0.0,0.0,0.0,0.0,0.0,0.0,0.0,0.0,0.0,0.0,0.0,0.0,0.0,0.0,0.0,0.0,0.0,0.0,0.0,0.0,0.0,0.0,0.0,0.0,0.0,0.0,0.0,0.0,0.0,0.0,0.0,0.0,0.0,0.0,0.0,0.0,0.0,0.0,0.0,0.0,0.0,0.0,0.0,0.0,0.0,0.0,0.0,0.0,0.0,0.0,0.0,0.0,0.0,0.0,0.0,0.0,0.0,0.0,0.0,0.0,0.0,0.0,0.0,0.0,0.0,0.0,0.0,0.0,0.0,0.0,0.0,-2.3277,-2.5936,-2.7841,0.0,-2.9272,-2.8673,-2.6385,-2.4644,-2.2346,-1.9189,0.0,0.0,0.0,0.0,0.0,0.0,0.0,0.0,0.0,0.0,0.0,0.0,0.0,0.0,0.0,0.0,0.0,0.0,0.0,0.0,0.0,0.0,0.0,0.0,0.0,0.0,0.0,0.0,0.0,0.0,0.0,0.0,0.0,0.0,0.0,0.0,0.0,0.0,0.0,0.0,0.0,0.0,0.0,0.0,0.0,0.0,0.0,0.0,0.0,0.0,0.0,0.0,0.0,0.0,0.0,0.0,0.0,0.0,0.0,0.0,0.0,0.0,0.0,0.0,0.0,0.0,0.0,0.0,0.0,0.0,0.0,0.0,0.0,0.0,0.0,0.0,0.0,0.0,0.0,0.0,0.0,0.0,0.0,0.0,0.0,0.0,0.0,0.0,0.0,0.0,0.0,0.0,0.0,0.0,0.0,0.0,0.0,0.0,0.0,0.0,0.0,0.0,-2.2449,-2.5112,-2.7013,-2.7793,-2.7902,-2.7198,-2.5442,-2.3755,-2.1712,0.0,0.0,0.0,0.0,0.0,0.0,0.0,0.0,0.0,0.0,0.0,0.0,0.0,0.0,0.0,0.0,0.0,0.0,0.0,0.0,0.0,0.0,0.0,0.0,0.0,0.0,0.0,0.0,0.0,0.0,0.0,0.0,0.0,0.0,0.0,0.0,0.0,0.0,0.0,0.0,0.0,0.0,0.0,0.0,0.0,0.0,0.0,0.0,0.0,0.0,0.0,0.0,0.0,0.0,0.0,0.0,0.0,0.0,0.0,0.0,0.0,0.0,0.0,0.0,0.0,0.0,0.0,0.0,0.0,0.0,0.0,0.0,0.0,0.0,0.0,0.0,0.0,0.0,0.0,0.0,0.0,0.0,0.0,0.0,0.0,0.0,0.0,0.0,0.0,0.0,0.0,0.0,0.0,0.0,0.0,0.0,0.0,0.0,0.0,0.0,0.0,0.0,0.0,-2.1706,-2.481,-2.687,-2.7093,-2.7595,-2.6959,-2.4651,-2.3443,-2.1471,-1.8351,0.0,0.0,0.0,0.0,0.0,0.0,0.0,0.0,0.0,0.0,0.0,0.0,0.0,0.0,0.0,0.0,0.0,0.0,0.0,0.0,0.0,0.0,0.0,0.0,0.0,0.0,0.0,0.0,0.0,0.0,0.0,0.0,0.0,0.0,0.0,0.0,0.0,0.0,0.0,0.0,0.0,0.0,0.0,0.0,0.0,0.0,0.0,0.0,0.0,0.0,0.0,0.0,0.0,0.0,0.0,0.0,0.0,0.0,0.0,0.0,0.0,0.0,0.0,0.0,0.0,0.0,0.0,0.0,0.0,0.0,0.0,0.0,0.0,0.0,0.0,0.0,0.0,0.0,0.0,0.0,0.0,0.0,0.0,0.0,0.0,0.0,0.0,0.0,0.0,0.0,0.0,0.0,0.0,0.0,0.0,0.0,0.0,0.0,0.0,0.0,0.0,0.0,-2.0883,-2.391,-2.5942,-2.6272,-2.6688,-2.6184,-2.43,-2.3331,-2.1536,-1.8474,0.0,0.0,0.0,0.0,0.0,0.0,0.0,0.0,0.0,0.0,0.0,0.0,0.0,0.0,0.0,0.0,0.0,0.0,0.0,0.0,0.0,0.0,0.0,0.0,0.0,0.0,0.0,0.0,0.0,0.0,0.0,0.0,0.0,0.0,0.0,0.0,0.0,0.0,0.0,0.0,0.0,0.0,0.0,0.0,0.0,0.0,0.0,0.0,0.0,0.0,0.0,0.0,0.0,0.0,0.0,0.0,0.0,0.0,0.0,0.0,0.0,0.0,0.0,0.0,0.0,0.0,0.0,0.0,0.0,0.0,0.0,0.0,0.0,0.0,0.0,0.0,0.0,0.0,0.0,0.0,0.0,0.0,0.0,0.0,0.0,0.0,0.0,0.0,0.0,0.0,0.0,0.0,0.0,0.0,0.0,0.0,0.0,0.0,0.0,0.0,0.0,0.0,-2.0067,-2.2687,-2.4583,-2.5282,-2.539,-2.5007,-2.4045,-2.3244,-2.1665,-1.9053,0.0,0.0,0.0,0.0,0.0,0.0,0.0,0.0,0.0,0.0,0.0,0.0,0.0,0.0,0.0,0.0,0.0,0.0,0.0,0.0,0.0,0.0,0.0,0.0,0.0,0.0,0.0,0.0,0.0,0.0,0.0,0.0,0.0,0.0,0.0,0.0,0.0,0.0,0.0,0.0,0.0,0.0,0.0,0.0,0.0,0.0,0.0,0.0,0.0,0.0,0.0,0.0,0.0,0.0,0.0,0.0,0.0,0.0,0.0,0.0,-1.7484,0.0,0.0,0.0,0.0,0.0,0.0,0.0,0.0,0.0,0.0,0.0,0.0,0.0,0.0,0.0,0.0,0.0,0.0,0.0,0.0,0.0,0.0,0.0,0.0,0.0,0.0,0.0,0.0,0.0,0.0,0.0,0.0,0.0,0.0,0.0,0.0,0.0,0.0,0.0,0.0,0.0,-1.9314,-2.2384,-2.4185,-2.3683,-2.4185,-2.3932,-2.2362,-2.2056,-2.0842,-1.8214,0.0,0.0,0.0,0.0,0.0,0.0,0.0,0.0,0.0,0.0,0.0,0.0,0.0,0.0,0.0,0.0,0.0,0.0,0.0,0.0,0.0,0.0,0.0,0.0,0.0,0.0,0.0,0.0,0.0,0.0,0.0,0.0,0.0,0.0,0.0,0.0,0.0,0.0,0.0,0.0,0.0,0.0,0.0,0.0,0.0,0.0,0.0,0.0,0.0,0.0,0.0,0.0,0.0,0.0,0.0,0.0,0.0,0.0,0.0,0.0,0.0,-1.9484,0.0,0.0,0.0,0.0,0.0,0.0,0.0,0.0,0.0,0.0,0.0,0.0,0.0,0.0,0.0,0.0,0.0,0.0,0.0,0.0,0.0,0.0,0.0,0.0,0.0,0.0,0.0,0.0,0.0,0.0,0.0,0.0,0.0,0.0,0.0,0.0,0.0,0.0,0.0,0.0,-1.9027,-2.1913,-2.3607,-2.3149,-2.3842,-2.3639,-2.1893,-2.1751,-2.0815,-1.8606,-1.7256,0.0,0.0,0.0,0.0,0.0,0.0,0.0,0.0,0.0,0.0,0.0,0.0,0.0,0.0,0.0,0.0,0.0,0.0,0.0,0.0,0.0,0.0,0.0,0.0,0.0,0.0,0.0,0.0,0.0,0.0,0.0,0.0,0.0,0.0,0.0,0.0,0.0,0.0,0.0,0.0,0.0,0.0,0.0,0.0,0.0,0.0,0.0,0.0,0.0,0.0,0.0,0.0,0.0,-2.8346,-2.7288,-2.7135,-2.6327,-2.5885,-2.5673,-2.4441,-2.2859,-2.1228,0.0,0.0,0.0,0.0,0.0,0.0,0.0,0.0,0.0,0.0,0.0,0.0,0.0,0.0,0.0,0.0,0.0,0.0,0.0,0.0,0.0,0.0,0.0,0.0,0.0,-2.0605,-1.9394,0.0,0.0,0.0,0.0,0.0,0.0,0.0,0.0,0.0,0.0,0.0,0.0,-1.8975,-2.1398,-2.2823,-2.2683,-2.3443,-2.3321,-2.1733,-2.1581,-2.0885,-1.9294,-1.7718,-1.6438,0.0,0.0,0.0,0.0,0.0,0.0,0.0,0.0,0.0,0.0,0.0,0.0,0.0,0.0,0.0,0.0,0.0,0.0,0.0,0.0,0.0,0.0,0.0,0.0,0.0,0.0,0.0,0.0,0.0,0.0,0.0,0.0,-1.4509,-1.5014,0.0,0.0,0.0,0.0,0.0,0.0,0.0,0.0,0.0,0.0,0.0,0.0,0.0,0.0,-2.4615,-2.7024,-2.8967,-3.0385,-2.9333,-2.8453,-2.7794,-2.8357,-2.8222,-2.7582,-2.8055,0.0,-2.4606,-2.3999,0.0,0.0,0.0,0.0,0.0,0.0,0.0,0.0,0.0,0.0,0.0,0.0,0.0,0.0,0.0,0.0,0.0,0.0,0.0,0.0,0.0,0.0,-2.4032,-2.3922,-2.3281,-2.2578,0.0,-1.9746,-1.7617,-1.7519,0.0,0.0,0.0,0.0,0.0,0.0,0.0,0.0,-1.9059,-2.0912,-2.1769,-2.1008,-2.1707,-2.1839,-2.0839,-2.0709,-2.0249,-1.925,-1.8277,-1.7349,-1.6452,-1.5585,0.0,0.0,0.0,0.0,0.0,0.0,0.0,0.0,0.0,0.0,0.0,0.0,0.0,0.0,0.0,0.0,0.0,0.0,0.0,0.0,0.0,0.0,0.0,0.0,0.0,0.0,0.0,0.0,0.0,-1.6479,-1.8226,-1.9195,-1.8474,-1.6965,0.0,0.0,0.0,0.0,0.0,0.0,0.0,0.0,0.0,-2.4543,-2.4562,-2.6178,-2.9544,-3.0025,-3.0942,-3.2308,-3.1583,-3.1044,-3.0717,-3.0602,-3.0371,-3.0025,-2.989,-2.9192,-2.8077,-2.6774,-2.5462,-2.4098,0.0,0.0,0.0,0.0,0.0,-2.2604,-2.3042,-2.2907,0.0,0.0,0.0,0.0,0.0,0.0,0.0,0.0,0.0,0.0,0.0,0.0,0.0,-2.5122,-2.4487,-2.3866,-2.3846,-2.2265,-2.0586,0.0,-1.8847,-1.7851,-1.6384,0.0,0.0,0.0,0.0,0.0,-1.9197,-2.1228,-2.2067,-2.0738,-2.1381,-2.1554,-2.0675,-2.0573,-2.0394,-2.0004,-1.9161,-1.8297,-1.7429,-1.6556,-1.5149,0.0,0.0,0.0,0.0,0.0,0.0,0.0,0.0,0.0,0.0,0.0,0.0,0.0,0.0,0.0,0.0,0.0,0.0,0.0,0.0,0.0,0.0,0.0,0.0,0.0,0.0,0.0,0.0,-1.9044,-2.1188,-2.3035,-2.1913,-2.0427,0.0,0.0,0.0,0.0,0.0,0.0,-2.5538,-2.4827,-2.5519,-2.8025,-2.839,-2.9948,-3.2872,-3.2654,-3.2962,-3.3808,-3.341,-3.3122,-3.2891,-3.2506,-3.2218,-3.1968,-3.1327,-3.0923,-3.0596,-2.8909,-2.7477,-2.6241,-2.5158,-2.4521,-2.4225,-2.4666,-2.496,-2.523,-2.582,-2.5655,-2.515,-2.5143,0.0,-2.2979,-2.3005,0.0,0.0,0.0,0.0,-2.4251,-2.512,-2.5831,-2.6313,-2.6304,-2.5658,-2.5046,-2.5048,-2.4369,-2.326,0.0,-2.1074,-2.0312,-1.8378,0.0,0.0,0.0,0.0,-2.0039,-2.0253,-2.1757,-2.2323,-2.1071,-2.111,-2.1051,-2.0641,-2.0406,-2.0367,-2.0582,-1.9567,-1.8687,-1.8034,-1.6954,-1.5564,-1.3839,0.0,0.0,0.0,0.0,0.0,0.0,0.0,0.0,0.0,0.0,0.0,0.0,0.0,0.0,0.0,0.0,0.0,0.0,0.0,0.0,0.0,0.0,0.0,0.0,0.0,0.0,0.0,0.0,0.0,-2.4798,-2.4039,0.0,0.0,0.0,0.0,-2.4803,-2.5096,-2.5538,-2.6486,-2.6486,-2.7135,-2.8615,-2.9712,-3.1115,-3.2872,-3.3442,-3.375,-3.3808,-3.4026,-3.3705,-3.2929,-3.3725,-3.3622,-3.2833,-3.2795,-3.2333,-3.1506,-2.9761,-2.8992,-2.8742,-2.7101,-2.6953,-2.7549,-2.676,-2.6991,-2.7727,-2.7766,-2.7748,-2.7716,-2.7716,-2.7147,-2.6457,-2.6509,-2.5948,0.0,0.0,-2.6575,-2.6819,-2.7692,-2.7945,-2.798,-2.7985,-2.7352,-2.6773,-2.6773,-2.6147,-2.5048,0.0,-2.2363,-2.1797,-2.166,0.0,-2.0682,-2.1504,-2.1718,-2.2051,-2.2812,-2.2343,-2.1933,-2.1835,-2.0388,-1.9742,-2.0523,-1.984,-1.9722,-2.0543,-1.9001,-1.8043,-1.7998,-1.637,-1.5034,-1.4108,-1.381,0.0,0.0,0.0,0.0,0.0,0.0,0.0,0.0,0.0,0.0,0.0,0.0,0.0,0.0,0.0,0.0,0.0,0.0,0.0,0.0,0.0,0.0,0.0,0.0,0.0,0.0,0.0,0.0,-2.4973,-2.5313,0.0,-2.516,-2.4642,-2.4826,-2.6037,-2.6668,-2.7582,-2.8962,-2.9058,-2.9769,-3.1352,-3.1795,-3.2564,-3.3725,-3.3949,-3.4334,-3.4904,-3.4981,-3.4872,-3.4558,-3.4314,-3.4032,-3.3705,-3.3141,-3.2737,-3.2429,-3.1795,-3.0589,-2.905,-2.8434,-2.8088,-2.7934,-2.8126,-2.8415,-2.8761,-2.9313,-2.9146,-2.859,-2.8068,-2.7744,-2.7538,-2.7551,-2.7388,-2.7239,-2.7549,-2.7646,-2.7708,-2.8015,-2.8096,-2.8106,-2.8091,-2.7885,-2.752,-2.7015,-2.6671,-2.6144,-2.4986,-2.4099,-2.334,-2.2832,-2.2441,-2.2324,-2.2676,-2.3184,-2.3418,-2.3144,-2.334,-2.2871,-2.123,-2.0507,-2.0038,-1.9785,-1.9472,-1.9433,-1.9745,-1.9179,-1.8339,-1.7202,-1.6576,-1.5831,-1.4947,-1.4327,-1.3418,0.0,0.0,0.0,0.0,0.0,0.0,0.0,0.0,0.0,0.0,0.0,0.0,0.0,0.0,0.0,0.0,0.0,0.0,0.0,0.0,0.0,0.0,0.0,0.0,0.0,0.0,-2.5298,-2.5876,-2.6765,-2.7241,-2.696,-2.7242,-2.7564,-2.7863,-2.8687,-2.9794,-3.1173,-3.1231,-3.1756,-3.2852,-3.3179,-3.3622,-3.4186,-3.4487,-3.493,-3.55,-3.55,-3.55,-3.5481,-3.4911,-3.4641,-3.4603,-3.4026,-3.3603,-3.3333,-3.3333,-3.216,-3.0377,-3.0377,-3.0069,-2.9621,-2.9871,-2.9992,-3.0031,-3.03,-3.0017,-2.9457,-2.8931,-2.882,-2.8848,-2.887,-2.8915,-2.895,-2.8938,-2.8942,-2.895,-2.8938,-2.8942,-2.8935,-2.8935,-2.872,-2.8353,-2.7812,-2.7498,-2.7061,-2.6259,-2.5418,-2.4668,-2.414,-2.4004,-2.3984,-2.4043,-2.4492,-2.4629,-2.4043,-2.4219,-2.3633,-2.166,-2.0937,-2.0371,-1.9785,-1.9473,-1.9434,-1.9727,-1.9199,-1.834,-1.7185,-1.6853,-1.6285,-1.5421,-1.4541,-1.3816,-1.323,0.0,0.0,0.0,0.0,0.0,0.0,0.0,0.0,0.0,0.0,0.0,0.0,0.0,0.0,0.0,0.0,0.0,0.0,0.0,0.0,0.0,0.0,0.0,-2.3934,-2.6085,-2.7699,-2.7732,-2.8555,-2.8817,-2.8024,-2.8731,-2.9567,-3.0417,-3.125,-3.2083,-3.2891,-3.2949,-3.2949,-3.2987,-3.3795,-3.4244,-3.4244,-3.5103,-3.5538,-3.5538,-3.5538,-3.5538,-3.5538,-3.5519,-3.55,-3.55,-3.55,-3.5026,-3.4244,-3.4244,-3.3737,-3.2987,-3.291,-3.2891,-3.2814,-3.2025,-3.1718,-3.1583,-3.0694,-3.0392,-3.0403,-3.0476,-3.0496,-3.0501,-3.0588,-3.0598,-3.0598,-3.0598,-3.0598,-3.0598,-3.0598,-3.0598,-3.0598,-3.0598,-2.9959,-2.9334,-2.931,-2.8694,-2.7896,-2.7054,-2.6274,-2.5738,-2.57,-2.5701,-2.5702,-2.5702,-2.5703,0.0,-2.5703,-2.4941,-2.4062,-2.3164,-2.1582,-2.0586,-2.0566,-1.9785,-1.9668,-2.0508,-1.8965,-1.8027,-1.8005,-1.7185,-1.6324,-1.546,-1.4576,-1.4143,-1.4143,0.0,0.0,0.0,0.0,0.0,0.0,0.0,0.0,0.0,0.0,0.0,0.0,0.0,0.0,0.0,0.0,0.0,0.0,0.0,0.0,0.0,0.0,-2.7326,-2.6715,-2.8274,-2.9693,-3.0285,-3.1188,-3.1675,-3.1453,-3.1686,-3.1956,-3.2199,-3.2436,-3.2949,-3.3801,-3.384,-3.4122,-3.4769,-3.5019,-3.5135,-3.5135,-3.5962,-3.6365,-3.6365,-3.6365,-3.6365,-3.6346,-3.5769,-3.55,-3.55,-3.55,-3.5365,-3.5135,-3.5135,-3.5,-3.4654,-3.3391,-3.2891,-3.2872,-3.2641,-3.2199,-3.1583,-3.0704,-3.0394,-3.0398,-3.0414,-3.0465,-3.0496,-3.0525,-3.0559,-3.0598,-3.0598,-3.0598,-3.0598,-3.0598,-3.0598,-3.0598,-3.0598,-3.0424,-3.0065,-2.9449,-2.916,-2.8592,-2.7119,-2.668,-2.6373,-2.5736,-2.5669,-2.5696,-2.57,-2.5703,0.0,-2.5703,-2.4941,-2.3848,-2.2383,-2.125,-2.0332,-1.9707,-1.9434,-1.9394,-1.9648,-1.9219,-1.8652,-1.8025,-1.7771,-1.7222,-1.6357,-1.5496,-1.5044,0.0,0.0,0.0,0.0,0.0,0.0,0.0,0.0,0.0,0.0,0.0,0.0,0.0,0.0,0.0,0.0,0.0,0.0,0.0,0.0,0.0,0.0,-2.7389,-2.9643,-3.0242,-3.0854,-3.1427,-3.1897,-3.245,-3.2804,-3.28,-3.317,-3.3403,-3.3442,-3.3782,-3.4218,-3.4718,-3.5064,-3.5488,-3.5981,-3.6,-3.6173,-3.6538,-3.6654,-3.6885,-3.7238,-3.6865,-3.6692,-3.6673,-3.5865,-3.55,0.0,-3.55,-3.55,-3.55,-3.55,-3.55,0.0,0.0,0.0,0.0,0.0,-3.2699,-3.1641,-3.1115,-3.0704,-3.0394,-3.0392,-3.0439,-3.0465,-3.0486,-3.0525,-3.0564,-3.0593,-3.0598,-3.0598,-3.0598,-3.0598,-3.0598,-3.0598,-3.0598,-3.0467,-2.9954,-2.9883,-2.9497,-2.8109,0.0,0.0,-2.6252,-2.5871,-2.5704,-2.5693,-2.57,-2.5703,-2.5703,-2.5254,-2.4297,-2.2578,-2.1953,-2.1152,-1.9941,-1.9844,0.0,0.0,0.0,-1.9062,-1.8571,-1.8199,0.0,0.0,0.0,0.0,0.0,0.0,0.0,0.0,-1.4414,-1.4448,0.0,0.0,0.0,0.0,0.0,0.0,0.0,0.0,0.0,0.0,0.0,0.0,0.0,0.0,0.0,0.0,-2.9402,-3.1415,-3.3689,-3.3414,-3.2993,-3.2993,-3.305,-3.3087,-3.3084,-3.3798,-3.4274,-3.4327,-3.5058,-3.5538,-3.5635,0.0,0.0,0.0,0.0,-3.7219,-3.7988,-3.7334,-3.7392,-3.8142,-3.7257,-3.6846,-3.6808,-3.5904,-3.55,-3.55,-3.55,-3.55,-3.55,-3.55,-3.55,-3.55,-3.55,-3.55,-3.5385,-3.4526,-3.3256,0.0,0.0,0.0,0.0,-3.0439,-3.0392,-3.0403,-3.0476,-3.0491,-3.0501,-3.0588,-3.0598,-3.0598,-3.0598,-3.0598,-3.0598,-3.0598,-3.0598,-3.0598,-3.0598,-3.0598,-3.0346,-2.9476,-2.861,-2.7733,-2.6935,-2.6189,-2.5684,-2.5693,-2.5689,-2.5698,-2.5698,-2.5603,-2.492,-2.328,0.0,0.0,-2.0723,-2.0605,-2.0605,-2.0605,-1.9863,-1.9453,-1.9449,-1.8703,-1.8603,-1.9284,-1.854,-1.8147,-1.8147,-1.8141,-1.8193,-1.8264,-1.7225,-1.6766,0.0,0.0,0.0,0.0,0.0,0.0,0.0,0.0,0.0,0.0,0.0,0.0,0.0,0.0,0.0,-2.8453,-3.1243,-3.344,-3.3937,-3.4458,-3.4799,-3.4799,-3.481,-3.4821,-3.4829,-3.5019,-3.5144,-3.517,-3.5371,-3.5788,-3.6423,-3.6615,0.0,-3.7738,-3.7757,-3.7834,-3.8007,-3.8527,-3.8873,-3.9034,0.0,0.0,-3.77,-3.6192,-3.55,-3.55,-3.55,-3.55,-3.55,-3.55,-3.55,-3.55,-3.55,-3.55,-3.5385,-3.4526,-3.3994,-3.3526,-3.2179,-3.1583,-3.1333,-3.0621,-3.0394,-3.0403,-3.0479,-3.05,0.0,-3.0588,-3.0598,-3.0598,-3.0598,-3.0598,-3.0598,-3.0598,-3.0598,-3.0598,-3.0598,-3.0598,-3.0346,-2.9476,-2.861,-2.7748,-2.6939,-2.6091,-2.5559,-2.5602,-2.5625,-2.5624,-2.5618,-2.5042,-2.4249,-2.3219,-2.2519,-2.1719,-2.0684,-2.0605,-2.0605,-2.0605,-2.0448,-2.0348,-2.0348,-2.0187,-1.9851,-1.9304,-1.9127,-1.9049,-1.9049,-1.9048,-1.9419,-2.0062,-1.8415,-1.7982,0.0,0.0,0.0,0.0,0.0,0.0,0.0,0.0,0.0,0.0,0.0,-2.3017,-2.4734,0.0,-2.9363,-3.0605,-3.2229,-3.3509,-3.3937,-3.437,-3.4814,-3.5254,-3.5304,-3.5315,-3.5357,-3.5372,-3.5412,-3.5453,-3.5486,-3.5846,-3.6654,-3.7123,-3.7757,-3.8623,-3.8642,-3.8834,-3.9238,-3.9284,-3.9496,-3.99,-3.9046,-3.8642,-3.8604,-3.7334,-3.65,-3.6096,-3.6096,-3.5865,-3.55,-3.55,-3.55,-3.55,-3.55,-3.55,-3.5442,-3.5007,-3.4564,-3.409,-3.3237,-3.2391,-3.1641,-3.1192,-3.0762,-3.0419,-3.0488,-3.049,-3.051,-3.0588,-3.0598,-3.0598,-3.0598,-3.0598,-3.0598,-3.0598,-3.0598,-3.0598,-3.0598,-3.0598,-3.0462,-3.0037,-2.89,-2.7879,-2.7466,-2.6346,-2.5528,-2.5599,-2.561,-2.5593,-2.5609,-2.5278,-2.4549,-2.3248,-2.2731,-2.1972,-2.0703,-2.0605,-2.0605,-2.0605,-2.0605,-2.0603,-2.0601,-2.0598,-2.0401,-1.9968,-1.9949,-1.9949,-1.9949,-1.9949,-2.0163,-2.0573,-1.9644,-1.94,0.0,0.0,0.0,0.0,0.0,0.0,0.0,0.0,-2.0035,-2.2532,-2.453,-2.6282,-2.7818,-2.9646,-3.1369,-3.2737,-3.3081,-3.3425,-3.412,-3.4102,-3.4259,-3.4967,-3.5216,-3.533,-3.5386,-3.5412,-3.5446,-3.55,-3.5635,-3.6096,-3.6904,-3.7777,-3.8642,-3.9515,-3.9534,-3.9842,-4.0496,-3.9861,-3.9861,-4.0496,-3.9688,-3.9304,-3.9265,-3.8392,-3.7623,-3.6942,-3.6769,-3.6231,-3.55,-3.55,-3.55,-3.55,-3.55,-3.55,-3.55,-3.55,-3.5064,-3.443,-3.4263,-3.3314,-3.216,-3.1987,-3.1462,-3.0877,-3.0766,-3.073,-3.0702,-3.0617,-3.0593,-3.0598,-3.0598,-3.0598,-3.0598,-3.0598,-3.0598,-3.0598,-3.0598,-3.0598,-3.0598,-3.0598,-2.919,-2.7991,-2.7991,-2.6613,-2.5511,-2.5573,-2.5587,-2.5571,-2.5586,-2.5636,-2.5054,-2.3501,-2.3349,-2.2674,-2.0995,-2.0703,-2.0605,-2.0605,-2.0605,-2.0604,-2.0602,-2.0601,-2.0598,-2.0595,-2.0594,-2.0594,-2.0594,-2.0594,-2.0594,-2.0593,-2.0532,-2.046,-1.6493,-1.7748,-1.8894,-1.834,-1.9326,-2.0683,0.0,0.0,-2.2627,-2.5225,-2.717,-2.8674,-2.9638,-3.1878,-3.3651,-3.3815,-3.4445,-3.4953,-3.5057,-3.4446,-3.4029,-3.4125,-3.4882,-3.5379,-3.5405,-3.5453,-3.5493,-3.55,-3.6154,-3.6942,-3.7815,-3.8681,-3.9534,-4.0342,-4.0362,-4.0419,-4.0496,-4.0419,-4.0419,-4.0496,-3.9688,-3.9304,-3.9265,-3.8392,-3.795,-3.7815,-3.7038,-3.6231,-3.55,-3.55,-3.55,-3.55,-3.55,-3.55,-3.55,-3.55,-3.5442,-3.5231,-3.4468,-3.409,-3.3801,-3.3026,-3.2699,-3.2493,-3.1779,-3.157,-3.1419,-3.0703,-3.0559,-3.0598,-3.0598,-3.0598,-3.0598,-3.0598,-3.0598,-3.0598,-3.0598,-3.0598,-3.0598,-3.0598,-2.919,-2.7991,-2.7991,-2.6613,-2.5492,-2.5503,-2.5507,-2.5506,-2.5506,-2.552,-2.5165,-2.4251,-2.4229,-2.3586,-2.1894,-2.1055,-2.0605,-2.0605,-2.0605,-2.0604,-2.0604,-2.0601,-2.0599,-2.0599,-2.0596,-2.0594,-2.0594,-2.0594,-2.0594,-2.0593,-2.0532,-2.046,-1.8213,-1.972,-2.1258,-2.1934,-2.3053,-2.4207,-2.5068,-2.5293,-2.5776,-2.7324,-2.9038,-3.0514,-3.1389,-3.2889,-3.4147,0.0,-3.4598,-3.4503,-3.4503,-3.3773,-3.3245,-3.3245,-3.3623,-3.4084,-3.458,-3.5152,-3.55,-3.55,-3.5808,-3.6596,-3.793,-3.8354,-3.9142,-4.0458,-4.0496,-4.0496,-4.0496,-4.0496,-4.0496,-4.0496,-4.0169,-3.9996,-3.9996,-3.9631,-3.8911,-3.795,-3.7084,-3.6231,-3.55,-3.55,-3.55,-3.55,-3.55,-3.55,-3.55,-3.55,-3.55,-3.5442,-3.5084,-3.4622,-3.4148,-3.3782,-3.3314,-3.284,-3.2549,-3.2099,-3.1628,-3.129,-3.0886,-3.0535,-3.0535,-3.0535,-3.054,-3.053,-3.0535,-3.0559,-3.0593,-3.0598,-3.0598,-3.0598,-2.919,-2.7991,-2.7991,-2.6613,-2.5507,-2.5507,-2.5507,-2.5499,-2.551,-2.5506,-2.521,-2.444,-2.3935,-2.3366,-2.2656,-2.1836,-2.1367,-2.1367,-2.0879,-2.0605,-2.0604,-2.0604,-2.0602,-2.0599,-2.0598,-2.0596,-2.0594,-2.0594,-2.0866,-2.1353,-2.1296,-2.148,-1.9423,-2.1192,-2.3188,-2.4411,-2.5608,-2.668,-2.7543,-2.7771,-2.8048,-2.8874,-3.0246,-3.1488,-3.2124,-3.2988,-3.3883,-3.4732,-3.4369,-3.409,-3.4292,-3.3605,-3.3062,-3.3062,-3.3088,-3.337,-3.4014,-3.4697,-3.5217,-3.5448,-3.5705,-3.6365,-3.7584,-3.8104,-3.8911,-4.0131,-4.0381,-4.0496,-4.0496,-4.0496,-4.0496,-4.0496,-4.0496,-4.0496,-4.0496,-4.0496,-3.9592,-3.7969,-3.7334,-3.6462,-3.55,-3.55,-3.55,-3.55,-3.55,-3.55,-3.55,-3.55,-3.55,-3.55,-3.55,-3.5084,-3.4564,-3.4564,-3.4122,-3.359,-3.3384,-3.2742,-3.2002,-3.1763,-3.1124,-3.0504,-3.0504,-3.0504,-3.0509,-3.05,-3.0491,-3.0501,-3.0559,-3.0593,-3.0598,-3.0598,-2.919,-2.7991,-2.7991,-2.6613,-2.5507,-2.5507,-2.5507,-2.5496,-2.5507,-2.5508,-2.5293,-2.476,-2.3941,-2.3434,-2.3453,-2.2693,-2.2148,-2.1914,-2.1309,-2.0957,-2.0957,-2.0956,-2.1053,-2.1285,-2.1283,-2.1281,-2.1298,-2.1296,-2.1608,-2.2232,-2.2179,-2.2466,-1.9849,-2.2112,-2.4654,-2.4768,-2.608,-2.7562,-2.8383,-2.8615,-2.8892,-2.9707,-3.062,-3.1314,-3.1324,-3.2049,-3.2955,-3.3872,-3.4014,-3.4273,-3.5057,-3.4464,-3.3956,-3.3956,-3.3949,-3.3979,0.0,-3.4091,-3.4491,-3.5328,-3.619,-3.6692,-3.6731,-3.8334,-3.9284,-3.9342,-4.0092,-4.0496,-4.0496,-4.0496,-4.0496,-4.0496,-4.0496,-4.0496,-4.0496,-4.0496,-3.9592,-3.8007,-3.7969,-3.7026,-3.55,-3.55,-3.55,-3.55,-3.55,-3.55,-3.55,-3.55,-3.55,-3.55,-3.55,-3.5481,-3.5462,-3.5462,-3.5442,-3.525,-3.4417,-3.359,-3.2792,-3.1939,-3.1113,-3.0504,-3.0504,-3.0504,-3.0504,-3.0504,-3.05,-3.0496,-3.0496,-3.0559,-3.0598,-3.0598,-2.919,-2.7991,-2.7991,-2.6613,-2.5507,-2.5507,-2.5507,-2.5507,-2.5511,-2.549,-2.5489,-2.5465,-2.4732,-2.4287,-2.4357,-2.3567,-2.2733,-2.1953,-2.1875,-2.1855,-2.1855,-2.1855,-2.2226,-2.3007,-2.3023,-2.3019,-2.3019,-2.3016,-2.3033,-2.3052,-2.306,-2.3068,-2.2626,-2.426,-2.5847,-2.7038,-2.8196,-2.9134,-2.9399,-2.9491,-2.9575,-2.984,-2.9766,-2.9977,-3.1094,-3.11,-3.1592,-3.3603,-3.3971,-3.4273,-3.5095,-3.4503,-3.3995,-3.3995,-3.3479,0.0,0.0,0.0,0.0,-3.5386,-3.571,-3.6135,-3.6673,-3.7796,-3.87,-3.9284,-4.0073,-4.0496,-4.0496,-4.0496,-4.0496,-4.0496,-4.0496,-4.0496,-4.0496,-4.0496,-3.99,-3.8834,-3.8257,-3.7353,-3.625,-3.5712,-3.55,-3.55,-3.55,-3.55,-3.55,-3.55,-3.55,-3.55,-3.55,-3.55,-3.55,-3.55,-3.55,-3.5442,-3.5154,-3.4071,-3.2871,-3.2583,-3.1511,-3.0439,-3.0439,-3.0439,-3.0425,-3.0428,-3.0439,-3.0455,-3.0486,-3.052,-3.0554,-3.0593,-2.919,-2.7991,-2.7991,-2.6613,-2.5507,-2.5507,-2.5507,-2.5507,-2.5507,-2.5495,-2.5505,-2.5502,-2.5307,-2.5198,-2.5262,-2.4453,-2.3604,-2.2753,-2.2695,-2.2461,-2.1914,-2.2402,-2.2812,-2.3085,-2.3104,-2.3101,-2.3097,-2.3096,-2.3406,-2.3969,-2.3961,-2.4243,-2.4267,-2.5767,-2.7167,-2.8317,-2.9261,-2.9897,-2.9897,-2.9688,-2.948,-2.948,-2.8613,-2.8309,-2.9718,-2.9569,-3.0052,-3.263,-3.3322,-3.3929,-3.5037,-3.4751,-3.4426,-3.4426,-3.3929,-3.3807,0.0,0.0,0.0,-3.5364,-3.5453,-3.5731,-3.6231,-3.7065,-3.7796,-3.8354,-3.9161,-3.9765,-4.0073,-4.0073,-4.0227,-4.0496,-4.0496,-4.0496,-4.0496,-4.0496,-4.0054,-3.9265,-3.87,-3.7796,-3.6654,-3.6135,-3.575,-3.55,-3.55,-3.55,-3.55,-3.55,-3.55,-3.55,-3.55,-3.55,-3.55,-3.55,-3.55,-3.55,-3.55,-3.4507,-3.3295,-3.2987,-3.1929,-3.0788,-3.0481,-3.0404,-3.041,-3.0394,-3.0406,-3.0403,-3.0441,-3.0481,-3.0501,-3.0559,-2.9433,-2.8378,-2.8049,-2.6613,-2.5507,-2.5507,-2.5507,-2.5507,-2.5507,-2.5499,-2.5499,-2.5508,-2.5541,-2.5585,-2.5617,-2.5148,-2.4468,-2.3628,-2.3552,-2.3339,-2.2812,-2.3281,-2.3711,-2.4023,-2.4023,-2.4022,-2.4039,-2.4036,-2.4326,-2.4869,-2.4864,-2.5149,-2.4812,-2.6634,-2.8537,-2.8646,-2.9261,-2.984,-2.984,-2.9215,-2.8627,-2.8589,-2.7271,-2.6427,-2.7364,0.0,-2.8417,-3.1049,-3.2164,-3.3291,-3.4953,-3.5209,-3.5229,0.0,0.0,0.0,0.0,0.0,0.0,-3.5423,0.0,-3.5538,-3.55,-3.6346,-3.6808,-3.6769,-3.7642,-3.8527,-3.9361,-3.9361,-3.9746,-4.0496,-4.0496,-4.0496,-4.0496,-4.0496,-4.0073,-3.9361,-3.9323,-3.8334,-3.675,-3.6712,-3.6231,-3.55,-3.55,-3.55,-3.55,-3.55,-3.55,-3.55,-3.55,-3.55,-3.55,-3.55,-3.55,-3.55,-3.55,-3.4891,-3.4032,-3.3199,-3.2352,-3.1506,-3.0673,-3.0423,-3.0404,-3.0404,-3.0408,-3.0392,-3.0398,-3.0455,-3.0491,-3.0496,-2.9844,-2.9016,-2.8088,-2.6613,-2.5546,-2.5507,-2.5507,-2.5507,-2.5507,-2.5507,-2.5507,-2.5507,-2.551,-2.5506,-2.5498,-2.5554,-2.5264,-2.4454,-2.4446,-2.4451,-2.4394,-2.4434,-2.4863,-2.5684,-2.5703,-2.5702,-2.5702,-2.5698,-2.5694,-2.5694,-2.5709,-2.5707,-2.6277,-2.7587,-2.8722,-2.9406,-2.9277,-2.9006,-2.9006,-2.8389,-2.7619,-2.6967,-2.6022,-2.5575,-2.6469,-2.6675,0.0,-3.0913,-3.213,0.0,-3.4953,-3.5209,0.0,-3.608,0.0,-3.6405,-3.7005,-3.6591,0.0,0.0,-3.6707,-3.6135,-3.5538,-3.7488,-3.8334,-3.77,-3.9104,-3.9977,-4.0189,-4.0189,-4.0304,-4.0496,-4.0496,-4.0496,-4.0496,-4.0496,-4.04,-4.0169,-3.9554,-3.8681,-3.7623,-3.6962,-3.6231,-3.55,-3.55,-3.55,-3.55,-3.55,-3.55,-3.55,-3.55,-3.55,-3.55,-3.55,-3.55,-3.55,-3.55,-3.4891,-3.4148,-3.3936,-3.2814,-3.166,-3.1429,-3.0885,-3.0404,-3.0404,-3.039,-3.0402,-3.0411,-3.0409,-3.0449,-3.0486,-2.9844,-2.8818,-2.7286,-2.6687,-2.6184,-2.5584,-2.5507,-2.5507,-2.5507,-2.5507,-2.5507,-2.5507,-2.5491,-2.5505,-2.5502,-2.5554,-2.5268,-2.4448,-2.5007,-2.5074,-2.4434,-2.5019,-2.5469,-2.5703,-2.5703,-2.5703,-2.5702,-2.57,-2.5697,-2.5694,-2.5709,-2.5707,-2.746,-2.8479,-2.9198,-2.9309,-2.902,-2.8514,-2.7775,-2.6975,-2.6065,-2.4833,-2.3632,-2.3063,-2.3948,-2.4448,0.0,0.0,0.0,0.0,-3.4445,-3.498,-3.5373,0.0,-3.6271,0.0,-3.7139,-3.7165,-3.7206,0.0,-3.6915,-3.6671,-3.6567,-3.792,-3.8458,-3.7978,-3.8904,-3.9592,-3.9977,-4.0323,-4.0496,-4.0496,-4.0496,-4.0496,-4.0496,-4.0496,-4.0496,-4.0477,0.0,-3.9123,-3.7969,-3.7469,-3.6558,-3.55,-3.55,-3.55,-3.55,-3.55,-3.55,-3.55,-3.55,-3.55,-3.55,-3.55,-3.55,-3.55,-3.55,-3.5154,-3.468,-3.4321,-3.3526,-3.2622,-3.1891,-3.1346,-3.0865,-3.05,-3.0404,-3.041,-3.0408,-3.0406,-3.0414,-3.0486,-2.9854,-2.8998,-2.8002,-2.7209,-2.6551,-2.6087,-2.572,-2.5507,-2.5507,-2.5507,-2.5507,-2.5507,-2.5499,-2.5495,-2.5501,-2.5559,-2.5418,-2.4958,-2.5409,-2.5482,-2.498,-2.5449,-2.5703,-2.5703,-2.5703,-2.5703,-2.5703,-2.5701,-2.5699,-2.5697,-2.5691,-2.5707,-2.8307,-2.9202,-2.9685,-2.8826,-2.8585,-2.8097,-2.6425,-2.5325,-2.4188,-2.2514,-2.0922,-2.0072,-2.0828,-2.1787,-2.353,-2.681,0.0,-3.179,-3.3586,-3.4522,-3.5114,-3.5362,-3.6137,-3.6691,-3.6825,-3.757,-3.7764,-3.7062,-3.6915,-3.7049,-3.7521,-3.7874,-3.8132,-3.8235,-3.8293,-3.8681,-3.9457,-4.015,-4.0496,-4.0496,-4.0496,-4.0496,-4.0496,-4.0496,-4.0496,-4.0496,0.0,0.0,-3.8007,-3.8007,-3.7007,-3.55,-3.55,-3.55,-3.55,-3.55,-3.55,-3.55,-3.55,-3.55,-3.55,-3.55,-3.55,-3.55,-3.55,-3.55,-3.5346,-3.4584,-3.4302,-3.384,-3.2275,-3.1775,-3.1487,-3.0615,-3.0404,-3.0404,-3.0404,-3.0389,-3.0428,-3.0476,-2.9931,-2.9424,-2.9312,-2.804,-2.6977,-2.6721,-2.6107,-2.5623,-2.5507,-2.5507,-2.5507,-2.5507,-2.5507,-2.5507,-2.5507,-2.556,-2.5607,-2.5598,-2.5654,-2.5696,-2.5703,-2.5703,-2.5703,-2.5703,-2.5703,-2.5703,-2.5703,-2.5702,-2.57,-2.57,-2.5693,-2.5708,-2.85,-2.9225,-2.9699,-2.8885,-2.8191,-2.7259,-2.5591,-2.4036,0.0,-2.0789,-1.9668,-1.9049,-1.9206,-2.0535,-2.2468,-2.5112,-2.7682,-3.0197,-3.2585,-3.3662,-3.4713,0.0,-3.6986,0.0,0.0,0.0,0.0,0.0,0.0,-3.7067,-3.5814,-3.7798,-3.9296,-4.0038,-4.0065,-4.015,-4.0285,-4.0439,-4.0496,-4.0496,-4.0496,-4.0496,-4.0496,-4.0496,-4.0496,-4.0496,0.0,0.0,-3.8007,-3.8007,-3.7007,-3.55,-3.55,-3.55,-3.55,-3.55,-3.55,-3.55,-3.55,-3.55,-3.55,-3.55,-3.55,-3.55,-3.55,-3.55,-3.5462,-3.5327,-3.4757,-3.3975,-3.2949,-3.2199,-3.1487,-3.0615,-3.0404,-3.0404,-3.0404,-3.0389,-3.0398,-3.0428,-3.035,-3.0071,-2.9405,-2.9056,-2.8354,-2.6919,-2.6586,-2.6242,-2.5584,-2.5507,-2.5507,-2.5507,-2.5507,-2.5507,-2.5507,-2.556,-2.5607,-2.5598,-2.5654,-2.5696,-2.5703,-2.5703,-2.5703,-2.5703,-2.5703,-2.5703,-2.5703,-2.5703,-2.5702,-2.57,-2.5696,-2.5691,-2.8961,-2.9555,-2.9707,-2.8911,-2.8104,-2.6944,-2.4814,0.0,0.0,-1.9135,-1.8032,-1.7468,-1.7481,-1.8545,0.0,-2.2778,-2.5658,-2.8325,-3.0426,-3.2611,0.0,-3.5095,-3.668,0.0,0.0,0.0,0.0,0.0,0.0,0.0,-3.7316,-3.8468,-3.9369,-3.9861,-4.0285,-4.0496,-4.0496,-4.0496,-4.0496,-4.0496,-4.0496,-4.0496,-4.0496,-4.0496,-4.0496,-4.0496,-4.0496,0.0,-3.8007,-3.8007,-3.7007,-3.55,-3.55,-3.55,-3.55,-3.55,-3.55,-3.55,-3.55,-3.55,-3.55,-3.55,-3.55,-3.55,-3.55,-3.55,-3.55,-3.55,-3.5192,-3.468,-3.3795,-3.2949,-3.2102,-3.1269,-3.0731,-3.0404,-3.0404,-3.0396,-3.0394,-3.0392,-3.0439,-3.035,-2.9989,-2.9583,-2.9018,-2.8176,-2.7286,-2.6571,-2.6165,-2.5758,-2.5507,-2.5507,-2.5507,-2.5507,-2.5507,-2.556,-2.5607,-2.5598,-2.5654,-2.5696,-2.5703,-2.5703,-2.5703,-2.5703,-2.5703,-2.5703,-2.5703,-2.5703,-2.5702,-2.5701,-2.5697,-2.5693,-2.9367,-2.9981,-2.9934,-2.8949,-2.8218,-2.7032,-2.4314,-2.2267,0.0,-1.7975,-1.6677,-1.5951,-1.6006,-1.6738,-1.8097,0.0,-2.3501,-2.6307,-2.8344,-3.1427,-3.3612,0.0,-3.6031,0.0,0.0,0.0,0.0,0.0,0.0,0.0,-3.885,-3.8846,-3.898,-3.9296,-4.0073,-4.0496,-4.0496,-4.0496,-4.0496,-4.0496,-4.0496,-4.0496,-4.0496,-4.0496,-4.0496,-4.0496,-4.0323,0.0,0.0,-3.7796,-3.6834,-3.55,-3.55,-3.55,-3.55,-3.55,-3.55,-3.55,-3.55,-3.55,-3.55,-3.55,-3.55,-3.55,-3.55,-3.55,-3.55,-3.55,-3.5365,-3.5064,-3.4379,-3.3545,-3.2699,-3.1891,-3.1173,-3.0635,-3.0442,-3.0404,-3.039,-3.04,-3.0392,-3.0428,-3.0471,-2.997,-2.9501,-2.9331,-2.8137,-2.7112,-2.6741,-2.6145,-2.5681,-2.5526,-2.5507,-2.5507,-2.5507,-2.5557,-2.5582,-2.5595,-2.565,-2.5694,-2.5703,-2.5703,-2.5703,-2.5703,-2.5703,-2.5703,-2.5703,-2.5703,-2.5703,-2.5702,-2.5699,-2.5695,-2.9518,-3.0435,-3.0692,-2.9101,-2.8646,-2.7737,-2.4447,0.0,-1.9609,-1.7861,-1.6222,-1.5112,-1.5116,-1.5836,-1.6988,-1.8759,-2.1238,-2.4091,-2.7358,-3.007,-3.2286,-3.3823,0.0,0.0,0.0,0.0,0.0,0.0,0.0,0.0,0.0,-3.8,-3.8412,-3.9277,-4.0073,-4.0496,-4.0496,-4.0496,-4.0496,-4.0496,-4.0496,-4.0496,-4.0496,-4.0496,-4.0496,-4.0458,0.0,0.0,0.0,-3.7161,-3.6308,-3.55,-3.55,-3.55,-3.55,-3.55,-3.55,-3.55,-3.55,-3.55,-3.55,-3.55,-3.55,-3.55,-3.55,-3.55,-3.55,-3.55,-3.493,-3.4302,-3.4225,-3.3545,-3.2699,-3.1891,-3.1641,-3.1365,-3.0577,-3.0404,-3.0404,-3.041,-3.0394,-3.0398,-3.0403,-3.0407,-3.0148,-2.9419,-2.9153,-2.8489,-2.6899,-2.6644,-2.6319,-2.5584,-2.5507,-2.5507,-2.5507,-2.5508,-2.5549,-2.5604,-2.5657,-2.5706,-2.5702,-2.5703,-2.5703,-2.5703,-2.5703,-2.5703,-2.5703,-2.5703,-2.5703,-2.5702,-2.5702,-2.57,-2.8686,-2.9725,-3.0143,-2.8987,-2.8351,-2.724,-2.4352,-2.1775,-1.9514,-1.7842,-1.6165,-1.4998,-1.4998,-1.5288,-1.6073,-1.7803,-1.9779,-2.2113,-2.5002,-2.8026,-3.0383,-3.1568,0.0,0.0,0.0,0.0,0.0,0.0,0.0,0.0,0.0,-3.7904,-3.7847,-3.7738,-3.9065,-3.9534,-3.8988,-3.9515,-3.9515,-3.8988,-3.8988,-3.8988,-3.8988,-3.8988,-3.8988,-3.8969,0.0,0.0,0.0,-3.6846,-3.6231,-3.55,-3.55,-3.55,-3.55,-3.55,-3.55,-3.55,-3.55,-3.55,-3.55,-3.55,-3.55,-3.55,-3.55,-3.55,-3.55,-3.55,-3.525,-3.4988,-3.4988,-3.4334,-3.3353,-3.2025,-3.1698,-3.1468,-3.0596,-3.0404,-3.0404,-3.0404,-3.0396,-3.0389,-3.0392,-3.0414,-3.0344,-3.0066,-2.9617,-2.8858,-2.7638,-2.7015,-2.6397,-2.5584,-2.5507,-2.5507,-2.5507,-2.5498,-2.5505,-2.5546,-2.5593,-2.565,-2.5695,-2.57,-2.5702,-2.5703,-2.5703,-2.5703,-2.5703,-2.5703,-2.5703,-2.5703,-2.5703,-2.5702,-2.7768,-2.9053,-2.9707,-2.8911,-2.8104,-2.683,-2.4283,-2.1585,-1.9211,-1.7785,-1.6165,-1.4998,-1.4998,-1.4991,-1.5486,-1.6971,-1.8621,-2.0513,-2.2838,-2.6058,-2.8472,0.0,0.0,0.0,0.0,0.0,0.0,0.0,0.0,0.0,0.0,-3.7496,-3.7237,-3.6712,-3.8142,-3.8623,-3.8007,-3.8604,-3.8604,-3.8007,-3.8007,-3.8007,-3.8007,-3.8007,-3.8007,-3.7988,0.0,0.0,0.0,-3.6442,-3.6,-3.55,-3.55,-3.55,-3.55,-3.55,-3.55,-3.55,-3.55,-3.55,-3.55,-3.55,-3.55,-3.55,-3.55,-3.55,-3.55,-3.55,-3.55,-3.5442,-3.5173,-3.4853,-3.416,-3.2468,-3.2045,-3.1756,-3.0635,-3.0404,-3.0404,-3.0404,-3.0404,-3.039,-3.0394,-3.0406,-3.0428,-3.0465,-3.0003,-2.925,-2.8133,-2.746,-2.6687,-2.5604,-2.5507,-2.5507,-2.5507,-2.5503,-2.5499,-2.5495,-2.5561,-2.5627,-2.5702,-2.5692,-2.57,-2.5703,-2.5703,-2.5703,-2.5703,-2.5703,-2.5703,-2.5703,-2.5703,-2.5703,-2.6949,-2.8634,-2.9707,-2.8911,-2.8104,-2.683,-2.4283,-2.1106,-1.8486,-1.7672,-1.6165,-1.4998,-1.4998,-1.4991,-1.5288,-1.6166,-1.7716,-1.9425,-2.1176,-2.4309,0.0,0.0,0.0,0.0,0.0,0.0,0.0,0.0,0.0,0.0,0.0,-3.6506,-3.6581,-3.6692,-3.7546,-3.8007,-3.8007,-3.8007,-3.8007,-3.8007,-3.8007,-3.8007,-3.8007,-3.8007,-3.8007,0.0,0.0,0.0,0.0,-3.5846,-3.5519,-3.55,-3.55,-3.55,-3.55,-3.55,-3.55,-3.55,-3.55,-3.55,-3.55,-3.55,-3.55,-3.55,-3.55,-3.55,-3.55,-3.55,-3.55,-3.5308,-3.443,-3.4853,-3.5058,-3.3295,-3.2891,-3.2429,-3.0769,-3.0404,-3.0404,-3.0404,-3.0404,-3.0404,-3.0404,-3.0394,-3.0398,-3.0398,-3.0441,-2.9897,-2.8222,-2.7993,-2.7353,-2.5685,-2.5507,-2.5507,-2.5507,-2.5507,-2.5498,-2.5499,-2.5568,-2.5634,-2.5708,-2.5696,-2.569,-2.5702,-2.5702,-2.5703,-2.5703,-2.5703,-2.5703,-2.5703,-2.5703,-2.5703,-2.5395,-2.6945,-2.7922,-2.6513,-2.5989,-2.4984,-2.1888,-1.9893,-1.8302,-1.6904,-1.5757,-1.4998,-1.4998,-1.5002,-1.5284,-1.6153,-1.7255,-1.8572,-2.0275,0.0,0.0,0.0,0.0,0.0,0.0,0.0,0.0,0.0,0.0,0.0,0.0,-3.5982,-3.5707,-3.5748,-3.6581,-3.6788,-3.6234,-3.681,-3.6844,-3.6288,-3.6288,-3.6288,-3.6288,-3.6288,0.0,0.0,0.0,0.0,0.0,-3.5615,-3.55,-3.55,-3.55,-3.55,-3.55,-3.55,-3.55,-3.55,-3.55,-3.55,-3.55,-3.55,-3.55,-3.55,-3.55,-3.55,-3.55,-3.55,-3.55,-3.5442,-3.5154,-3.5288,-3.5058,-3.3314,-3.2891,-3.2449,-3.0769,-3.0404,-3.0404,-3.0404,-3.0404,-3.0404,-3.0404,-3.039,-3.0408,-3.0392,-3.0409,-3.0069,-2.9023,-2.8883,-2.8235,-2.6489,-2.6319,-2.6107,-2.5546,-2.5496,-2.5503,-2.5499,-2.5518,-2.554,-2.5564,-2.5619,-2.5651,-2.5694,-2.5699,-2.5702,-2.5703,-2.5703,-2.5703,-2.5703,-2.6309,-2.6582,-2.3701,-2.5009,-2.5818,-2.4776,-2.4283,-2.3335,-2.0619,-1.9097,-1.7866,-1.6473,-1.5567,-1.4998,-1.4998,-1.5006,-1.5189,-1.5711,-1.6817,-1.8072,0.0,0.0,0.0,0.0,0.0,0.0,0.0,0.0,0.0,0.0,0.0,0.0,0.0,0.0,-3.5258,-3.5262,-3.5818,-3.5887,-3.5405,-3.5943,-3.5965,-3.55,-3.55,-3.55,-3.55,-3.55,0.0,0.0,0.0,0.0,0.0,-3.5635,-3.55,-3.55,-3.55,-3.55,-3.55,-3.55,-3.55,-3.55,-3.55,-3.55,-3.55,-3.55,-3.55,-3.55,-3.55,-3.55,-3.55,-3.55,-3.55,-3.55,-3.55,-3.55,-3.5058,-3.3314,-3.2891,-3.2449,-3.0769,-3.0404,-3.0404,-3.0404,-3.0404,-3.0404,-3.0404,-3.0404,-3.039,-3.0394,-3.0406,-3.012,-2.9366,-2.9289,-2.8627,-2.6887,-2.6698,-2.6377,-2.5565,-2.5507,-2.5507,-2.5507,-2.5503,-2.5499,-2.5492,-2.5559,-2.5625,-2.5701,-2.5691,-2.5699,-2.5703,-2.5703,-2.5879,-2.6191,-2.6758,-2.7187,0.0,-2.2855,-2.3518,-2.3518,-2.2912,-2.1888,-2.0196,-1.8567,0.0,-1.6288,-1.551,-1.4998,-1.4998,-1.5048,-1.5098,-1.5083,-1.6546,-1.7986,0.0,0.0,0.0,0.0,0.0,0.0,0.0,0.0,0.0,0.0,0.0,0.0,0.0,0.0,-3.5209,-3.5209,-3.5262,-3.5342,-3.5398,-3.5398,-3.5439,-3.5493,-3.5493,-3.5493,-3.5493,-3.5493,0.0,0.0,0.0,0.0,0.0,-3.5865,-3.5558,-3.55,-3.55,-3.55,-3.55,-3.55,-3.55,-3.55,-3.55,-3.55,-3.55,-3.55,-3.55,-3.55,-3.55,-3.55,-3.55,-3.55,-3.55,-3.55,-3.55,-3.5442,-3.4981,-3.3295,-3.2852,-3.2372,-3.075,-3.0404,-3.0404,-3.0404,-3.0404,-3.0404,-3.0404,-3.0404,-3.0404,-3.0404,-3.0389,-3.0122,-2.9377,-2.9341,-2.8739,-2.7063,-2.6882,-2.6566,-2.5739,-2.5565,-2.5507,-2.5507,-2.5542,-2.5591,-2.559,-2.5718,-2.5805,-2.5878,-2.5889,-2.5885,-2.5878,-2.5879,-2.6309,-2.709,-2.7168,-2.7617,-1.9325,0.0,-2.1794,-2.1794,-2.1187,-2.0139,0.0,-1.7264,-1.6264,-1.5453,-1.5131,-1.4998,-1.4998,-1.5496,-1.5926,-1.5982,-1.7403,-1.9045,0.0,0.0,0.0,0.0,0.0,0.0,0.0,0.0,0.0,0.0,0.0,0.0,0.0,0.0,-3.5209,-3.5209,-3.5226,-3.5258,-3.5316,-3.5316,-3.5354,-3.542,-3.542,-3.542,-3.542,-3.542,0.0,0.0,0.0,0.0,-3.5827,-3.6231,-3.6058,-3.55,-3.55,-3.55,-3.55,-3.55,-3.55,-3.55,-3.55,-3.55,-3.55,-3.55,-3.55,-3.55,-3.55,-3.55,-3.55,-3.55,-3.55,-3.55,-3.55,-3.5007,-3.4237,-3.316,-3.2429,-3.1698,-3.0635,-3.0404,-3.0404,-3.0404,-3.0404,-3.0404,-3.0404,-3.0404,-3.0404,-3.0404,-3.039,-3.0325,-3.0142,-3.0139,-2.9775,-2.8792,-2.8685,-2.8332,-2.7484,-2.6246,-2.5507,-2.5507,-2.6072,-2.6424,-2.6417,-2.7113,-2.7527,-2.7532,-2.7589,-2.7642,-2.7692,-2.7695,-2.7793,-2.8008,-2.8672,-2.9101,-1.7923,-1.9079,-2.0158,-2.0556,-2.0026,-1.9079,-1.7785,-1.6829,-1.5965,-1.5169,-1.4998,-1.5112,-1.5472,-1.5936,-1.6499,-1.7286,-1.8831,0.0,0.0,0.0,0.0,0.0,0.0,0.0,0.0,0.0,0.0,0.0,0.0,0.0,0.0,0.0,-3.5209,-3.5209,-3.5209,-3.5226,-3.5304,-3.5312,-3.5331,-3.5405,-3.5372,-3.5372,-3.5405,-3.5364,0.0,0.0,0.0,0.0,-3.6058,-3.6115,-3.5885,-3.55,-3.55,-3.55,-3.55,-3.55,-3.55,-3.55,-3.55,-3.55,-3.55,-3.55,-3.55,-3.55,-3.55,-3.55,-3.55,-3.55,-3.55,-3.5404,-3.5007,-3.4545,-3.3898,-3.2641,-3.2025,-3.1468,-3.0596,-3.0404,-3.0404,-3.0404,-3.0404,-3.0404,-3.0404,-3.0404,-3.0404,-3.0404,-3.0404,-3.039,-3.0408,-3.0406,-3.012,-2.9341,-2.926,-2.8903,-2.8028,-2.7149,-2.6485,-2.6087,-2.6455,-2.6702,-2.6702,-2.7571,-2.8078,-2.8091,-2.816,-2.8218,-2.8248,-2.8279,-2.8515,-2.8906,-2.9375,-2.9805,-1.7222,-1.8088,-1.8903,-1.9779,-1.9438,-1.8694,-1.7861,-1.7018,-1.6212,-1.5529,-1.5378,-1.5624,-1.6435,-1.6737,0.0,0.0,0.0,0.0,0.0,0.0,0.0,0.0,0.0,0.0,0.0,0.0,0.0,0.0,0.0,0.0,0.0,0.0,0.0,-3.5209,-3.5209,-3.5226,-3.5277,-3.5277,-3.5316,-3.5391,-3.5335,-3.5335,-3.5391,-3.5335,-3.5726,0.0,0.0,0.0,-3.6462,-3.5904,-3.5615,-3.55,-3.55,-3.55,-3.55,-3.55,-3.55,-3.55,-3.55,-3.55,-3.55,-3.55,-3.55,-3.55,-3.55,-3.55,-3.55,-3.55,-3.55,-3.5327,-3.4584,-3.4205,-3.3648,-3.2218,-3.1698,-3.1288,-3.0558,-3.0404,-3.0404,-3.0404,-3.0404,-3.0404,-3.0404,-3.0404,-3.0404,-3.0404,-3.0404,-3.0404,-3.0404,-3.0408,-3.0142,-2.9454,-2.9378,-2.9085,-2.8367,-2.8237,-2.7874,-2.7142,-2.7108,-2.717,-2.7286,-2.8004,-2.8415,-2.8479,-2.8547,-2.8581,-2.8597,-2.8642,-2.906,-2.9783,-2.9785,-3.0195,-1.7089,-1.8088,-1.8903,-1.9779,-1.9893,-1.9571,-1.8713,-1.7885,-1.7279,-1.7146,-1.7127,-1.7354,-1.8169,-1.8932,-1.9996,0.0,0.0,0.0,0.0,0.0,0.0,0.0,0.0,0.0,0.0,0.0,0.0,0.0,0.0,0.0,0.0,0.0,0.0,-3.5209,-3.5209,-3.5209,-3.5218,-3.5218,-3.5242,-3.5327,-3.53,-3.53,-3.5308,-3.53,-3.5381,0.0,0.0,-3.6128,-3.5731,-3.6288,-3.6115,-3.55,-3.55,-3.55,-3.55,-3.55,-3.55,-3.55,-3.55,-3.55,-3.55,-3.55,-3.55,-3.55,-3.55,-3.55,-3.55,-3.55,-3.55,-3.5462,-3.5346,-3.4218,-3.3026,-3.2776,-3.1635,-3.0558,-3.0423,-3.0404,-3.0404,-3.0404,-3.0404,-3.0404,-3.0404,-3.0404,-3.0404,-3.0404,-3.0404,-3.0404,-3.0404,-3.041,-3.0344,-3.0238,-3.0224,-3.0183,-3.0113,-2.9423,-2.8975,-2.8917,-2.8902,-2.9224,-2.9979,-3.0138,-3.0199,-3.023,-3.0224,-3.0294,-3.0399,-3.0401,-3.0497,-3.0621,-3.0664,-3.0762,-1.6336,-1.7411,-1.824,-1.9097,-1.9988,-2.0537,-2.0139,-1.9438,-1.8851,-1.8851,-1.8851,-1.9097,0.0,0.0,-2.2213,0.0,0.0,0.0,0.0,0.0,0.0,0.0,0.0,0.0,0.0,0.0,0.0,0.0,0.0,0.0,0.0,0.0,0.0,0.0,-3.5209,-3.5209,-3.5209,-3.5209,-3.5226,-3.5312,-3.5269,-3.5269,-3.5312,-3.5312,-3.5289,-3.5327,0.0,-3.5777,-3.5538,-3.5904,-3.5827,-3.55,-3.55,-3.55,-3.55,-3.55,-3.55,-3.55,-3.55,-3.55,-3.55,-3.55,-3.55,-3.55,-3.55,-3.5467,-3.5453,-3.5453,-3.5467,-3.5385,-3.493,-3.4199,-3.3487,-3.3006,-3.1987,-3.1096,-3.1096,-3.0731,-3.0404,-3.0404,-3.0404,-3.0404,-3.0404,-3.0404,-3.0404,-3.0404,-3.0404,-3.0404,-3.0404,-3.0404,-3.041,-3.0408,-3.0408,-3.0414,-3.045,-3.0081,-2.9683,-2.9318,-2.9308,-2.9689,-3.0559,-3.0598,-3.0597,-3.0589,-3.0595,-3.0642,-3.0748,-3.0788,-3.0796,-3.0807,-3.0875,-3.0897,-1.5738,-1.67,-1.7487,-1.87,-2.0253,-2.1453,-2.1238,-2.1036,-2.0808,-2.0619,-2.0732,-2.1055,0.0,-2.2828,0.0,0.0,0.0,0.0,0.0,0.0,0.0,0.0,0.0,0.0,0.0,0.0,0.0,0.0,0.0,0.0,0.0,0.0,0.0,0.0,-3.5209,-3.5209,-3.5209,-3.5209,-3.5226,-3.5277,-3.5226,-3.5245,-3.5312,-3.5312,-3.5316,-3.5323,-3.5372,-3.5446,-3.55,-3.55,-3.55,-3.55,-3.55,-3.55,-3.55,-3.55,-3.55,-3.55,-3.55,-3.55,-3.55,-3.55,-3.55,-3.55,-3.55,-3.5453,-3.5379,-3.5357,-3.5383,-3.5271,-3.4627,-3.4314,-3.4006,-3.334,-3.2571,-3.1936,-3.1731,-3.1173,-3.0635,-3.0442,-3.0404,-3.0404,-3.0404,-3.0404,-3.0404,-3.0404,-3.0404,-3.0404,-3.0404,-3.0404,-3.0404,-3.0404,-3.0404,-3.0404,-3.0404,-3.0394,-3.0163,-2.9588,-2.939,-2.9684,-3.0559,-3.0598,-3.0607,-3.061,-3.0602,-3.0638,-3.0674,-3.0728,-3.0765,-3.0778,-3.0839,-3.0867,-1.5738,-1.625,-1.6871,-1.9292,-2.1168,-2.2192,-2.1377,-2.2362,-2.3215,-2.2476,-2.2912,-2.3442,0.0,-2.5545,0.0,0.0,0.0,0.0,0.0,0.0,0.0,0.0,0.0,0.0,0.0,0.0,0.0,0.0,0.0,0.0,0.0,0.0,0.0,0.0,0.0,-3.5209,-3.5209,-3.5209,-3.5209,-3.5209,-3.5209,-3.5245,-3.5312,-3.5312,-3.5331,-3.5379,-3.5405,-3.5446,-3.55,-3.55,-3.55,-3.55,-3.55,-3.55,-3.55,-3.55,-3.55,-3.55,-3.55,-3.55,-3.55,-3.55,-3.55,-3.55,-3.55,-3.5453,-3.5364,-3.525,-3.5174,-3.5136,-3.5189,-3.4671,-3.4091,-3.403,-3.3403,-3.2603,-3.1865,-3.166,-3.1371,-3.0558,-3.0404,-3.0404,-3.0404,-3.0404,-3.0404,-3.0404,-3.0404,-3.0404,-3.0404,-3.0404,-3.0404,-3.0404,-3.0404,-3.0404,-3.0404,-3.0394,-3.0378,-3.0326,-2.9679,-2.968,-3.0559,-3.0598,-3.0598,-3.0602,-3.0602,-3.061,-3.0614,-3.0605,-3.0643,-3.0712,-3.0704,-3.0747,-1.5131,-1.5453,-1.5946,-1.7942,-2.0083,-2.1888,-2.259,-2.4049,-2.5174,-2.4871,-2.5477,0.0,0.0,0.0,0.0,0.0,0.0,0.0,0.0,0.0,0.0,0.0,0.0,0.0,0.0,0.0,0.0,0.0,0.0,0.0,0.0,0.0,0.0,0.0,0.0,-3.5262,-3.5262,-3.5262,-3.5262,-3.5262,-3.5258,-3.5277,-3.5293,-3.5339,-3.5376,-3.5405,-3.5434,-3.5486,-3.55,-3.55,-3.55,-3.55,-3.55,-3.55,-3.55,-3.55,-3.55,-3.55,-3.55,-3.55,-3.55,-3.55,-3.5467,-3.5446,-3.5446,-3.5327,-3.5179,-3.5105,-3.5009,-3.4926,-3.5027,-3.4867,-3.4677,-3.4768,-3.4208,-3.3574,-3.3301,-3.2833,-3.2199,-3.1365,-3.1212,-3.1038,-3.05,-3.0404,-3.0404,-3.0404,-3.0404,-3.0404,-3.0404,-3.0404,-3.0404,-3.0404,-3.0404,-3.0404,-3.0404,-3.0396,-3.0394,-3.0392,-3.0176,-3.0192,-3.0511,-3.0588,-3.0598,-3.0598,-3.0598,-3.0597,-3.0608,-3.0595,-3.0628,-3.0695,-3.0706,-3.0711,-1.4752,-1.4809,-1.5127,-1.7335,-1.9552,-2.1718,-2.367,-2.5401,-2.6614,-2.6614,-2.7084,-2.7417,-2.7176,0.0,0.0,0.0,0.0,0.0,0.0,0.0,0.0,0.0,0.0,0.0,0.0,0.0,0.0,0.0,0.0,0.0,0.0,0.0,0.0,0.0,0.0,-3.5308,-3.5308,-3.5308,-3.5308,-3.5308,-3.5312,-3.5324,-3.5331,-3.5383,-3.5412,-3.5427,-3.5486,-3.55,-3.55,-3.55,-3.55,-3.55,-3.55,-3.55,-3.55,-3.55,-3.55,-3.55,-3.55,-3.55,-3.55,-3.55,-3.5453,-3.5398,-3.5342,-3.5215,-3.5034,-3.487,-3.4773,-3.4701,-3.4651,-3.4803,-3.4972,-3.5105,-3.4767,-3.4373,-3.4204,-3.3705,-3.3032,-3.2237,-3.2083,-3.1891,-3.1288,-3.1192,-3.1192,-3.1192,-3.0962,-3.0808,-3.0808,-3.0577,-3.0404,-3.0404,-3.0404,-3.0404,-3.0404,-3.0404,-3.0396,-3.04,-3.0444,-3.0476,-3.0496,-3.0535,-3.0588,-3.0598,-3.0598,-3.0607,-3.0606,-3.0597,-3.0618,-3.0677,-3.066,-3.0824,-1.4771,-1.4373,-1.4539,-1.7885,-1.9969,-2.1888,-2.4435,-2.6318,-2.7513,-2.7513,-2.7516,-2.7794,-2.8729,0.0,0.0,0.0,0.0,0.0,0.0,0.0,0.0,0.0,0.0,0.0,0.0,0.0,0.0,0.0,0.0,0.0,0.0,0.0,0.0,0.0,0.0,0.0,-3.5308,-3.5308,-3.5308,-3.5289,-3.5372,-3.5405,-3.5405,-3.5405,-3.5446,-3.55,-3.55,-3.55,-3.55,-3.55,-3.55,-3.55,-3.55,-3.55,-3.55,-3.55,-3.55,-3.55,-3.55,-3.55,-3.55,-3.55,-3.5453,-3.5364,-3.5242,-3.5105,-3.4925,-3.4596,-3.4495,-3.4439,-3.4173,-3.4458,-3.4822,-3.4953,-3.5043,-3.4917,-3.4244,-3.4107,-3.3871,-3.3077,-3.291,-3.291,-3.2891,-3.2891,-3.2891,-3.2891,-3.2218,-3.1698,-3.1698,-3.0923,-3.0404,-3.0404,-3.0404,-3.0404,-3.0404,-3.0404,-3.0404,-3.0404,-3.0394,-3.0439,-3.0491,-3.0496,-3.053,-3.0598,-3.0598,-3.0598,-3.0598,-3.0598,-3.0598,-3.0598,-3.0617,-3.107,-1.5683,-1.5737,-1.6206,-1.8997,0.0,-2.2852,-2.5335,-2.7174,-2.8529,-2.9129,-2.9308,-2.9077,-2.8268,0.0,0.0,0.0,0.0,0.0,0.0,0.0,0.0,0.0,0.0,0.0,0.0,0.0,0.0,0.0,0.0,0.0,0.0,0.0,0.0,0.0,0.0,0.0,-3.5446,-3.5446,-3.5446,-3.5446,-3.546,-3.5453,-3.5405,-3.5453,-3.5467,-3.55,-3.55,-3.55,-3.55,-3.55,-3.55,-3.55,-3.55,-3.55,-3.55,-3.55,-3.55,-3.55,-3.55,-3.55,-3.55,-3.55,-3.5417,-3.5308,-3.5174,-3.4963,-3.474,-3.4506,-3.4328,-3.4197,-3.4124,-3.4227,-3.4435,-3.467,-3.4841,-3.4933,-3.4882,-3.491,-3.4719,-3.3962,-3.3821,-3.3622,-3.3006,-3.2891,-3.2891,-3.2891,-3.2391,-3.1692,-3.0885,-3.0558,-3.0404,-3.0404,-3.0404,-3.0404,-3.0404,-3.0404,-3.0404,-3.0404,-3.039,-3.0419,-3.0439,-3.0476,-3.052,-3.0525,-3.0588,-3.0598,-3.0598,-3.0598,-3.0598,-3.0617,-3.1178,-3.1598,-1.6402,-1.6582,-1.7198,-2.0757,-2.2409,-2.3995,-2.7172,0.0,0.0,0.0,-3.0123,-2.9908,-2.9002,0.0,0.0,0.0,0.0,0.0,0.0,0.0,0.0,0.0,0.0,0.0,0.0,0.0,0.0,0.0,0.0,0.0,0.0,0.0,0.0,0.0,0.0,0.0,-3.546,-3.5427,-3.5427,-3.546,-3.546,-3.5453,-3.5446,-3.5474,-3.55,-3.55,-3.55,-3.55,-3.55,-3.55,-3.55,-3.55,-3.55,-3.55,-3.55,-3.55,-3.55,-3.55,-3.55,-3.55,-3.55,-3.55,-3.5403,-3.5261,-3.5044,-3.4821,-3.4602,-3.4281,-3.4136,-3.4049,-3.4023,-3.4074,-3.4197,-3.4495,-3.4689,-3.4879,-3.5091,-3.5174,-3.5097,-3.4714,-3.4665,-3.4525,-3.4019,-3.393,-3.393,-3.393,-3.3654,-3.2942,-3.1577,-3.1385,-3.1135,-3.0462,-3.0404,-3.0404,-3.0404,-3.0404,-3.0404,-3.0404,-3.0404,-3.039,-3.0394,-3.0439,-3.0476,-3.0496,-3.053,-3.0569,-3.0598,-3.0598,-3.0752,-3.1101,-3.156,-3.2189,-1.6927,-1.7133,-1.7814,-2.2776,-2.425,0.0,-2.9421,-3.0216,-3.014,-3.0219,0.0,-3.0346,0.0,0.0,0.0,0.0,0.0,0.0,0.0,0.0,0.0,0.0,0.0,0.0,0.0,0.0,0.0,0.0,0.0,0.0,0.0,0.0,0.0,0.0,0.0,0.0,-3.5372,-3.5342,-3.5285,0.0,-3.536,-3.5381,-3.5385,-3.5462,-3.55,-3.55,-3.55,-3.55,-3.55,-3.55,-3.55,-3.55,-3.55,-3.55,-3.55,-3.55,-3.55,-3.55,-3.55,-3.55,-3.5493,-3.5474,-3.5388,-3.5201,-3.4889,-3.468,-3.4473,-3.4023,-3.3934,-3.3972,-3.3908,-3.3947,-3.4074,-3.4374,-3.455,-3.4708,-3.4898,-3.5,-3.5113,-3.5243,-3.5323,-3.5405,-3.5486,-3.5493,-3.5493,-3.55,-3.55,-3.4923,-3.3333,-3.3141,-3.2545,-3.1038,-3.0865,-3.0865,-3.0865,-3.0865,-3.0865,-3.0865,-3.0712,-3.0635,-3.0635,-3.0471,-3.0433,-3.0481,-3.0496,-3.0588,-3.0709,-3.0714,-3.1139,-3.1927,-3.2005,-3.2899,-1.7087,-1.8014,0.0,-2.3127,-2.6092,-2.8502,-3.009,-3.0423,-3.0397,-3.0367,-3.0413,0.0,0.0,0.0,0.0,0.0,0.0,0.0,0.0,0.0,0.0,0.0,0.0,0.0,0.0,0.0,0.0,0.0,0.0,0.0,0.0,0.0,0.0,0.0,0.0,-3.5293,-3.525,-3.5273,-3.4948,0.0,-3.4967,-3.5033,-3.4507,-3.5192,-3.55,-3.55,-3.55,-3.55,-3.55,-3.55,-3.55,-3.55,-3.55,-3.55,-3.55,-3.55,-3.55,-3.55,-3.55,-3.546,-3.5412,-3.5364,-3.5226,-3.5001,-3.4743,-3.4491,-3.4233,-3.3972,-3.3868,-3.3842,-3.3881,-3.3908,-3.3947,-3.4074,-3.4209,-3.4321,-3.4431,-3.4624,-3.4832,-3.5034,-3.5155,-3.5281,-3.5398,-3.5432,-3.5439,-3.5493,-3.55,-3.5365,-3.4981,-3.4942,-3.4808,-3.4442,-3.4404,-3.4404,-3.4404,-3.4404,-3.4404,-3.4404,-3.3115,-3.2352,-3.2352,-3.1102,-3.0402,-3.0414,-3.0525,-3.0893,-3.154,-3.1536,-3.1985,-3.2836,-3.3518,-3.4046,-1.7432,-1.8329,0.0,-2.3717,0.0,-3.0047,-3.049,-3.0626,-3.0633,-3.0595,0.0,0.0,0.0,0.0,0.0,0.0,0.0,0.0,0.0,0.0,0.0,0.0,0.0,0.0,0.0,0.0,0.0,0.0,0.0,0.0,0.0,0.0,0.0,0.0,-3.5327,-3.5281,-3.5253,-3.5261,-3.5031,-3.4572,-3.5067,-3.5122,-3.4834,-3.5288,-3.55,-3.55,-3.55,-3.55,-3.55,-3.55,-3.55,-3.55,-3.55,-3.55,-3.55,-3.55,-3.55,-3.55,-3.55,-3.5446,-3.535,-3.5246,-3.507,-3.4841,-3.4518,-3.4291,-3.4111,-3.3908,-3.3834,-3.382,-3.3842,-3.3842,-3.3855,-3.3895,-3.4036,-3.4166,-3.4244,-3.4428,-3.4662,-3.4823,-3.499,-3.5157,-3.5315,-3.5405,-3.5453,-3.5493,-3.55,-3.55,-3.55,-3.55,-3.55,-3.55,-3.55,-3.55,-3.55,-3.55,-3.55,-3.55,-3.4654,-3.4141,-3.4141,-3.3308,-3.2077,-3.0423,-3.0466,-3.1007,-3.2033,-3.1879,-3.2464,-3.3731,-3.42,-3.4626,-1.7217,-1.8465,-1.9783,-2.4368,-2.8013,0.0,-3.0671,-3.0748,-3.0781,0.0,0.0,0.0,0.0,0.0,0.0,0.0,0.0,0.0,0.0,0.0,0.0,0.0,0.0,0.0,0.0,0.0,0.0,0.0,0.0,0.0,0.0,0.0,-3.5316,-3.5372,-3.5324,-3.5285,-3.5277,-3.5234,-3.5157,-3.5047,-3.509,-3.5252,-3.55,-3.55,-3.55,-3.55,-3.55,-3.55,-3.55,-3.55,-3.55,-3.55,-3.55,-3.5493,-3.5474,-3.5474,-3.5479,-3.5472,-3.5472,-3.5376,-3.5239,-3.5096,-3.4898,-3.4672,-3.4288,-3.4136,-3.4036,-3.3842,-3.3807,-3.3807,-3.3807,-3.3807,-3.3807,-3.3807,-3.3921,-3.4061,-3.4124,-3.4281,-3.4476,-3.4595,-3.4851,-3.5072,-3.5262,-3.5405,-3.55,-3.55,-3.55,-3.55,-3.55,-3.55,-3.55,-3.55,-3.55,-3.55,-3.55,-3.55,-3.55,-3.55,-3.55,-3.55,-3.55,-3.55,-3.4173,-3.1346,-3.1288,-3.1515,-3.1965,-3.2004,-3.2923,-3.4626,-3.4626,-3.5013,-1.5052,0.0,-2.2753,0.0,-2.7547,-2.9761,0.0,0.0,-3.0707,0.0,0.0,0.0,0.0,0.0,0.0,0.0,0.0,0.0,0.0,0.0,0.0,0.0,0.0,0.0,0.0,0.0,0.0,0.0,0.0,0.0,0.0,-3.5218,-3.5231,-3.5315,-3.5297,-3.5269,-3.5218,-3.5269,-3.4886,-3.409,-3.4258,-3.475,-3.55,-3.55,-3.55,-3.55,-3.55,-3.55,-3.55,-3.55,-3.55,-3.55,-3.55,-3.546,-3.5412,-3.5412,-3.5369,-3.5335,-3.5335,-3.5193,-3.501,-3.4889,-3.4662,-3.4409,-3.4179,-3.4036,-3.3908,-3.3815,-3.3807,-3.3807,-3.3807,-3.3807,-3.3807,-3.3807,-3.3815,-3.3842,-3.3842,-3.4016,-3.4185,-3.4333,-3.4762,-3.51,-3.5209,-3.5369,-3.55,-3.55,-3.55,-3.55,-3.55,-3.55,-3.55,-3.55,-3.55,-3.55,-3.55,-3.55,-3.55,-3.55,-3.55,-3.55,-3.55,-3.55,-3.5288,-3.4827,-3.4827,-3.343,-3.0664,-3.219,-3.3822,-3.5535,-3.5535,-3.5588,-1.5695,-1.9983,-2.3883,0.0,-2.7462,-2.9499,-2.9885,0.0,0.0,0.0,0.0,0.0,0.0,0.0,0.0,0.0,0.0,0.0,0.0,0.0,0.0,0.0,0.0,0.0,0.0,0.0,0.0,0.0,0.0,0.0,-3.5209,-3.5209,-3.5223,-3.5308,-3.5308,-3.5293,-3.5254,-3.5297,-3.5113,-3.4737,-3.487,-3.5141,-3.55,-3.55,-3.55,-3.55,-3.55,-3.55,-3.55,-3.55,-3.55,-3.55,-3.55,-3.546,-3.5398,-3.5312,-3.525,-3.5166,-3.5063,-3.4917,-3.4743,-3.4529,-3.436,-3.4197,-3.3998,-3.3881,-3.3847,-3.382,-3.3807,-3.3807,-3.3807,-3.3807,-3.3807,-3.3807,-3.3807,-3.3807,-3.3807,-3.3873,-3.3985,-3.4191,-3.4321,-3.4383,-3.4409,-3.4734,-3.5072,-3.5308,-3.5331,-3.5369,-3.5486,-3.55,-3.55,-3.55,-3.55,-3.55,-3.55,-3.55,-3.55,-3.55,-3.55,-3.55,-3.55,-3.55,-3.55,-3.55,-3.55,-3.4769,-3.3269,-3.3081,-3.3917,-3.5704,-3.5704,-3.5704,-1.6019,-2.0042,-2.345,-2.4832,-2.6646,-2.8313,0.0,0.0,0.0,0.0,0.0,0.0,0.0,0.0,0.0,0.0,0.0,0.0,0.0,0.0,0.0,0.0,0.0,0.0,0.0,0.0,0.0,0.0,0.0,0.0,-3.5209,-3.5209,-3.5223,-3.5293,-3.53,-3.5308,-3.5308,-3.5315,-3.5357,-3.5405,-3.546,-3.55,-3.55,-3.55,-3.55,-3.55,-3.55,-3.55,-3.55,-3.55,-3.5493,-3.5467,-3.5453,-3.5398,-3.5312,-3.5182,-3.5089,-3.4973,-3.4812,-3.4641,-3.4453,-3.4249,-3.4123,-3.4023,-3.3842,-3.3807,-3.3807,-3.3807,-3.3807,-3.3807,-3.3807,-3.3807,-3.3807,-3.3807,-3.3807,-3.3807,-3.3807,-3.3807,-3.3855,-3.4061,-3.3934,-3.3807,-3.3807,-3.4185,-3.4618,-3.4982,-3.5089,-3.5218,-3.5479,-3.55,-3.55,-3.55,-3.55,-3.55,-3.55,-3.55,-3.55,-3.55,-3.55,-3.55,-3.55,-3.55,-3.55,-3.55,-3.55,-3.55,-3.55,-3.4192,-3.4269,-3.5659,-3.5673,-3.5704,-1.4661,-1.7858,-2.1097,-2.3632,-2.4369,0.0,0.0,0.0,0.0,0.0,0.0,0.0,0.0,0.0,0.0,0.0,0.0,0.0,0.0,0.0,0.0,0.0,0.0,0.0,0.0,0.0,0.0,0.0,0.0,0.0,-3.5209,-3.5209,-3.5226,-3.5293,-3.5312,-3.5308,-3.5308,-3.5364,-3.5405,-3.5405,-3.546,-3.55,-3.55,-3.55,-3.55,-3.55,-3.55,-3.55,-3.55,-3.55,-3.546,-3.5405,-3.535,-3.5227,-3.5105,-3.5047,-3.4888,-3.4708,-3.4645,-3.445,-3.4209,-3.4136,-3.4023,-3.3895,-3.3815,-3.3807,-3.3807,-3.3807,-3.3807,-3.3807,-3.3807,-3.3807,-3.3807,-3.3807,-3.3807,-3.3807,-3.3807,-3.3807,-3.3788,-3.382,-3.382,-3.3807,-3.3807,-3.4036,-3.4316,-3.4583,-3.4801,-3.5063,-3.5446,-3.55,-3.55,-3.55,-3.55,-3.55,-3.55,-3.55,-3.55,-3.55,-3.55,-3.55,-3.55,-3.55,-3.55,-3.55,-3.55,-3.55,-3.55,-3.5404,-3.5411,-3.5514,-3.5633,-3.5704,-1.2537,-1.5708,0.0,-2.112,-2.2477,-2.3774,0.0,0.0,0.0,0.0,0.0,0.0,0.0,0.0,0.0,0.0,0.0,0.0,0.0,0.0,0.0,0.0,0.0,0.0,0.0,0.0,0.0,0.0,0.0,0.0,-3.5209,-3.5209,-3.5226,-3.5304,-3.5312,-3.5308,-3.5308,-3.5364,-3.5405,-3.5405,-3.546,-3.55,-3.55,-3.55,-3.55,-3.55,-3.55,-3.55,-3.55,-3.5453,-3.541,-3.5324,-3.5171,-3.5025,-3.4879,-3.4634,-3.4513,-3.4427,-3.4221,-3.4086,-3.3998,-3.3934,-3.3868,-3.3815,-3.382,-3.3807,-3.3807,-3.3807,-3.3807,-3.3807,-3.3807,-3.3807,-3.3807,-3.3807,-3.3807,-3.3807,-3.3807,-3.3807,-3.3807,-3.3807,-3.3807,-3.3807,-3.3807,-3.3868,-3.3972,-3.4074,-3.4443,-3.4841,-3.525,-3.5316,-3.5354,-3.5493,-3.55,-3.55,-3.55,-3.55,-3.55,-3.55,-3.55,-3.55,-3.55,-3.55,-3.55,-3.55,-3.55,-3.55,-3.55,-3.55,-3.55,-3.55,-3.5554,-3.5629,-1.1018,-1.4159,0.0,0.0,0.0,-2.1876,0.0,0.0,0.0,0.0,0.0,0.0,0.0,0.0,0.0,0.0,0.0,0.0,0.0,0.0,0.0,0.0,0.0,0.0,0.0,0.0,0.0,0.0,0.0,0.0,-3.5209,-3.5209,-3.5218,-3.5269,-3.5269,-3.5258,-3.527,-3.5327,-3.5369,-3.5369,-3.5405,-3.5427,-3.5427,-3.5427,-3.5427,-3.5427,-3.5427,-3.5453,-3.546,-3.5412,-3.5327,-3.5218,-3.5044,-3.487,-3.4682,-3.4375,-3.4232,-3.4173,-3.3972,-3.3881,-3.3855,-3.3802,-3.3807,-3.3807,-3.3807,-3.3807,-3.3807,-3.3807,-3.3807,-3.3807,-3.3807,-3.3807,-3.3807,-3.3807,-3.3807,-3.3807,-3.3807,-3.3807,-3.3807,-3.3807,-3.3807,-3.3807,-3.3807,-3.3807,-3.3807,-3.3807,-3.4257,-3.4751,-3.5141,-3.5209,-3.5273,-3.5486,-3.55,-3.55,-3.55,-3.55,-3.55,-3.55,-3.55,-3.55,-3.55,-3.55,-3.55,-3.55,-3.55,-3.55,-3.55,-3.55,-3.55,-3.55,-3.55,-3.5554,0.0,0.0,0.0,0.0,0.0,0.0,0.0,0.0,0.0,0.0,0.0,0.0,0.0,0.0,0.0,0.0,0.0,0.0,0.0,0.0,0.0,0.0,0.0,0.0,0.0,0.0,0.0,0.0,0.0,-3.5209,-3.5209,-3.5209,-3.5209,-3.5209,-3.5209,-3.5209,-3.5209,-3.5269,-3.5312,-3.5312,-3.5312,-3.5308,-3.5308,-3.5308,-3.5308,-3.5308,-3.5308,-3.535,-3.5379,-3.5405,-3.527,-3.5079,-3.4936,-3.4771,-3.455,-3.4281,-3.4111,-3.3985,-3.3921,-3.3842,-3.3807,-3.3807,-3.3807,-3.3807,-3.3807,-3.3807,-3.3807,-3.3807,-3.3807,-3.3807,-3.3807,-3.3807,-3.3807,-3.3807,-3.3807,-3.3807,-3.3807,-3.3807,-3.3807,-3.3807,-3.3807,-3.3807,-3.3807,-3.3807,-3.3807,-3.3807,-3.4257,-3.4751,-3.5141,-3.5209,-3.5266,-3.5479,-3.5493,-3.5493,-3.55,-3.55,-3.55,-3.55,-3.55,-3.55,-3.55,-3.55,-3.55,-3.55,-3.55,-3.55,-3.55,-3.55,-3.55,-3.55,-3.55,-3.55,-1.3463,0.0,0.0,0.0,0.0,0.0,0.0,0.0,0.0,0.0,0.0,0.0,0.0,0.0,0.0,0.0,0.0,0.0,0.0,0.0,0.0,0.0,0.0,0.0,0.0,0.0,0.0,0.0,-3.5209,-3.5209,-3.5209,-3.5209,-3.5209,-3.5209,-3.5209,-3.5209,-3.5209,-3.5269,-3.5312,-3.5312,-3.5312,-3.5308,-3.5308,-3.5308,-3.5308,-3.5308,-3.5308,-3.5285,-3.5258,-3.5308,-3.5201,-3.5001,-3.4714,-3.4483,-3.4281,-3.4011,-3.3881,-3.3842,-3.3829,-3.382,-3.3807,-3.3807,-3.3807,-3.3807,-3.3807,-3.3807,-3.3807,-3.3807,-3.3807,-3.3807,-3.3807,-3.3807,-3.3807,-3.3807,-3.3807,-3.3807,-3.3807,-3.3807,-3.3807,-3.3807,-3.3807,-3.3807,-3.3807,-3.3807,-3.3807,-3.3807,-3.4257,-3.4751,-3.5141,-3.5209,-3.5226,-3.5273,-3.5273,-3.5339,-3.5493,-3.55,-3.55,-3.55,-3.55,-3.55,-3.55,-3.55,-3.55,-3.55,-3.55,-3.55,-3.55,-3.55,-3.55,-3.55,-3.55,-3.55,-1.424,-1.4278,-1.4278,0.0,0.0,0.0,0.0,0.0,0.0,0.0,0.0,0.0,0.0,0.0,0.0,0.0,0.0,0.0,0.0,0.0,0.0,0.0,0.0,0.0,0.0,0.0,0.0,0.0,-3.4694,-3.4694,-3.4694,-3.4694,-3.4846,-3.519,-3.5209,-3.5209,-3.5209,-3.5234,-3.5261,-3.5261,-3.5266,-3.5262,-3.5262,-3.5262,-3.5262,-3.5262,-3.5262,-3.5215,-3.5151,-3.5143,-3.5047,-3.4888,-3.4577,-3.4344,-3.4136,-3.3881,-3.3807,-3.3807,-3.3807,-3.3807,-3.3807,-3.3807,-3.3807,-3.3807,-3.3807,-3.3807,-3.3807,-3.3807,-3.3807,-3.3807,-3.3807,-3.3807,-3.3807,-3.3807,-3.3807,-3.3807,-3.3807,-3.3807,-3.3807,-3.3807,-3.3807,-3.3807,-3.3807,-3.3807,-3.3807,-3.3807,-3.4161,-3.4553,-3.4917,-3.5028,-3.5107,-3.5201,-3.5209,-3.5273,-3.5486,-3.55,-3.55,-3.55,-3.55,-3.55,-3.55,-3.55,-3.55,-3.55,-3.55,-3.55,-3.55,-3.55,-3.55,-3.55,-3.55,-3.55,-1.4437,-1.4798,-1.5215,-1.4339,0.0,0.0,-1.6967,-1.7348,0.0,0.0,0.0,0.0,0.0,0.0,0.0,0.0,0.0,0.0,0.0,0.0,0.0,0.0,0.0,0.0,0.0,0.0,-3.4639,-3.4017,-3.3902,-3.3853,-3.3853,-3.3956,-3.4331,-3.5037,-3.5152,-3.5209,-3.5209,-3.5209,-3.5209,-3.5209,-3.5209,-3.5209,-3.5209,-3.5209,-3.5209,-3.5209,-3.5209,-3.5151,-3.5075,-3.4936,-3.4831,-3.4758,-3.4484,-3.4257,-3.4074,-3.3868,-3.3807,-3.3807,-3.3807,-3.3807,-3.3807,-3.3807,-3.3807,-3.3807,-3.3807,-3.3807,-3.3807,-3.3807,-3.3807,-3.3807,-3.3807,-3.3807,-3.388,-3.4266,-3.4339,-3.4339,-3.4339,-3.4339,-3.4339,-3.4339,-3.4045,-3.3807,-3.3807,-3.3807,-3.3807,-3.3807,-3.3998,-3.4245,-3.4484,-3.4711,-3.4945,-3.5185,-3.5209,-3.5266,-3.5446,-3.5479,-3.5479,-3.5479,-3.5479,-3.5486,-3.55,-3.55,-3.55,-3.55,-3.55,-3.55,-3.55,-3.55,-3.55,-3.55,-3.55,-3.55,-1.9606,-1.8921,-1.7847,-1.6973,0.0,0.0,0.0,-1.6081,0.0,0.0,0.0,0.0,0.0,0.0,0.0,0.0,0.0,0.0,0.0,0.0,0.0,0.0,0.0,0.0,0.0,0.0,-3.3318,-3.3805,-3.3236,-3.2905,-3.2947,-3.3624,-3.4071,-3.4235,-3.4866,-3.5209,-3.5209,-3.5209,-3.5209,-3.5209,-3.5209,-3.5209,-3.5209,-3.5209,-3.5209,-3.5209,-3.5209,-3.5134,-3.5001,-3.4821,-3.4701,-3.4623,-3.434,-3.4148,-3.3998,-3.3842,-3.3807,-3.3807,-3.3807,-3.3807,-3.3807,-3.3807,-3.3807,-3.3807,-3.3807,-3.3807,-3.3807,-3.3807,-3.3807,-3.3807,-3.3807,-3.3807,-3.4468,-3.7129,-3.7753,-3.7753,-3.7753,-3.7753,-3.7753,-3.7753,-3.5605,-3.3807,-3.3807,-3.3807,-3.3807,-3.3807,-3.3842,-3.3895,-3.3947,-3.4374,-3.4801,-3.5149,-3.5209,-3.5218,-3.525,-3.5258,-3.5258,-3.5258,-3.5258,-3.5331,-3.5493,-3.55,-3.55,-3.55,-3.55,-3.55,-3.55,-3.55,-3.55,-3.55,-3.55,-3.55,-2.0577,-1.9764,-1.8588,-1.7723,0.0,0.0,0.0,0.0,0.0,0.0,0.0,0.0,0.0,0.0,0.0,0.0,0.0,0.0,0.0,0.0,0.0,0.0,0.0,0.0,0.0,0.0,-3.2132,-3.2523,-3.1802,-3.1566,-3.2027,-3.2508,-3.3127,-3.3975,-3.4388,-3.4789,-3.5209,-3.5209,-3.5209,-3.5209,-3.5209,-3.5209,-3.5209,-3.5209,-3.5209,-3.5209,-3.5209,-3.5098,-3.4936,-3.4694,-3.4516,-3.4374,-3.4185,-3.4036,-3.3934,-3.3847,-3.3807,-3.3807,-3.3807,-3.3807,-3.3807,-3.3807,-3.3807,-3.3807,-3.3807,-3.3807,-3.3807,-3.3807,-3.3807,-3.3807,-3.3807,-3.3807,-3.4211,-3.5862,-3.6266,-3.6266,-3.6266,-3.7551,-3.8707,-3.8707,-3.7367,-3.6248,-3.6248,-3.6248,-3.5697,-3.4045,-3.3807,-3.3807,-3.3807,-3.4148,-3.4531,-3.486,-3.5001,-3.5089,-3.5201,-3.5209,-3.5209,-3.5209,-3.5209,-3.5281,-3.5493,-3.55,-3.55,-3.55,-3.55,-3.55,-3.55,-3.55,-3.55,-3.55,-3.55,-3.55,0.0,0.0,0.0,0.0,0.0,-1.6827,0.0,0.0,0.0,-1.6962,0.0,0.0,0.0,0.0,0.0,0.0,0.0,0.0,0.0,0.0,0.0,0.0,0.0,0.0,0.0,0.0,-3.0871,-3.1031,-3.03,-3.0235,-3.1108,-3.1367,-3.2191,-3.37,-3.3918,-3.4388,-3.519,-3.5209,-3.5209,-3.5209,-3.5209,-3.5209,-3.5209,-3.5209,-3.5209,-3.5209,-3.5209,-3.5089,-3.4908,-3.4643,-3.4416,-3.4221,-3.4036,-3.3934,-3.3868,-3.3815,-3.3807,-3.3807,-3.3807,-3.3807,-3.3807,-3.3807,-3.3807,-3.3807,-3.3807,-3.3807,-3.3807,-3.3807,-3.3807,-3.3807,-3.3807,-3.3807,-3.3807,-3.3807,-3.3807,-3.3807,-3.3807,-3.5881,-3.7936,-3.8579,-3.8707,-3.8707,-3.8707,-3.8707,-3.7588,-3.4284,-3.3807,-3.3807,-3.3807,-3.3985,-3.4209,-3.4409,-3.468,-3.4945,-3.5185,-3.5209,-3.5209,-3.5209,-3.5209,-3.5266,-3.5432,-3.5486,-3.55,-3.55,-3.55,-3.55,-3.55,-3.55,-3.55,-3.55,-3.55,-3.55,0.0,0.0,0.0,0.0,-2.0254,0.0,0.0,0.0,-1.6121,-1.6315,0.0,0.0,0.0,0.0,0.0,0.0,0.0,0.0,0.0,0.0,0.0,0.0,0.0,0.0,0.0,0.0,0.0,-3.009,-2.9395,-2.9336,-3.0197,-3.1042,-3.1904,-3.2814,-3.3605,-3.4388,-3.519,-3.5209,-3.5209,-3.5209,-3.5209,-3.5209,-3.5209,-3.5209,-3.5209,-3.5209,-3.5209,-3.5126,-3.4964,-3.4763,-3.4567,-3.434,-3.3972,-3.382,-3.382,-3.3788,-3.3807,-3.3807,-3.3807,-3.3807,-3.3807,-3.3807,-3.3807,-3.3807,-3.3807,-3.3807,-3.3807,-3.3807,-3.3807,-3.3807,-3.3807,-3.3807,-3.3807,-3.3807,-3.3807,-3.3807,-3.3807,-3.4082,-3.522,-3.8138,-3.8707,-3.8707,-3.8707,-3.8707,-3.7588,-3.4284,-3.3807,-3.3807,-3.3807,-3.3834,-3.3873,-3.3881,-3.434,-3.4791,-3.5176,-3.5209,-3.5209,-3.5209,-3.5209,-3.5218,-3.5234,-3.541,-3.55,-3.55,-3.55,-3.55,-3.55,-3.55,-3.55,-3.55,-3.55,-3.55,0.0,0.0,0.0,0.0,0.0,0.0,-1.6248,0.0,-1.6345,0.0,0.0,0.0,0.0,0.0,0.0,0.0,0.0,0.0,0.0,0.0,0.0,0.0,0.0,0.0,0.0,0.0,0.0,0.0,0.0,-2.8472,-2.9298,-3.0233,-3.135,-3.2661,-3.3043,-3.3872,-3.519,-3.5209,-3.5209,-3.5209,-3.5209,-3.5209,-3.5209,-3.5209,-3.5209,-3.5209,-3.5209,-3.5143,-3.5057,-3.4879,-3.4701,-3.4484,-3.4161,-3.3959,-3.3842,-3.3802,-3.3807,-3.3807,-3.3807,-3.3807,-3.3807,-3.3807,-3.3807,-3.3807,-3.3807,-3.3807,-3.3807,-3.3807,-3.3807,-3.3807,-3.3807,-3.3807,-3.3807,-3.3807,-3.3807,-3.3807,-3.3807,-3.3807,-3.4211,-3.5587,-3.7404,-3.8707,-3.8707,-3.8707,-3.7588,-3.4284,-3.3807,-3.3807,-3.3807,-3.3807,-3.3807,-3.3807,-3.4136,-3.4498,-3.4812,-3.4964,-3.5081,-3.5201,-3.5209,-3.5209,-3.5209,-3.5383,-3.55,-3.55,-3.55,-3.55,-3.55,-3.55,-3.55,-3.55,-3.55,-3.55,-2.794,0.0,0.0,0.0,0.0,0.0,0.0,0.0,0.0,0.0,0.0,0.0,0.0,0.0,0.0,0.0,0.0,0.0,0.0,0.0,0.0,0.0,0.0,0.0,0.0,0.0,0.0,0.0,0.0,0.0,-2.8743,-2.9692,-3.0873,-3.2336,-3.2585,-3.3406,-3.4866,-3.5095,-3.5209,-3.5209,-3.5209,-3.5209,-3.5209,-3.5209,-3.5209,-3.5209,-3.5209,-3.516,-3.5129,-3.5001,-3.4831,-3.4634,-3.4351,-3.4136,-3.3947,-3.3847,-3.3807,-3.3807,-3.3807,-3.3807,-3.3807,-3.3807,-3.3807,-3.3807,-3.3807,-3.3807,-3.3807,-3.3807,-3.3807,-3.3807,-3.3807,-3.3807,-3.3807,-3.3807,-3.3807,-3.3807,-3.3807,-3.3807,-3.4064,-3.4963,-3.7074,-3.8707,-3.8707,-3.8707,-3.7588,-3.4284,-3.3807,-3.3807,-3.3807,-3.3807,-3.3807,-3.3807,-3.3972,-3.4173,-3.4351,-3.4649,-3.4936,-3.5174,-3.5209,-3.5209,-3.5209,-3.5339,-3.5417,-3.5417,-3.5417,-3.5417,-3.5417,-3.546,-3.55,-3.55,-3.55,-3.55,0.0,0.0,0.0,-2.3389,0.0,0.0,0.0,0.0,-1.7691,0.0,0.0,0.0,0.0,0.0,0.0,-1.7728,0.0,0.0,0.0,0.0,0.0,0.0,0.0,0.0,0.0,0.0,0.0,0.0,0.0,0.0,-2.8705,-2.9692,-3.0605,-3.1503,-3.2298,-3.3119,-3.4033,-3.4808,-3.5209,-3.5209,-3.5209,-3.5209,-3.5209,-3.5209,-3.5209,-3.5209,-3.5209,-3.5204,-3.5191,-3.5129,-3.4974,-3.4768,-3.4495,-3.4269,-3.4074,-3.3868,-3.3807,-3.3807,-3.3807,-3.3807,-3.3807,-3.3807,-3.3807,-3.3807,-3.3807,-3.3807,-3.3807,-3.3807,-3.3807,-3.3807,-3.3807,-3.3807,-3.3807,-3.3807,-3.3807,-3.3807,-3.3807,-3.3807,-3.4743,-3.7936,-3.8634,-3.8707,-3.8707,-3.8707,-3.7588,-3.4284,-3.3807,-3.3807,-3.3807,-3.3807,-3.3807,-3.3807,-3.382,-3.382,-3.3815,-3.4305,-3.4781,-3.5166,-3.5209,-3.5209,-3.5209,-3.5209,-3.5218,-3.5218,-3.5218,-3.5218,-3.5218,-3.541,-3.55,-3.55,-3.55,-3.55,0.0,0.0,-2.7721,-2.4879,0.0,0.0,0.0,0.0,0.0,0.0,0.0,0.0,0.0,0.0,-2.1282,-2.0121,-1.9249,0.0,0.0,0.0,0.0,0.0,0.0,0.0,0.0,0.0,0.0,0.0,0.0,0.0,0.0,-2.8845,-3.0006,-3.1446,-3.2279,-3.3119,-3.3995,-3.4808,-3.5209,-3.5209,-3.5209,-3.5209,-3.5209,-3.5209,-3.5209,-3.5209,-3.5209,-3.5201,-3.5204,-3.5187,-3.5056,-3.484,-3.4577,-3.4337,-3.4136,-3.3881,-3.3807,-3.3807,-3.3807,-3.3807,-3.3807,-3.3807,-3.3807,-3.3807,-3.3807,-3.3807,-3.3807,-3.3807,-3.3807,-3.3807,-3.3807,-3.3807,-3.3807,-3.3807,-3.3807,-3.3807,-3.3807,-3.5514,-3.7367,-3.8487,-3.8707,-3.8707,-3.8707,-3.8707,-3.8322,-3.7221,-3.5183,-3.3807,-3.3807,-3.3807,-3.3807,-3.3807,-3.3807,-3.3807,-3.3807,-3.4293,-3.472,-3.4973,-3.5124,-3.5209,-3.5209,-3.5209,-3.5209,-3.5209,-3.5209,-3.5209,-3.5209,-3.541,-3.5432,-3.5289,-3.5289,-3.5369,-2.998,-2.9399,0.0,0.0,-2.4834,0.0,-2.1003,0.0,0.0,0.0,0.0,0.0,0.0,0.0,0.0,-2.1907,-2.0765,0.0,0.0,0.0,0.0,0.0,0.0,0.0,0.0,0.0,-2.3885,-2.331,0.0,0.0,0.0,0.0,-2.9379,-3.0493,-3.1917,-3.2935,-3.3494,-3.4631,-3.5193,-3.5209,-3.5193,-3.5193,-3.5209,-3.5193,-3.5193,-3.5209,-3.5209,-3.5209,-3.5209,-3.5209,-3.5089,-3.4917,-3.4663,-3.445,-3.4233,-3.3908,-3.3807,-3.3807,-3.3807,-3.3807,-3.3807,-3.3807,-3.3807,-3.3807,-3.3807,-3.3807,-3.3807,-3.3807,-3.3807,-3.3807,-3.3807,-3.3807,-3.3807,-3.3807,-3.3807,-3.3807,-3.3807,-3.6376,-3.8707,-3.8707,-3.8707,-3.8707,-3.8707,-3.8707,-3.8707,-3.8707,-3.6909,-3.5128,-3.3954,-3.3807,-3.3807,-3.3807,-3.3807,-3.4266,-3.544,-3.5858,-3.6189,-3.6545,-3.5711,-3.5209,-3.5209,-3.5209,-3.5783,-3.6978,-3.5821,-3.5209,-3.5209,-3.5331,-3.5331,-3.5209,-3.5209,-3.5281]},{"header":{"parameterUnit":"m.s-1","parameterCategory":1,"la1":30.6,"la2":29.2853,"lo1":-89.7004,"lo2":-87.6739,"dy":0.0162,"dx":0.0183,"nx":112,"ny":82,"refTime":"2026-05-24T12:00:00:Z","depth":0,"parameterNumber":3,"parameterNumberName":"V-component_of_WINDS"},"data":[0.0,0.0,0.0,0.0,0.0,0.0,0.0,0.0,0.0,0.0,0.0,0.0,0.0,0.0,0.0,0.0,0.0,0.0,0.0,0.0,0.0,0.0,0.0,0.0,0.0,0.0,0.0,0.0,0.0,0.0,0.0,0.0,0.0,0.0,0.0,0.0,0.0,0.0,0.0,0.0,0.0,0.0,0.0,0.0,0.0,0.0,0.0,0.0,0.0,0.0,0.0,0.0,0.0,0.0,0.0,0.0,0.0,0.0,0.0,0.0,0.0,0.0,0.0,0.0,0.0,0.0,0.0,0.0,0.0,0.0,0.0,0.0,0.0,0.0,0.0,0.0,0.0,0.0,0.0,0.0,0.0,0.0,0.0,0.0,0.0,0.0,0.0,0.0,0.0,0.0,0.0,-0.5283,-0.61,-0.6435,-0.6086,-0.6025,-0.582,-0.5369,0.0,0.0,0.0,0.0,0.0,0.0,0.0,0.0,0.0,0.0,0.0,0.0,0.0,0.0,0.0,0.0,0.0,0.0,0.0,0.0,0.0,0.0,0.0,0.0,0.0,0.0,0.0,0.0,0.0,0.0,0.0,0.0,0.0,0.0,0.0,0.0,0.0,0.0,0.0,0.0,0.0,0.0,0.0,0.0,0.0,0.0,0.0,0.0,0.0,0.0,0.0,0.0,0.0,0.0,0.0,0.0,0.0,0.0,0.0,0.0,0.0,0.0,0.0,0.0,0.0,0.0,0.0,0.0,0.0,0.0,0.0,0.0,0.0,0.0,0.0,0.0,0.0,0.0,0.0,0.0,0.0,0.0,0.0,0.0,0.0,0.0,0.0,0.0,0.0,0.0,0.0,0.0,0.0,0.0,0.0,0.0,0.0,0.0,0.0,0.0,0.0,0.0,0.0,0.0,-0.4848,-0.5641,-0.6112,-0.6211,-0.5866,-0.5741,-0.5495,-0.5092,0.0,0.0,0.0,0.0,0.0,0.0,0.0,0.0,0.0,0.0,0.0,0.0,0.0,0.0,0.0,0.0,0.0,0.0,0.0,0.0,0.0,0.0,0.0,0.0,0.0,0.0,0.0,0.0,0.0,0.0,0.0,0.0,0.0,0.0,0.0,0.0,0.0,0.0,0.0,0.0,0.0,0.0,0.0,0.0,0.0,0.0,0.0,0.0,0.0,0.0,0.0,0.0,0.0,0.0,0.0,0.0,0.0,0.0,0.0,0.0,0.0,0.0,0.0,0.0,0.0,0.0,0.0,0.0,0.0,0.0,0.0,0.0,0.0,0.0,0.0,0.0,0.0,0.0,0.0,0.0,0.0,0.0,0.0,0.0,0.0,0.0,0.0,0.0,0.0,0.0,0.0,0.0,0.0,0.0,0.0,0.0,0.0,0.0,0.0,0.0,0.0,0.0,0.0,-0.456,-0.5078,-0.5627,-0.5881,-0.5891,-0.5624,-0.5426,-0.5113,-0.4662,-0.4571,0.0,0.0,0.0,0.0,0.0,0.0,0.0,0.0,0.0,0.0,0.0,0.0,0.0,0.0,0.0,0.0,0.0,0.0,0.0,0.0,0.0,0.0,0.0,0.0,0.0,0.0,0.0,0.0,0.0,0.0,0.0,0.0,0.0,0.0,0.0,0.0,0.0,0.0,0.0,0.0,0.0,0.0,0.0,0.0,0.0,0.0,0.0,0.0,0.0,0.0,0.0,0.0,0.0,0.0,0.0,0.0,0.0,0.0,0.0,0.0,0.0,0.0,0.0,0.0,0.0,0.0,0.0,0.0,0.0,0.0,0.0,0.0,0.0,0.0,0.0,0.0,0.0,0.0,0.0,0.0,0.0,0.0,0.0,0.0,0.0,0.0,0.0,0.0,0.0,0.0,0.0,0.0,0.0,0.0,0.0,0.0,0.0,0.0,0.0,0.0,0.0,0.0,-0.4884,-0.5291,-0.5562,-0.5718,-0.5667,-0.5368,-0.5169,-0.4821,-0.4281,-0.3986,0.0,0.0,0.0,0.0,0.0,0.0,0.0,0.0,0.0,0.0,0.0,0.0,0.0,0.0,0.0,0.0,0.0,0.0,0.0,0.0,0.0,0.0,0.0,0.0,0.0,0.0,0.0,0.0,0.0,0.0,0.0,0.0,0.0,0.0,0.0,0.0,0.0,0.0,0.0,0.0,0.0,0.0,0.0,0.0,0.0,0.0,0.0,0.0,0.0,0.0,0.0,0.0,0.0,0.0,0.0,0.0,0.0,0.0,0.0,0.0,0.0,0.0,0.0,0.0,0.0,0.0,0.0,0.0,0.0,0.0,0.0,0.0,0.0,0.0,0.0,0.0,0.0,0.0,0.0,0.0,0.0,0.0,0.0,0.0,0.0,0.0,0.0,0.0,0.0,0.0,0.0,0.0,0.0,0.0,0.0,0.0,0.0,0.0,0.0,0.0,0.0,0.0,-0.501,-0.5443,-0.5572,-0.5718,-0.5623,-0.515,-0.4985,-0.4698,-0.4149,-0.3643,0.0,0.0,0.0,0.0,0.0,0.0,0.0,0.0,0.0,0.0,0.0,0.0,0.0,0.0,0.0,0.0,0.0,0.0,0.0,0.0,0.0,0.0,0.0,0.0,0.0,0.0,0.0,0.0,0.0,0.0,0.0,0.0,0.0,0.0,0.0,0.0,0.0,0.0,0.0,0.0,0.0,0.0,0.0,0.0,0.0,0.0,0.0,0.0,0.0,0.0,0.0,0.0,0.0,0.0,0.0,0.0,0.0,0.0,0.0,0.0,0.0,0.0,0.0,0.0,0.0,0.0,0.0,0.0,0.0,0.0,0.0,0.0,0.0,0.0,0.0,0.0,0.0,0.0,0.0,0.0,0.0,0.0,0.0,0.0,0.0,0.0,0.0,0.0,0.0,0.0,0.0,0.0,0.0,0.0,0.0,0.0,0.0,0.0,0.0,0.0,0.0,0.0,-0.4588,-0.5011,0.0,-0.5406,-0.5345,-0.4894,-0.4611,-0.4245,-0.3763,0.0,0.0,0.0,0.0,0.0,0.0,0.0,0.0,0.0,0.0,0.0,0.0,0.0,0.0,0.0,0.0,0.0,0.0,0.0,0.0,0.0,0.0,0.0,0.0,0.0,0.0,0.0,0.0,0.0,0.0,0.0,0.0,0.0,0.0,0.0,0.0,0.0,0.0,0.0,0.0,0.0,0.0,0.0,0.0,0.0,0.0,0.0,0.0,0.0,0.0,0.0,0.0,0.0,0.0,0.0,0.0,0.0,0.0,0.0,0.0,0.0,0.0,0.0,0.0,0.0,0.0,0.0,0.0,0.0,0.0,0.0,0.0,0.0,0.0,0.0,0.0,0.0,0.0,0.0,0.0,0.0,0.0,0.0,0.0,0.0,0.0,0.0,0.0,0.0,0.0,0.0,0.0,0.0,0.0,0.0,0.0,0.0,0.0,0.0,0.0,0.0,0.0,-0.3479,-0.405,-0.4503,0.0,-0.5063,-0.5088,-0.4682,-0.4318,-0.3965,-0.3535,0.0,0.0,0.0,0.0,0.0,0.0,0.0,0.0,0.0,0.0,0.0,0.0,0.0,0.0,0.0,0.0,0.0,0.0,0.0,0.0,0.0,0.0,0.0,0.0,0.0,0.0,0.0,0.0,0.0,0.0,0.0,0.0,0.0,0.0,0.0,0.0,0.0,0.0,0.0,0.0,0.0,0.0,0.0,0.0,0.0,0.0,0.0,0.0,0.0,0.0,0.0,0.0,0.0,0.0,0.0,0.0,0.0,0.0,0.0,0.0,0.0,0.0,0.0,0.0,0.0,0.0,0.0,0.0,0.0,0.0,0.0,0.0,0.0,0.0,0.0,0.0,0.0,0.0,0.0,0.0,0.0,0.0,0.0,0.0,0.0,0.0,0.0,0.0,0.0,0.0,0.0,0.0,0.0,0.0,0.0,0.0,0.0,0.0,0.0,0.0,0.0,0.0,-0.2906,-0.3473,-0.3977,-0.4433,-0.4732,-0.4796,-0.4515,-0.4189,-0.3853,0.0,0.0,0.0,0.0,0.0,0.0,0.0,0.0,0.0,0.0,0.0,0.0,0.0,0.0,0.0,0.0,0.0,0.0,0.0,0.0,0.0,0.0,0.0,0.0,0.0,0.0,0.0,0.0,0.0,0.0,0.0,0.0,0.0,0.0,0.0,0.0,0.0,0.0,0.0,0.0,0.0,0.0,0.0,0.0,0.0,0.0,0.0,0.0,0.0,0.0,0.0,0.0,0.0,0.0,0.0,0.0,0.0,0.0,0.0,0.0,0.0,0.0,0.0,0.0,0.0,0.0,0.0,0.0,0.0,0.0,0.0,0.0,0.0,0.0,0.0,0.0,0.0,0.0,0.0,0.0,0.0,0.0,0.0,0.0,0.0,0.0,0.0,0.0,0.0,0.0,0.0,0.0,0.0,0.0,0.0,0.0,0.0,0.0,0.0,0.0,0.0,0.0,0.0,-0.2377,-0.3074,-0.3597,-0.3838,-0.4309,-0.4451,-0.4042,-0.3923,-0.3641,-0.3112,0.0,0.0,0.0,0.0,0.0,0.0,0.0,0.0,0.0,0.0,0.0,0.0,0.0,0.0,0.0,0.0,0.0,0.0,0.0,0.0,0.0,0.0,0.0,0.0,0.0,0.0,0.0,0.0,0.0,0.0,0.0,0.0,0.0,0.0,0.0,0.0,0.0,0.0,0.0,0.0,0.0,0.0,0.0,0.0,0.0,0.0,0.0,0.0,0.0,0.0,0.0,0.0,0.0,0.0,0.0,0.0,0.0,0.0,0.0,0.0,0.0,0.0,0.0,0.0,0.0,0.0,0.0,0.0,0.0,0.0,0.0,0.0,0.0,0.0,0.0,0.0,0.0,0.0,0.0,0.0,0.0,0.0,0.0,0.0,0.0,0.0,0.0,0.0,0.0,0.0,0.0,0.0,0.0,0.0,0.0,0.0,0.0,0.0,0.0,0.0,0.0,0.0,-0.1758,-0.2329,-0.2812,-0.3022,-0.3484,-0.3709,-0.3496,-0.3513,-0.3363,-0.2967,0.0,0.0,0.0,0.0,0.0,0.0,0.0,0.0,0.0,0.0,0.0,0.0,0.0,0.0,0.0,0.0,0.0,0.0,0.0,0.0,0.0,0.0,0.0,0.0,0.0,0.0,0.0,0.0,0.0,0.0,0.0,0.0,0.0,0.0,0.0,0.0,0.0,0.0,0.0,0.0,0.0,0.0,0.0,0.0,0.0,0.0,0.0,0.0,0.0,0.0,0.0,0.0,0.0,0.0,0.0,0.0,0.0,0.0,0.0,0.0,0.0,0.0,0.0,0.0,0.0,0.0,0.0,0.0,0.0,0.0,0.0,0.0,0.0,0.0,0.0,0.0,0.0,0.0,0.0,0.0,0.0,0.0,0.0,0.0,0.0,0.0,0.0,0.0,0.0,0.0,0.0,0.0,0.0,0.0,0.0,0.0,0.0,0.0,0.0,0.0,0.0,0.0,-0.1118,-0.1462,-0.18,-0.2129,-0.2445,-0.2739,-0.2899,-0.3008,-0.3021,-0.2933,0.0,0.0,0.0,0.0,0.0,0.0,0.0,0.0,0.0,0.0,0.0,0.0,0.0,0.0,0.0,0.0,0.0,0.0,0.0,0.0,0.0,0.0,0.0,0.0,0.0,0.0,0.0,0.0,0.0,0.0,0.0,0.0,0.0,0.0,0.0,0.0,0.0,0.0,0.0,0.0,0.0,0.0,0.0,0.0,0.0,0.0,0.0,0.0,0.0,0.0,0.0,0.0,0.0,0.0,0.0,0.0,0.0,0.0,0.0,0.0,0.2594,0.0,0.0,0.0,0.0,0.0,0.0,0.0,0.0,0.0,0.0,0.0,0.0,0.0,0.0,0.0,0.0,0.0,0.0,0.0,0.0,0.0,0.0,0.0,0.0,0.0,0.0,0.0,0.0,0.0,0.0,0.0,0.0,0.0,0.0,0.0,0.0,0.0,0.0,0.0,0.0,0.0,-0.0928,-0.1296,-0.1612,-0.1786,-0.2116,-0.2304,-0.2301,-0.2586,-0.2698,-0.2459,0.0,0.0,0.0,0.0,0.0,0.0,0.0,0.0,0.0,0.0,0.0,0.0,0.0,0.0,0.0,0.0,0.0,0.0,0.0,0.0,0.0,0.0,0.0,0.0,0.0,0.0,0.0,0.0,0.0,0.0,0.0,0.0,0.0,0.0,0.0,0.0,0.0,0.0,0.0,0.0,0.0,0.0,0.0,0.0,0.0,0.0,0.0,0.0,0.0,0.0,0.0,0.0,0.0,0.0,0.0,0.0,0.0,0.0,0.0,0.0,0.0,0.2955,0.0,0.0,0.0,0.0,0.0,0.0,0.0,0.0,0.0,0.0,0.0,0.0,0.0,0.0,0.0,0.0,0.0,0.0,0.0,0.0,0.0,0.0,0.0,0.0,0.0,0.0,0.0,0.0,0.0,0.0,0.0,0.0,0.0,0.0,0.0,0.0,0.0,0.0,0.0,0.0,-0.0768,-0.0957,-0.1108,-0.1264,-0.1458,-0.1575,-0.1627,-0.1927,-0.2073,-0.1976,-0.21,0.0,0.0,0.0,0.0,0.0,0.0,0.0,0.0,0.0,0.0,0.0,0.0,0.0,0.0,0.0,0.0,0.0,0.0,0.0,0.0,0.0,0.0,0.0,0.0,0.0,0.0,0.0,0.0,0.0,0.0,0.0,0.0,0.0,0.0,0.0,0.0,0.0,0.0,0.0,0.0,0.0,0.0,0.0,0.0,0.0,0.0,0.0,0.0,0.0,0.0,0.0,0.0,0.0,0.503,0.4842,0.4815,0.4672,0.4593,0.4556,0.4117,0.3748,0.3433,0.0,0.0,0.0,0.0,0.0,0.0,0.0,0.0,0.0,0.0,0.0,0.0,0.0,0.0,0.0,0.0,0.0,0.0,0.0,0.0,0.0,0.0,0.0,0.0,0.0,0.0112,0.0,0.0,0.0,0.0,0.0,0.0,0.0,0.0,0.0,0.0,0.0,0.0,0.0,-0.06,-0.0607,-0.0647,-0.0743,-0.0819,-0.0942,-0.1044,-0.132,-0.1483,-0.154,-0.1628,-0.1673,0.0,0.0,0.0,0.0,0.0,0.0,0.0,0.0,0.0,0.0,0.0,0.0,0.0,0.0,0.0,0.0,0.0,0.0,0.0,0.0,0.0,0.0,0.0,0.0,0.0,0.0,0.0,0.0,0.0,0.0,0.0,0.0,0.3567,0.3294,0.0,0.0,0.0,0.0,0.0,0.0,0.0,0.0,0.0,0.0,0.0,0.0,0.0,0.0,0.4368,0.4765,0.5108,0.5392,0.5172,0.4985,0.4901,0.4968,0.4945,0.4863,0.4884,0.0,0.4311,0.4151,0.0,0.0,0.0,0.0,0.0,0.0,0.0,0.0,0.0,0.0,0.0,0.0,0.0,0.0,0.0,0.0,0.0,0.0,0.0,0.0,0.0,0.0,0.0734,0.0444,0.0178,0.0,0.0,0.0,-0.0019,-0.0096,0.0,0.0,0.0,0.0,0.0,0.0,0.0,0.0,-0.0353,-0.0502,-0.0594,-0.055,-0.0711,-0.0834,-0.091,-0.1176,-0.1327,-0.1346,-0.1519,-0.1594,-0.153,-0.1758,0.0,0.0,0.0,0.0,0.0,0.0,0.0,0.0,0.0,0.0,0.0,0.0,0.0,0.0,0.0,0.0,0.0,0.0,0.0,0.0,0.0,0.0,0.0,0.0,0.0,0.0,0.0,0.0,0.0,0.4377,0.4145,0.4102,0.3927,0.3606,0.0,0.0,0.0,0.0,0.0,0.0,0.0,0.0,0.0,0.4328,0.4331,0.4616,0.5209,0.5294,0.5491,0.5733,0.5569,0.5474,0.5416,0.5396,0.5355,0.5294,0.527,0.518,0.4982,0.4721,0.4404,0.4033,0.0,0.0,0.0,0.0,0.0,0.3076,0.3187,0.3168,0.0,0.0,0.0,0.0,0.0,0.0,0.0,0.0,0.0,0.0,0.0,0.0,0.0,0.085,0.0508,0.0234,0.0234,0.017,0.0067,0.0,-0.0123,-0.0175,-0.0268,0.0,0.0,0.0,0.0,0.0,-0.0293,-0.0347,-0.0385,-0.043,-0.0513,-0.0588,-0.0609,-0.0718,-0.0801,-0.0786,-0.0837,-0.0919,-0.1047,-0.123,-0.1609,0.0,0.0,0.0,0.0,0.0,0.0,0.0,0.0,0.0,0.0,0.0,0.0,0.0,0.0,0.0,0.0,0.0,0.0,0.0,0.0,0.0,0.0,0.0,0.0,0.0,0.0,0.0,0.0,0.4837,0.477,0.4922,0.4658,0.4319,0.0,0.0,0.0,0.0,0.0,0.0,0.4532,0.4406,0.4528,0.4942,0.5006,0.5281,0.5796,0.5794,0.5849,0.5999,0.5891,0.584,0.58,0.5732,0.5681,0.5637,0.5559,0.5487,0.5429,0.5098,0.4783,0.448,0.421,0.3993,0.3864,0.3824,0.3842,0.3883,0.4032,0.3949,0.3759,0.3674,0.0,0.3076,0.2876,0.0,0.0,0.0,0.0,0.1776,0.1949,0.1863,0.1696,0.1522,0.1148,0.0793,0.0711,0.0532,0.0304,0.0,-0.0069,-0.0111,-0.016,0.0,0.0,0.0,0.0,-0.0131,-0.0221,-0.0214,-0.0244,-0.0345,-0.0368,-0.039,-0.0405,-0.0401,-0.04,-0.0404,-0.0342,-0.0408,-0.0669,-0.0796,-0.114,-0.1715,0.0,0.0,0.0,0.0,0.0,0.0,0.0,0.0,0.0,0.0,0.0,0.0,0.0,0.0,0.0,0.0,0.0,0.0,0.0,0.0,0.0,0.0,0.0,0.0,0.0,0.0,0.0,0.0,0.0,0.5271,0.5082,0.0,0.0,0.0,0.0,0.4429,0.4453,0.4532,0.467,0.467,0.4815,0.5078,0.5272,0.5521,0.5796,0.5934,0.5989,0.5999,0.6,0.5905,0.5806,0.5909,0.5928,0.5789,0.5783,0.5701,0.5555,0.5214,0.5079,0.5036,0.4779,0.4722,0.4827,0.4688,0.4729,0.4827,0.4833,0.4706,0.4545,0.4545,0.4269,0.3866,0.349,0.31,0.0,0.0,0.2764,0.2878,0.2788,0.2814,0.2848,0.2602,0.2213,0.1843,0.152,0.1142,0.0738,0.0,0.0024,-0.0095,-0.0095,0.0,-0.0248,-0.0117,-0.0095,-0.0072,-0.0025,-0.0122,-0.0191,-0.0214,-0.0334,-0.0409,-0.0403,-0.039,-0.0409,-0.0403,-0.0332,-0.0394,-0.0589,-0.0733,-0.0854,-0.0956,-0.1635,0.0,0.0,0.0,0.0,0.0,0.0,0.0,0.0,0.0,0.0,0.0,0.0,0.0,0.0,0.0,0.0,0.0,0.0,0.0,0.0,0.0,0.0,0.0,0.0,0.0,0.0,0.0,0.0,0.5565,0.5381,0.0,0.5062,0.4762,0.4629,0.4738,0.4762,0.4863,0.5139,0.5156,0.5283,0.5528,0.5606,0.5742,0.5909,0.5986,0.6054,0.6194,0.6207,0.6149,0.6132,0.6051,0.5963,0.5905,0.5844,0.5772,0.5718,0.5606,0.5359,0.509,0.4982,0.4921,0.4894,0.4928,0.4978,0.5039,0.5169,0.5106,0.4881,0.4571,0.4239,0.3901,0.3658,0.3393,0.3164,0.32,0.3211,0.3188,0.3254,0.3232,0.314,0.2921,0.2624,0.2317,0.2008,0.1602,0.1199,0.0845,0.0342,-0.0025,-0.0025,-0.0073,-0.0097,-0.0049,-0.0025,-0.0026,0.0,-0.0051,-0.0075,-0.0069,-0.0112,-0.0153,-0.0151,-0.0149,-0.0148,-0.0151,-0.0126,-0.02,-0.0394,-0.0452,-0.0536,-0.0636,-0.0908,-0.1027,0.0,0.0,0.0,0.0,0.0,0.0,0.0,0.0,0.0,0.0,0.0,0.0,0.0,0.0,0.0,0.0,0.0,0.0,0.0,0.0,0.0,0.0,0.0,0.0,0.0,0.0,0.5811,0.5825,0.5689,0.5511,0.5424,0.5203,0.5078,0.507,0.5123,0.5254,0.5532,0.5542,0.5599,0.5793,0.585,0.5928,0.599,0.6081,0.6159,0.63,0.63,0.63,0.6296,0.6156,0.6108,0.6101,0.6,0.5925,0.5878,0.5878,0.5671,0.5322,0.5322,0.5268,0.5223,0.5267,0.5255,0.5261,0.5309,0.5225,0.5028,0.4615,0.4307,0.4119,0.3961,0.3775,0.3651,0.3746,0.3714,0.3651,0.3746,0.3714,0.3617,0.3457,0.3272,0.3043,0.277,0.2345,0.1922,0.1606,0.0777,0.0135,0.0132,0.0105,0.0078,0.0079,0.0027,0.0,0.0,0.0,0.0,0.0,0.0,0.0,0.0,0.0,0.0,0.0,0.0,-0.01,-0.03,-0.0294,-0.0355,-0.0505,-0.054,-0.0573,-0.0578,0.0,0.0,0.0,0.0,0.0,0.0,0.0,0.0,0.0,0.0,0.0,0.0,0.0,0.0,0.0,0.0,0.0,0.0,0.0,0.0,0.0,0.0,0.0,0.5553,0.5962,0.6173,0.6116,0.6005,0.5797,0.5479,0.5422,0.5413,0.5432,0.5545,0.5657,0.58,0.581,0.581,0.5817,0.5959,0.6,0.6,0.619,0.6306,0.6306,0.6306,0.6306,0.6306,0.6303,0.63,0.63,0.63,0.6176,0.6,0.6,0.5949,0.5817,0.5803,0.58,0.5786,0.5647,0.5593,0.5569,0.5205,0.512,0.5054,0.4725,0.4592,0.4558,0.4367,0.43,0.43,0.43,0.43,0.43,0.43,0.43,0.43,0.43,0.4211,0.4025,0.3761,0.3333,0.2901,0.2486,0.1348,0.0449,0.0421,0.0308,0.0224,0.0196,0.0084,0.0,0.0,0.0,0.0,0.0,0.0,0.0,0.0,0.0,0.0,0.0,0.0,-0.0098,-0.0295,-0.03,-0.0356,-0.0506,-0.0636,-0.0695,-0.0695,0.0,0.0,0.0,0.0,0.0,0.0,0.0,0.0,0.0,0.0,0.0,0.0,0.0,0.0,0.0,0.0,0.0,0.0,0.0,0.0,0.0,0.0,0.5871,0.5831,0.6107,0.6379,0.6506,0.6487,0.6444,0.6363,0.6087,0.5923,0.5895,0.5792,0.581,0.5922,0.5929,0.6017,0.617,0.6214,0.6235,0.6235,0.6381,0.6453,0.6453,0.6453,0.6453,0.645,0.6347,0.63,0.63,0.63,0.6276,0.6235,0.6235,0.6211,0.6149,0.5888,0.58,0.5796,0.5755,0.5677,0.5569,0.5379,0.5223,0.5087,0.4987,0.4791,0.4592,0.4528,0.4431,0.43,0.43,0.43,0.43,0.43,0.43,0.43,0.43,0.4276,0.4159,0.391,0.3548,0.3194,0.282,0.2276,0.1671,0.1152,0.0868,0.0617,0.0393,0.014,0.0,0.0,0.0,0.0,0.0,0.0,0.0,0.0,0.0,0.0,0.0,0.0,-0.0081,-0.0295,-0.0291,-0.0395,-0.0571,-0.0609,-0.0657,0.0,0.0,0.0,0.0,0.0,0.0,0.0,0.0,0.0,0.0,0.0,0.0,0.0,0.0,0.0,0.0,0.0,0.0,0.0,0.0,0.0,0.0,0.5853,0.6335,0.6428,0.6558,0.668,0.6816,0.675,0.6674,0.6599,0.6335,0.6153,0.6047,0.6033,0.6034,0.6122,0.6183,0.6257,0.6385,0.6388,0.6419,0.6484,0.6504,0.6545,0.6566,0.6542,0.6511,0.6508,0.6364,0.63,0.0,0.63,0.63,0.63,0.63,0.63,0.0,0.0,0.0,0.0,0.0,0.5766,0.5579,0.5521,0.5379,0.5223,0.512,0.4957,0.4791,0.4658,0.4528,0.4398,0.4334,0.43,0.43,0.43,0.43,0.43,0.43,0.43,0.4248,0.411,0.3901,0.3687,0.3451,0.0,0.0,0.2239,0.1554,0.0982,0.0729,0.0393,0.0168,0.0168,0.011,0.008,0.0074,0.0024,0.0,0.0,0.0,0.0,0.0,0.0,-0.0104,-0.0324,-0.0397,0.0,0.0,0.0,0.0,0.0,0.0,0.0,0.0,-0.1994,-0.2418,0.0,0.0,0.0,0.0,0.0,0.0,0.0,0.0,0.0,0.0,0.0,0.0,0.0,0.0,0.0,0.0,0.625,0.6642,0.7122,0.7102,0.7013,0.7013,0.6837,0.6656,0.6468,0.6379,0.6275,0.6091,0.6221,0.6306,0.6323,0.0,0.0,0.0,0.0,0.6563,0.6698,0.6583,0.6593,0.6725,0.6569,0.6538,0.6532,0.6371,0.63,0.63,0.63,0.63,0.63,0.63,0.63,0.63,0.63,0.63,0.6279,0.6088,0.5864,0.0,0.0,0.0,0.0,0.5196,0.512,0.5054,0.4725,0.4625,0.4558,0.4367,0.43,0.43,0.43,0.43,0.43,0.43,0.43,0.43,0.43,0.43,0.4265,0.4143,0.3989,0.3774,0.3397,0.2291,0.1402,0.1234,0.0841,0.0533,0.0505,0.0363,0.0272,0.0229,0.0,0.0,0.0,0.0,0.0,0.0,-0.0022,-0.0149,-0.0382,-0.0531,-0.0629,-0.0694,-0.0749,-0.0792,-0.0792,-0.0911,-0.1033,-0.1157,-0.1659,-0.2077,0.0,0.0,0.0,0.0,0.0,0.0,0.0,0.0,0.0,0.0,0.0,0.0,0.0,0.0,0.0,0.6015,0.6605,0.707,0.7175,0.7167,0.7159,0.7159,0.7003,0.6847,0.6809,0.6649,0.6513,0.6479,0.6356,0.6351,0.6463,0.6497,0.0,0.6654,0.6658,0.6671,0.6702,0.6793,0.6854,0.6839,0.0,0.0,0.6647,0.6422,0.63,0.63,0.63,0.63,0.63,0.63,0.63,0.63,0.63,0.63,0.6279,0.6088,0.5956,0.5911,0.5674,0.5569,0.5525,0.5399,0.5223,0.5054,0.4827,0.4694,0.0,0.4367,0.43,0.43,0.43,0.43,0.43,0.43,0.43,0.43,0.43,0.43,0.4265,0.4143,0.3989,0.3807,0.3517,0.2886,0.232,0.2043,0.1736,0.1427,0.1174,0.0902,0.0661,0.038,0.0147,0.0,0.0,0.0,0.0,0.0,-0.0201,-0.0355,-0.04,-0.0573,-0.0693,-0.0695,-0.071,-0.0728,-0.0728,-0.0748,-0.0763,-0.081,-0.151,-0.2108,0.0,0.0,0.0,0.0,0.0,0.0,0.0,0.0,0.0,0.0,0.0,0.5446,0.5739,0.0,0.6241,0.6505,0.6851,0.7123,0.7175,0.711,0.7083,0.7173,0.7022,0.6865,0.6753,0.6676,0.6563,0.6451,0.6377,0.6361,0.6504,0.6546,0.6658,0.681,0.6814,0.6848,0.6919,0.6883,0.692,0.6991,0.6885,0.6814,0.6807,0.6583,0.6477,0.6405,0.6405,0.6364,0.63,0.63,0.63,0.63,0.63,0.63,0.6289,0.6173,0.6095,0.5973,0.5861,0.5711,0.5579,0.5535,0.539,0.5193,0.4897,0.4761,0.4628,0.4367,0.43,0.43,0.43,0.43,0.43,0.43,0.43,0.43,0.43,0.43,0.4281,0.4221,0.4029,0.3856,0.3707,0.3381,0.2993,0.2521,0.2184,0.1902,0.1679,0.1325,0.1018,0.0786,0.0372,0.0096,0.009,0.0045,0.0,0.0,-0.018,-0.0337,-0.0405,-0.0539,-0.0623,-0.0697,-0.0697,-0.0697,-0.0697,-0.0697,-0.0704,-0.0718,-0.1309,-0.1889,0.0,0.0,0.0,0.0,0.0,0.0,0.0,0.0,0.5368,0.6011,0.6002,0.5977,0.6358,0.6505,0.6668,0.6996,0.7069,0.7143,0.7253,0.7054,0.697,0.7114,0.6965,0.6788,0.6598,0.6563,0.649,0.63,0.6323,0.6405,0.6549,0.6661,0.6814,0.6923,0.6927,0.698,0.7095,0.6984,0.6984,0.7095,0.6953,0.6886,0.6879,0.677,0.6634,0.6555,0.6525,0.6429,0.63,0.63,0.63,0.63,0.63,0.63,0.63,0.63,0.6183,0.6071,0.6003,0.5874,0.5671,0.564,0.5583,0.541,0.5011,0.4867,0.4794,0.4439,0.4334,0.43,0.43,0.43,0.43,0.43,0.43,0.43,0.43,0.43,0.43,0.43,0.407,0.3903,0.3903,0.374,0.3444,0.2942,0.2633,0.2406,0.2238,0.1849,0.1478,0.1257,0.0688,0.0297,0.016,0.0068,0.0,0.0,-0.0135,-0.0247,-0.036,-0.045,-0.0562,-0.0652,-0.0697,-0.0697,-0.0697,-0.0697,-0.0697,-0.0719,-0.1188,-0.1655,0.6518,0.6285,0.6002,0.5476,0.5656,0.5955,0.0,0.0,0.6036,0.6524,0.6554,0.6554,0.6808,0.6994,0.7114,0.7188,0.7322,0.7469,0.7452,0.7126,0.6923,0.6943,0.6741,0.6637,0.6602,0.6451,0.6338,0.63,0.6416,0.6555,0.6668,0.682,0.6927,0.7068,0.7071,0.7082,0.7095,0.7082,0.7082,0.7095,0.6953,0.6886,0.6879,0.677,0.6692,0.6668,0.6573,0.6429,0.63,0.63,0.63,0.63,0.63,0.63,0.63,0.63,0.6289,0.6252,0.6078,0.5973,0.5922,0.5823,0.5766,0.5693,0.5354,0.5177,0.5011,0.4657,0.4431,0.43,0.43,0.43,0.43,0.43,0.43,0.43,0.43,0.43,0.43,0.43,0.407,0.3903,0.3903,0.374,0.3583,0.3499,0.3471,0.333,0.3019,0.271,0.234,0.1776,0.119,0.0618,0.0072,0.0,0.0,0.0,-0.0135,-0.0202,-0.0225,-0.0405,-0.0517,-0.0517,-0.0629,-0.0697,-0.0697,-0.0697,-0.0697,-0.0719,-0.1188,-0.1655,0.6494,0.6431,0.6423,0.6341,0.6475,0.6628,0.6658,0.6571,0.6576,0.6908,0.6971,0.701,0.7211,0.7216,0.7219,0.0,0.7354,0.7334,0.7334,0.7102,0.6953,0.6953,0.6764,0.6548,0.6448,0.6357,0.63,0.63,0.6354,0.6494,0.6688,0.6763,0.6902,0.7088,0.7095,0.7095,0.7095,0.7095,0.7095,0.7095,0.7038,0.7007,0.7007,0.6943,0.6861,0.6692,0.6539,0.6429,0.63,0.63,0.63,0.63,0.63,0.63,0.63,0.63,0.63,0.6289,0.6186,0.6105,0.5983,0.5919,0.5874,0.5754,0.5483,0.5335,0.5186,0.4956,0.4754,0.4597,0.4597,0.4597,0.4564,0.4495,0.4461,0.4431,0.4334,0.43,0.43,0.43,0.407,0.3903,0.3903,0.374,0.3613,0.3613,0.3613,0.3527,0.3302,0.3019,0.2483,0.1602,0.1202,0.0765,0.0173,0.0119,0.0093,0.0,-0.0046,-0.0112,-0.0202,-0.027,-0.0382,-0.0494,-0.0562,-0.0629,-0.0697,-0.0697,-0.0729,-0.0769,-0.1163,-0.1643,0.6334,0.6504,0.6786,0.6913,0.6982,0.7056,0.7155,0.7053,0.6993,0.7232,0.7296,0.7306,0.7416,0.7313,0.7241,0.7382,0.7305,0.7207,0.7289,0.7143,0.7065,0.7065,0.6845,0.6638,0.6496,0.6352,0.6329,0.637,0.6376,0.6453,0.6627,0.6719,0.6861,0.7031,0.7075,0.7095,0.7095,0.7095,0.7095,0.7095,0.7095,0.7095,0.7095,0.7095,0.6937,0.6695,0.6583,0.647,0.63,0.63,0.63,0.63,0.63,0.63,0.63,0.63,0.63,0.63,0.63,0.6186,0.6095,0.6095,0.6017,0.5885,0.5699,0.5516,0.5319,0.5209,0.4999,0.4797,0.4797,0.4797,0.4764,0.4694,0.4625,0.4558,0.4431,0.4334,0.43,0.43,0.407,0.3903,0.3903,0.374,0.3613,0.3613,0.3613,0.3555,0.3471,0.316,0.2631,0.1786,0.1438,0.1049,0.0435,0.0297,0.0193,0.0,0.0,-0.0046,-0.0137,-0.0183,-0.0276,-0.0418,-0.0488,-0.058,-0.0674,-0.072,-0.0755,-0.0801,-0.1114,-0.1546,0.6021,0.6497,0.7128,0.6869,0.6958,0.716,0.734,0.73,0.7237,0.7441,0.7493,0.7446,0.7232,0.7215,0.7193,0.72,0.7191,0.7285,0.7452,0.7326,0.7179,0.7179,0.7023,0.6875,0.0,0.6511,0.6392,0.6588,0.6544,0.6511,0.6518,0.6759,0.6883,0.6893,0.7024,0.7095,0.7095,0.7095,0.7095,0.7095,0.7095,0.7095,0.7095,0.7095,0.6937,0.6702,0.6695,0.6529,0.63,0.63,0.63,0.63,0.63,0.63,0.63,0.63,0.63,0.63,0.63,0.6296,0.6293,0.6293,0.6289,0.6255,0.603,0.5772,0.5451,0.5345,0.5067,0.4797,0.4797,0.4797,0.4797,0.4797,0.4694,0.4592,0.4592,0.4431,0.43,0.43,0.407,0.3903,0.3903,0.374,0.3613,0.3613,0.3613,0.3613,0.3585,0.3299,0.2989,0.2676,0.2137,0.1539,0.093,0.0591,0.0273,0.0024,0.0,0.0,0.0,-0.0119,-0.0194,-0.0201,-0.0452,-0.0603,-0.0603,-0.0728,-0.0804,-0.0805,-0.1082,-0.131,0.6756,0.7014,0.729,0.7308,0.7358,0.7399,0.7466,0.7421,0.7408,0.7474,0.7284,0.7162,0.7358,0.7073,0.6932,0.7334,0.7298,0.7285,0.746,0.7334,0.7187,0.7187,0.7078,0.0,0.0,0.0,0.0,0.6598,0.6457,0.6412,0.6508,0.6664,0.6824,0.6883,0.7021,0.7095,0.7095,0.7095,0.7095,0.7095,0.7095,0.7095,0.7095,0.7095,0.6991,0.6848,0.6746,0.6586,0.6433,0.6337,0.63,0.63,0.63,0.63,0.63,0.63,0.63,0.63,0.63,0.63,0.63,0.63,0.63,0.6289,0.6238,0.5969,0.5685,0.5635,0.5415,0.5196,0.5196,0.5196,0.516,0.5024,0.4957,0.4858,0.4658,0.4561,0.4464,0.4334,0.407,0.3903,0.3903,0.374,0.3613,0.3613,0.3613,0.3613,0.3613,0.3413,0.3188,0.2877,0.2493,0.1955,0.1241,0.0987,0.0644,0.0174,0.0124,0.0098,0.0,-0.0049,-0.01,-0.0201,-0.0277,-0.0428,-0.0605,-0.0655,-0.0741,-0.0863,-0.1046,-0.1297,0.7131,0.7358,0.7502,0.7588,0.7533,0.7489,0.7489,0.7437,0.7384,0.7384,0.7068,0.6829,0.7066,0.6759,0.6662,0.7122,0.7159,0.7212,0.7447,0.7387,0.7317,0.7317,0.7212,0.7224,0.0,0.0,0.0,0.6714,0.6451,0.634,0.6429,0.6536,0.6664,0.6763,0.6905,0.6967,0.7021,0.7021,0.7048,0.7095,0.7095,0.7095,0.7095,0.7095,0.7018,0.6879,0.6824,0.6664,0.6504,0.6412,0.6344,0.63,0.63,0.63,0.63,0.63,0.63,0.63,0.63,0.63,0.63,0.63,0.63,0.63,0.63,0.6084,0.5871,0.5817,0.563,0.5463,0.5409,0.5395,0.5362,0.5223,0.5156,0.5054,0.4821,0.4691,0.4558,0.4431,0.4169,0.3957,0.3911,0.374,0.3613,0.3613,0.3613,0.3613,0.3613,0.3527,0.3385,0.316,0.2882,0.2464,0.1847,0.1538,0.1095,0.049,0.0334,0.0178,0.0,0.0,-0.0052,-0.0131,-0.0183,-0.0288,-0.0446,-0.0577,-0.069,-0.0841,-0.0977,-0.1153,0.7144,0.7449,0.7747,0.7642,0.7533,0.7474,0.7474,0.7318,0.7171,0.7161,0.6799,0.6467,0.6412,0.0,0.6365,0.6671,0.6873,0.7114,0.7469,0.7484,0.7488,0.0,0.0,0.0,0.0,0.0,0.0,0.6926,0.0,0.6306,0.63,0.645,0.6532,0.6525,0.6637,0.6793,0.6896,0.6896,0.6964,0.7095,0.7095,0.7095,0.7095,0.7095,0.7021,0.6896,0.6889,0.6759,0.6521,0.6515,0.6429,0.63,0.63,0.63,0.63,0.63,0.63,0.63,0.63,0.63,0.63,0.63,0.63,0.63,0.63,0.6152,0.5963,0.5854,0.5705,0.5555,0.5443,0.5399,0.5395,0.5395,0.5259,0.512,0.5087,0.4858,0.4625,0.4592,0.4327,0.4046,0.3916,0.374,0.3619,0.3613,0.3613,0.3613,0.3613,0.3613,0.3613,0.3613,0.3302,0.3019,0.2736,0.2151,0.1573,0.0961,0.0587,0.0293,0.0,0.0,0.0,0.0,-0.0112,-0.0196,-0.0196,-0.0533,-0.0701,-0.0701,-0.0842,-0.0898,0.7349,0.7521,0.7662,0.7673,0.7469,0.7266,0.7266,0.7078,0.6854,0.6724,0.6398,0.617,0.6294,0.6097,0.0,0.6747,0.6939,0.0,0.7469,0.7484,0.0,0.771,0.0,0.778,0.7866,0.7361,0.0,0.0,0.6762,0.6412,0.6306,0.661,0.6759,0.6647,0.6895,0.7004,0.7041,0.7041,0.7061,0.7095,0.7095,0.7095,0.7095,0.7095,0.7078,0.7038,0.693,0.682,0.6634,0.6559,0.6429,0.63,0.63,0.63,0.63,0.63,0.63,0.63,0.63,0.63,0.63,0.63,0.63,0.63,0.63,0.6152,0.5983,0.5946,0.5786,0.5583,0.5542,0.5481,0.5395,0.5395,0.5359,0.5292,0.5123,0.502,0.4891,0.4658,0.4327,0.405,0.3865,0.378,0.3709,0.3624,0.3613,0.3613,0.3613,0.3613,0.3613,0.3613,0.3441,0.3188,0.2877,0.2376,0.1795,0.1094,0.0791,0.0438,0.0027,0.0,0.0,0.0,-0.0028,-0.0112,-0.0196,-0.0393,-0.0561,-0.0701,-0.0842,-0.0898,0.7615,0.7664,0.7619,0.758,0.737,0.7142,0.6957,0.6694,0.6468,0.6163,0.581,0.559,0.5667,0.5588,0.0,0.0,0.0,0.0,0.7322,0.7435,0.7559,0.0,0.7751,0.0,0.7894,0.7477,0.7274,0.0,0.6925,0.6631,0.6654,0.6857,0.6954,0.6867,0.6904,0.6937,0.7004,0.7065,0.7095,0.7095,0.7095,0.7095,0.7095,0.7095,0.7095,0.7092,0.0,0.6898,0.6695,0.6607,0.6487,0.63,0.63,0.63,0.63,0.63,0.63,0.63,0.63,0.63,0.63,0.63,0.63,0.63,0.63,0.6238,0.6115,0.6013,0.5911,0.5752,0.5623,0.5562,0.5477,0.5412,0.5395,0.5362,0.5259,0.5156,0.4987,0.4658,0.4395,0.4172,0.3967,0.3854,0.3761,0.3695,0.3643,0.3613,0.3613,0.3613,0.3613,0.3613,0.3527,0.3413,0.3216,0.2715,0.214,0.1445,0.1026,0.0556,0.0027,0.0,0.0,0.0,0.0,-0.0028,-0.0112,-0.0308,-0.0449,-0.0561,-0.0785,-0.0898,0.785,0.7756,0.7608,0.7421,0.726,0.7038,0.6558,0.6285,0.6003,0.5613,0.5216,0.4912,0.4856,0.4955,0.5217,0.576,0.0,0.6757,0.7139,0.7338,0.7464,0.7516,0.7722,0.7841,0.7869,0.7644,0.7469,0.7498,0.7134,0.695,0.7081,0.7105,0.711,0.7087,0.6881,0.682,0.6913,0.7034,0.7095,0.7095,0.7095,0.7095,0.7095,0.7095,0.7095,0.7095,0.0,0.0,0.6702,0.6702,0.6525,0.63,0.63,0.63,0.63,0.63,0.63,0.63,0.63,0.63,0.63,0.63,0.63,0.63,0.63,0.63,0.6272,0.6098,0.601,0.5929,0.5691,0.5603,0.5552,0.5433,0.5395,0.5395,0.5395,0.5256,0.5024,0.4725,0.454,0.4365,0.4185,0.3972,0.3821,0.3815,0.3698,0.363,0.3613,0.3613,0.3613,0.3613,0.3613,0.3613,0.3613,0.3054,0.2437,0.1846,0.1232,0.0617,0.0028,0.0,0.0,0.0,0.0,0.0,0.0,-0.0252,-0.0393,-0.0421,-0.0729,-0.087,0.7737,0.7592,0.7474,0.7269,0.7062,0.6765,0.6351,0.5965,0.0,0.5183,0.4836,0.4573,0.45,0.4647,0.4955,0.5481,0.5979,0.6453,0.6963,0.7155,0.7378,0.0,0.7862,0.0,0.0,0.0,0.0,0.0,0.0,0.7373,0.6962,0.7091,0.715,0.7105,0.7065,0.7034,0.7058,0.7085,0.7095,0.7095,0.7095,0.7095,0.7095,0.7095,0.7095,0.7095,0.0,0.0,0.6702,0.6702,0.6525,0.63,0.63,0.63,0.63,0.63,0.63,0.63,0.63,0.63,0.63,0.63,0.63,0.63,0.63,0.63,0.6293,0.6269,0.6129,0.5952,0.581,0.5677,0.5552,0.5433,0.5395,0.5395,0.5395,0.5256,0.5087,0.5024,0.4773,0.4528,0.4362,0.4181,0.3985,0.3813,0.3796,0.3717,0.3624,0.3613,0.3613,0.3613,0.3613,0.3613,0.3613,0.3054,0.2437,0.1846,0.1232,0.0617,0.0028,0.0,0.0,0.0,0.0,0.0,0.0,-0.0168,-0.028,-0.0393,-0.0617,-0.0785,0.7828,0.7643,0.7441,0.7242,0.7007,0.6655,0.6158,0.0,0.0,0.4793,0.4454,0.4214,0.4157,0.4239,0.0,0.4998,0.5542,0.6053,0.6502,0.6932,0.0,0.746,0.7797,0.0,0.0,0.0,0.0,0.0,0.0,0.0,0.7423,0.7434,0.7297,0.6984,0.7058,0.7095,0.7095,0.7095,0.7095,0.7095,0.7095,0.7095,0.7095,0.7095,0.7095,0.7095,0.7095,0.0,0.6702,0.6702,0.6525,0.63,0.63,0.63,0.63,0.63,0.63,0.63,0.63,0.63,0.63,0.63,0.63,0.63,0.63,0.63,0.63,0.63,0.6245,0.6115,0.5959,0.581,0.5661,0.5549,0.5453,0.5395,0.5395,0.5326,0.5223,0.512,0.4957,0.4773,0.4549,0.4355,0.4175,0.3991,0.3865,0.3764,0.3706,0.3649,0.3613,0.3613,0.3613,0.3613,0.3613,0.3054,0.2437,0.1846,0.1232,0.0617,0.0028,0.0,0.0,0.0,0.0,0.0,0.0,-0.014,-0.0224,-0.0308,-0.0561,-0.0729,0.7972,0.7789,0.7498,0.7251,0.7036,0.6708,0.6062,0.5552,0.0,0.4523,0.4158,0.3922,0.3861,0.3903,0.4095,0.0,0.5076,0.5592,0.6057,0.668,0.7106,0.0,0.7659,0.0,0.0,0.0,0.0,0.0,0.0,0.0,0.7816,0.7639,0.7356,0.6929,0.7021,0.7095,0.7095,0.7095,0.7095,0.7095,0.7095,0.7095,0.7095,0.7095,0.7095,0.7095,0.7065,0.0,0.0,0.6664,0.6495,0.63,0.63,0.63,0.63,0.63,0.63,0.63,0.63,0.63,0.63,0.63,0.63,0.63,0.63,0.63,0.63,0.63,0.6276,0.6183,0.6023,0.5915,0.5766,0.5623,0.5532,0.5436,0.5402,0.5395,0.5359,0.519,0.512,0.5024,0.4758,0.4546,0.4376,0.4188,0.3986,0.3841,0.3818,0.3704,0.3638,0.3616,0.3613,0.3613,0.3613,0.3081,0.2491,0.1874,0.1316,0.0701,0.0056,0.0056,0.0028,0.0,0.0,0.0,0.0,-0.0112,-0.0168,-0.0196,-0.0477,-0.0645,0.8013,0.7906,0.7688,0.7289,0.7175,0.6948,0.6095,0.0,0.4912,0.4495,0.4045,0.3733,0.3716,0.3729,0.3863,0.4266,0.4636,0.5121,0.5815,0.6392,0.6863,0.7151,0.0,0.0,0.0,0.0,0.0,0.0,0.0,0.0,0.0,0.7386,0.7206,0.6926,0.7021,0.7095,0.7095,0.7095,0.7095,0.7095,0.7095,0.7095,0.7095,0.7095,0.7095,0.7088,0.0,0.0,0.0,0.6552,0.6443,0.63,0.63,0.63,0.63,0.63,0.63,0.63,0.63,0.63,0.63,0.63,0.63,0.63,0.63,0.63,0.63,0.63,0.6159,0.601,0.5996,0.5915,0.5766,0.5623,0.5579,0.5566,0.5426,0.5395,0.5395,0.5362,0.5223,0.5087,0.5054,0.4782,0.4539,0.4397,0.4194,0.4004,0.381,0.3804,0.3728,0.3624,0.3613,0.3613,0.3613,0.316,0.2629,0.2015,0.1541,0.0926,0.0224,0.0168,0.0112,0.0,0.0,0.0,0.0,0.0,-0.0084,-0.0196,-0.0224,-0.0421,0.772,0.7687,0.755,0.7261,0.7069,0.676,0.6072,0.5429,0.4888,0.449,0.403,0.3705,0.3705,0.367,0.3748,0.4069,0.4362,0.4751,0.5343,0.5957,0.6423,0.6674,0.0,0.0,0.0,0.0,0.0,0.0,0.0,0.0,0.0,0.7368,0.7143,0.6654,0.6888,0.6927,0.6875,0.6923,0.6923,0.6875,0.6875,0.6875,0.6875,0.6875,0.6875,0.6871,0.0,0.0,0.0,0.6538,0.6429,0.63,0.63,0.63,0.63,0.63,0.63,0.63,0.63,0.63,0.63,0.63,0.63,0.63,0.63,0.63,0.63,0.63,0.6255,0.6169,0.6169,0.6054,0.5881,0.5647,0.5589,0.5549,0.5429,0.5395,0.5395,0.5395,0.5326,0.5256,0.512,0.4987,0.4806,0.4561,0.4393,0.4184,0.3884,0.3827,0.3739,0.3624,0.3613,0.3613,0.3613,0.3244,0.285,0.246,0.1902,0.1316,0.0645,0.0421,0.0224,0.0,0.0,0.0,0.0,0.0,-0.0028,-0.0084,-0.0168,-0.028,0.7375,0.748,0.7441,0.7242,0.7007,0.6627,0.6026,0.5382,0.4812,0.4476,0.403,0.3705,0.3705,0.3651,0.3682,0.3938,0.4171,0.4477,0.4907,0.5539,0.6019,0.0,0.0,0.0,0.0,0.0,0.0,0.0,0.0,0.0,0.0,0.7416,0.7112,0.6515,0.6725,0.681,0.6702,0.6807,0.6807,0.6702,0.6702,0.6702,0.6702,0.6702,0.6702,0.6698,0.0,0.0,0.0,0.6467,0.6388,0.63,0.63,0.63,0.63,0.63,0.63,0.63,0.63,0.63,0.63,0.63,0.63,0.63,0.63,0.63,0.63,0.63,0.63,0.6289,0.6242,0.6146,0.6023,0.5725,0.565,0.5599,0.5436,0.5395,0.5395,0.5395,0.5395,0.5359,0.5223,0.5156,0.5024,0.4791,0.4584,0.4339,0.4016,0.389,0.378,0.3627,0.3613,0.3613,0.3613,0.3357,0.3074,0.2764,0.2293,0.1708,0.1038,0.0757,0.0421,0.0056,0.0056,0.0028,0.0,0.0,0.0,0.0,-0.0084,-0.0168,0.7032,0.7305,0.7441,0.7242,0.7007,0.6627,0.6026,0.5287,0.4652,0.4447,0.403,0.3705,0.3705,0.3651,0.367,0.3862,0.4009,0.424,0.4646,0.5222,0.0,0.0,0.0,0.0,0.0,0.0,0.0,0.0,0.0,0.0,0.0,0.7386,0.7111,0.6511,0.662,0.6702,0.6702,0.6702,0.6702,0.6702,0.6702,0.6702,0.6702,0.6702,0.6702,0.0,0.0,0.0,0.0,0.6361,0.6303,0.63,0.63,0.63,0.63,0.63,0.63,0.63,0.63,0.63,0.63,0.63,0.63,0.63,0.63,0.63,0.63,0.63,0.63,0.6265,0.6071,0.6146,0.6221,0.5871,0.58,0.5718,0.546,0.5395,0.5395,0.5395,0.5395,0.5395,0.5395,0.5223,0.5087,0.5087,0.4821,0.4502,0.4218,0.4028,0.3814,0.361,0.3613,0.3613,0.3613,0.3471,0.3244,0.2905,0.2631,0.213,0.1319,0.1178,0.0813,0.0196,0.0196,0.014,0.0,0.0,0.0,0.0,0.0,-0.0084,0.6568,0.6812,0.693,0.661,0.645,0.62,0.5457,0.4983,0.4584,0.4215,0.3892,0.3705,0.3705,0.3688,0.3687,0.3748,0.3924,0.4117,0.4379,0.0,0.0,0.0,0.0,0.0,0.0,0.0,0.0,0.0,0.0,0.0,0.0,0.7321,0.7102,0.6787,0.6904,0.686,0.6634,0.6739,0.6662,0.6439,0.6439,0.6439,0.6439,0.6439,0.0,0.0,0.0,0.0,0.0,0.632,0.63,0.63,0.63,0.63,0.63,0.63,0.63,0.63,0.63,0.63,0.63,0.63,0.63,0.63,0.63,0.63,0.63,0.63,0.63,0.6289,0.6238,0.6262,0.6221,0.5874,0.58,0.5722,0.546,0.5395,0.5395,0.5395,0.5395,0.5395,0.5395,0.5359,0.5259,0.512,0.502,0.4796,0.4402,0.4284,0.4125,0.3782,0.3728,0.3698,0.3619,0.3555,0.3499,0.3385,0.3077,0.2713,0.2265,0.182,0.1288,0.0701,0.0449,0.0224,0.0,0.0,0.0,0.0,0.0,-0.0058,0.6019,0.6264,0.6407,0.6149,0.6026,0.5791,0.5141,0.4784,0.4475,0.4088,0.3845,0.3705,0.3705,0.3672,0.3664,0.3663,0.3825,0.4027,0.0,0.0,0.0,0.0,0.0,0.0,0.0,0.0,0.0,0.0,0.0,0.0,0.0,0.0,0.7253,0.7134,0.7043,0.6894,0.6602,0.6702,0.6585,0.63,0.63,0.63,0.63,0.63,0.0,0.0,0.0,0.0,0.0,0.6323,0.63,0.63,0.63,0.63,0.63,0.63,0.63,0.63,0.63,0.63,0.63,0.63,0.63,0.63,0.63,0.63,0.63,0.63,0.63,0.63,0.63,0.63,0.6221,0.5874,0.58,0.5722,0.546,0.5395,0.5395,0.5395,0.5395,0.5395,0.5395,0.5395,0.5359,0.5223,0.5156,0.4973,0.4618,0.4475,0.4278,0.3898,0.3841,0.3736,0.3621,0.3613,0.3613,0.3613,0.3357,0.3074,0.2792,0.232,0.1736,0.1066,0.0785,0.0477,0.0084,0.0028,0.0,0.0,0.0,-0.0059,0.0,0.5698,0.5864,0.5864,0.5713,0.5457,0.5059,0.4651,0.0,0.4023,0.3831,0.3705,0.3705,0.3665,0.3625,0.3604,0.3782,0.3967,0.0,0.0,0.0,0.0,0.0,0.0,0.0,0.0,0.0,0.0,0.0,0.0,0.0,0.0,0.7484,0.7484,0.7134,0.683,0.6641,0.6641,0.6528,0.6338,0.6338,0.6338,0.6338,0.6338,0.0,0.0,0.0,0.0,0.0,0.6364,0.631,0.63,0.63,0.63,0.63,0.63,0.63,0.63,0.63,0.63,0.63,0.63,0.63,0.63,0.63,0.63,0.63,0.63,0.63,0.63,0.63,0.6289,0.6207,0.5871,0.5793,0.5708,0.5457,0.5395,0.5395,0.5395,0.5395,0.5395,0.5395,0.5395,0.5395,0.5395,0.5256,0.5075,0.4916,0.4647,0.4327,0.4045,0.3928,0.3793,0.3646,0.3621,0.3613,0.3613,0.3504,0.3284,0.2972,0.2703,0.2201,0.1441,0.1215,0.0819,0.0226,0.0085,0.0,0.0,0.0,0.0,0.4841,0.0,0.5434,0.5434,0.5283,0.5045,0.0,0.4304,0.4036,0.3817,0.3738,0.3705,0.3705,0.381,0.386,0.3708,0.3978,0.4244,0.0,0.0,0.0,0.0,0.0,0.0,0.0,0.0,0.0,0.0,0.0,0.0,0.0,0.0,0.7484,0.7484,0.7407,0.7253,0.7065,0.7065,0.6872,0.6525,0.6525,0.6525,0.6525,0.6525,0.0,0.0,0.0,0.0,0.6358,0.6429,0.6399,0.63,0.63,0.63,0.63,0.63,0.63,0.63,0.63,0.63,0.63,0.63,0.63,0.63,0.63,0.63,0.63,0.63,0.63,0.63,0.63,0.6173,0.6037,0.5847,0.5718,0.5589,0.5436,0.5395,0.5395,0.5395,0.5395,0.5395,0.5395,0.5395,0.5395,0.5395,0.5359,0.5279,0.5078,0.4976,0.4782,0.4367,0.4287,0.4139,0.3863,0.3689,0.3613,0.3613,0.3664,0.3684,0.3595,0.3389,0.3045,0.2621,0.1627,0.0875,0.0423,0.0151,0.0,0.0,0.0,0.0,0.4489,0.4779,0.5049,0.5149,0.5016,0.4779,0.4476,0.4196,0.3944,0.3747,0.3705,0.3733,0.3822,0.39,0.398,0.405,0.4304,0.0,0.0,0.0,0.0,0.0,0.0,0.0,0.0,0.0,0.0,0.0,0.0,0.0,0.0,0.0,0.7484,0.7484,0.7484,0.7407,0.7223,0.7184,0.6988,0.6602,0.6676,0.6676,0.6602,0.6714,0.0,0.0,0.0,0.0,0.6399,0.6409,0.6368,0.63,0.63,0.63,0.63,0.63,0.63,0.63,0.63,0.63,0.63,0.63,0.63,0.63,0.63,0.63,0.63,0.63,0.63,0.6282,0.6173,0.6091,0.5939,0.5755,0.5647,0.5549,0.5429,0.5395,0.5395,0.5395,0.5395,0.5395,0.5395,0.5395,0.5395,0.5395,0.5395,0.5359,0.5259,0.5156,0.4973,0.4647,0.4536,0.4416,0.4189,0.3997,0.3811,0.3695,0.3747,0.3812,0.3812,0.366,0.3385,0.2921,0.1877,0.117,0.0863,0.037,0.0124,0.0126,0.0032,0.0,0.4314,0.4552,0.4757,0.4955,0.4869,0.4704,0.4495,0.4243,0.4005,0.3836,0.3798,0.3859,0.4079,0.4076,0.0,0.0,0.0,0.0,0.0,0.0,0.0,0.0,0.0,0.0,0.0,0.0,0.0,0.0,0.0,0.0,0.0,0.0,0.0,0.7484,0.7484,0.7407,0.7257,0.7257,0.7065,0.6679,0.6868,0.6868,0.6679,0.6868,0.6904,0.0,0.0,0.0,0.647,0.6371,0.632,0.63,0.63,0.63,0.63,0.63,0.63,0.63,0.63,0.63,0.63,0.63,0.63,0.63,0.63,0.63,0.63,0.63,0.63,0.6269,0.6098,0.5993,0.5895,0.5681,0.5589,0.5552,0.5423,0.5395,0.5395,0.5395,0.5395,0.5395,0.5395,0.5395,0.5395,0.5395,0.5395,0.5395,0.5395,0.5259,0.5078,0.4929,0.4785,0.4639,0.4556,0.4378,0.4166,0.3905,0.387,0.3849,0.3865,0.3811,0.352,0.2962,0.2215,0.1717,0.1436,0.075,0.038,0.0325,0.0097,0.0,0.4281,0.4552,0.4757,0.4955,0.4983,0.4902,0.4709,0.448,0.4328,0.4295,0.429,0.4347,0.4551,0.472,0.4893,0.0,0.0,0.0,0.0,0.0,0.0,0.0,0.0,0.0,0.0,0.0,0.0,0.0,0.0,0.0,0.0,0.0,0.0,0.7484,0.7484,0.7484,0.7446,0.7446,0.733,0.7107,0.7142,0.7142,0.7103,0.7142,0.7038,0.0,0.0,0.6777,0.634,0.6439,0.6409,0.63,0.63,0.63,0.63,0.63,0.63,0.63,0.63,0.63,0.63,0.63,0.63,0.63,0.63,0.63,0.63,0.63,0.63,0.6293,0.6272,0.6034,0.5823,0.5779,0.5614,0.5423,0.5399,0.5395,0.5395,0.5395,0.5395,0.5395,0.5395,0.5395,0.5395,0.5395,0.5395,0.5395,0.5395,0.5362,0.5282,0.5094,0.5058,0.4949,0.4769,0.4627,0.446,0.4322,0.4158,0.4107,0.4213,0.4202,0.4043,0.3645,0.3177,0.265,0.2059,0.1327,0.0799,0.0468,0.0134,0.0,0.4073,0.4361,0.459,0.4784,0.5007,0.5144,0.5045,0.4869,0.4722,0.4722,0.4722,0.4784,0.0,0.0,0.5282,0.0,0.0,0.0,0.0,0.0,0.0,0.0,0.0,0.0,0.0,0.0,0.0,0.0,0.0,0.0,0.0,0.0,0.0,0.0,0.7484,0.7484,0.7484,0.7484,0.7407,0.7184,0.7296,0.7296,0.7184,0.7184,0.7099,0.6907,0.0,0.6631,0.6306,0.6371,0.6358,0.63,0.63,0.63,0.63,0.63,0.63,0.63,0.63,0.63,0.63,0.63,0.63,0.63,0.63,0.6374,0.6451,0.6451,0.6374,0.6279,0.6159,0.603,0.5905,0.582,0.564,0.5518,0.5518,0.5453,0.5395,0.5395,0.5395,0.5395,0.5395,0.5395,0.5395,0.5395,0.5395,0.5395,0.5395,0.5395,0.5362,0.5259,0.5259,0.5226,0.513,0.4966,0.4735,0.4414,0.4217,0.4172,0.4295,0.43,0.4164,0.3925,0.3553,0.3119,0.2622,0.1782,0.121,0.0908,0.0472,0.027,0.3887,0.4145,0.438,0.4684,0.5073,0.5349,0.532,0.5245,0.5188,0.5141,0.5169,0.525,0.0,0.548,0.0,0.0,0.0,0.0,0.0,0.0,0.0,0.0,0.0,0.0,0.0,0.0,0.0,0.0,0.0,0.0,0.0,0.0,0.0,0.0,0.7484,0.7484,0.7484,0.7484,0.7407,0.7257,0.7407,0.7411,0.7184,0.7184,0.7065,0.6826,0.6676,0.649,0.63,0.63,0.63,0.63,0.63,0.63,0.63,0.63,0.63,0.63,0.63,0.63,0.63,0.63,0.63,0.63,0.63,0.6451,0.6637,0.6753,0.6718,0.6577,0.6301,0.6166,0.6111,0.5954,0.5816,0.5703,0.5631,0.5532,0.5436,0.5402,0.5395,0.5395,0.5395,0.5395,0.5395,0.5395,0.5395,0.5395,0.5395,0.5395,0.5395,0.5395,0.5395,0.5395,0.5395,0.5223,0.4946,0.4587,0.4327,0.4205,0.4295,0.43,0.4233,0.4064,0.3825,0.3525,0.319,0.2385,0.1848,0.1613,0.1111,0.0842,0.3887,0.4014,0.4187,0.481,0.5278,0.5533,0.533,0.5576,0.5788,0.5604,0.5713,0.5845,0.0,0.6044,0.0,0.0,0.0,0.0,0.0,0.0,0.0,0.0,0.0,0.0,0.0,0.0,0.0,0.0,0.0,0.0,0.0,0.0,0.0,0.0,0.0,0.7484,0.7484,0.7484,0.7484,0.7484,0.7484,0.7411,0.7184,0.7184,0.6988,0.6637,0.6602,0.649,0.63,0.63,0.63,0.63,0.63,0.63,0.63,0.63,0.63,0.63,0.63,0.63,0.63,0.63,0.63,0.63,0.63,0.6451,0.6714,0.7292,0.7557,0.7548,0.7,0.67,0.6511,0.6307,0.6153,0.5969,0.5655,0.5583,0.5532,0.5423,0.5395,0.5395,0.5395,0.5395,0.5395,0.5395,0.5395,0.5395,0.5395,0.5395,0.5395,0.5395,0.5395,0.5395,0.5395,0.5223,0.5084,0.5041,0.4634,0.437,0.4295,0.43,0.43,0.4267,0.4267,0.4064,0.3725,0.3284,0.2917,0.2586,0.2181,0.1813,0.3738,0.3817,0.3939,0.4494,0.503,0.5457,0.5632,0.5996,0.6247,0.6172,0.6323,0.0,0.0,0.0,0.0,0.0,0.0,0.0,0.0,0.0,0.0,0.0,0.0,0.0,0.0,0.0,0.0,0.0,0.0,0.0,0.0,0.0,0.0,0.0,0.0,0.7134,0.7134,0.7134,0.7134,0.7134,0.7253,0.7257,0.718,0.6949,0.6756,0.6602,0.6447,0.6377,0.63,0.63,0.63,0.63,0.63,0.63,0.63,0.63,0.63,0.63,0.63,0.63,0.63,0.63,0.6374,0.649,0.649,0.6907,0.7437,0.7783,0.8203,0.8466,0.8127,0.777,0.745,0.7113,0.6727,0.6298,0.5947,0.5789,0.5677,0.5566,0.5539,0.5508,0.5412,0.5395,0.5395,0.5395,0.5395,0.5395,0.5395,0.5395,0.5395,0.5395,0.5395,0.5395,0.5395,0.5326,0.5223,0.512,0.4746,0.4512,0.4492,0.4367,0.43,0.43,0.43,0.4164,0.3928,0.3553,0.3253,0.2989,0.2653,0.235,0.3644,0.3658,0.3754,0.4342,0.4898,0.5415,0.5902,0.6304,0.6605,0.6605,0.6659,0.6614,0.6274,0.0,0.0,0.0,0.0,0.0,0.0,0.0,0.0,0.0,0.0,0.0,0.0,0.0,0.0,0.0,0.0,0.0,0.0,0.0,0.0,0.0,0.0,0.6903,0.6903,0.6903,0.6903,0.6903,0.6984,0.7026,0.6988,0.6718,0.6563,0.6486,0.6377,0.63,0.63,0.63,0.63,0.63,0.63,0.63,0.63,0.63,0.63,0.63,0.63,0.63,0.63,0.63,0.6451,0.6641,0.683,0.7365,0.8008,0.8613,0.9074,0.942,0.9528,0.896,0.8275,0.7783,0.7311,0.6798,0.6224,0.6019,0.5899,0.5684,0.5657,0.5623,0.5552,0.5535,0.5535,0.5535,0.5494,0.5467,0.5467,0.5426,0.5395,0.5395,0.5395,0.5395,0.5395,0.5395,0.5326,0.519,0.4924,0.4725,0.4592,0.4461,0.4367,0.43,0.43,0.4233,0.4097,0.3859,0.3692,0.3529,0.3324,0.307,0.3649,0.355,0.3608,0.448,0.5002,0.5457,0.6064,0.6501,0.6796,0.6796,0.6701,0.6545,0.6402,0.0,0.0,0.0,0.0,0.0,0.0,0.0,0.0,0.0,0.0,0.0,0.0,0.0,0.0,0.0,0.0,0.0,0.0,0.0,0.0,0.0,0.0,0.0,0.6903,0.6903,0.6903,0.6899,0.6676,0.6602,0.6602,0.6602,0.649,0.63,0.63,0.63,0.63,0.63,0.63,0.63,0.63,0.63,0.63,0.63,0.63,0.63,0.63,0.63,0.63,0.63,0.6451,0.6714,0.733,0.7783,0.8385,0.9798,1.0218,1.0406,1.1186,1.0207,0.8884,0.8271,0.797,0.7541,0.654,0.6321,0.6201,0.587,0.5803,0.5803,0.58,0.58,0.58,0.58,0.5681,0.5589,0.5589,0.5487,0.5395,0.5395,0.5395,0.5395,0.5395,0.5395,0.5395,0.5395,0.5223,0.4957,0.4625,0.4592,0.4495,0.43,0.43,0.43,0.43,0.43,0.43,0.43,0.4303,0.4159,0.3783,0.3724,0.3779,0.4451,0.0,0.5381,0.5995,0.6618,0.708,0.7094,0.6935,0.6546,0.5655,0.0,0.0,0.0,0.0,0.0,0.0,0.0,0.0,0.0,0.0,0.0,0.0,0.0,0.0,0.0,0.0,0.0,0.0,0.0,0.0,0.0,0.0,0.0,0.649,0.649,0.649,0.649,0.6412,0.6451,0.6602,0.6451,0.6374,0.63,0.63,0.63,0.63,0.63,0.63,0.63,0.63,0.63,0.63,0.63,0.63,0.63,0.63,0.63,0.63,0.63,0.6644,0.7103,0.7557,0.8394,0.9349,1.018,1.07,1.1111,1.1335,1.0956,1.0282,0.9533,0.8889,0.8185,0.7335,0.6904,0.6552,0.6027,0.5925,0.5928,0.582,0.58,0.58,0.58,0.5711,0.5624,0.5481,0.5423,0.5395,0.5395,0.5395,0.5395,0.5395,0.5395,0.5395,0.5395,0.5359,0.5193,0.4957,0.4725,0.4561,0.4528,0.4367,0.43,0.43,0.43,0.43,0.4303,0.4382,0.4335,0.3711,0.3619,0.3636,0.4365,0.4763,0.51,0.5652,0.0,0.0,0.0,0.6609,0.6119,0.5244,0.0,0.0,0.0,0.0,0.0,0.0,0.0,0.0,0.0,0.0,0.0,0.0,0.0,0.0,0.0,0.0,0.0,0.0,0.0,0.0,0.0,0.0,0.0,0.6412,0.6486,0.6486,0.6412,0.6412,0.6451,0.649,0.6335,0.63,0.63,0.63,0.63,0.63,0.63,0.63,0.63,0.63,0.63,0.63,0.63,0.63,0.63,0.63,0.63,0.63,0.63,0.6721,0.7334,0.805,0.8965,0.9922,1.085,1.1298,1.1558,1.1632,1.1484,1.1111,1.0218,0.9539,0.8818,0.8021,0.7557,0.7061,0.6473,0.6308,0.6204,0.6037,0.5983,0.5983,0.5983,0.5972,0.5846,0.5603,0.5569,0.5525,0.5405,0.5395,0.5395,0.5395,0.5395,0.5395,0.5395,0.5395,0.5359,0.5223,0.4957,0.4725,0.4592,0.4495,0.4364,0.43,0.43,0.4322,0.4371,0.4471,0.4488,0.3502,0.3369,0.3342,0.4221,0.4522,0.0,0.5122,0.5873,0.6441,0.6251,0.0,0.5385,0.0,0.0,0.0,0.0,0.0,0.0,0.0,0.0,0.0,0.0,0.0,0.0,0.0,0.0,0.0,0.0,0.0,0.0,0.0,0.0,0.0,0.0,0.0,0.0,0.6676,0.683,0.6819,0.0,0.6633,0.6518,0.6279,0.6293,0.63,0.63,0.63,0.63,0.63,0.63,0.63,0.63,0.63,0.63,0.63,0.63,0.63,0.63,0.63,0.63,0.6338,0.6335,0.6799,0.7522,0.8699,0.9496,1.0293,1.1632,1.1892,1.1781,1.1966,1.1855,1.1484,1.055,1.003,0.9544,0.8742,0.8241,0.7744,0.713,0.6826,0.6602,0.6377,0.6338,0.6338,0.63,0.63,0.6197,0.5878,0.5844,0.5739,0.5508,0.5477,0.5477,0.5477,0.5477,0.5477,0.5477,0.545,0.5436,0.5436,0.5236,0.499,0.4691,0.4592,0.4503,0.435,0.4317,0.4376,0.4523,0.4534,0.4624,0.3593,0.3542,0.0,0.3922,0.4308,0.4578,0.4531,0.4683,0.4848,0.4912,0.4749,0.0,0.0,0.0,0.0,0.0,0.0,0.0,0.0,0.0,0.0,0.0,0.0,0.0,0.0,0.0,0.0,0.0,0.0,0.0,0.0,0.0,0.0,0.0,0.0,0.698,0.7292,0.7176,0.711,0.0,0.6916,0.6572,0.6084,0.6245,0.63,0.63,0.63,0.63,0.63,0.63,0.63,0.63,0.63,0.63,0.63,0.63,0.63,0.63,0.63,0.6412,0.6563,0.6714,0.7407,0.8322,0.9188,1.0094,1.0999,1.1781,1.2077,1.215,1.204,1.1966,1.1855,1.1484,1.1074,1.0657,1.0158,0.948,0.8765,0.8008,0.7553,0.7138,0.6641,0.6567,0.6528,0.6338,0.63,0.6276,0.6207,0.6201,0.6177,0.6112,0.6105,0.6105,0.6105,0.6105,0.6105,0.6105,0.5876,0.5705,0.5705,0.5484,0.5292,0.5226,0.4664,0.4445,0.4608,0.4502,0.4531,0.4651,0.4711,0.4747,0.3566,0.3459,0.0,0.3439,0.0,0.3856,0.3609,0.3456,0.3389,0.3384,0.0,0.0,0.0,0.0,0.0,0.0,0.0,0.0,0.0,0.0,0.0,0.0,0.0,0.0,0.0,0.0,0.0,0.0,0.0,0.0,0.0,0.0,0.0,0.0,0.6907,0.7138,0.7373,0.7334,0.7287,0.7191,0.7015,0.6628,0.6142,0.6262,0.63,0.63,0.63,0.63,0.63,0.63,0.63,0.63,0.63,0.63,0.63,0.63,0.63,0.63,0.63,0.649,0.6791,0.7211,0.7936,0.8889,0.9857,1.0689,1.1372,1.1966,1.2231,1.2268,1.215,1.215,1.2114,1.2003,1.1595,1.1143,1.0838,1.0239,0.949,0.8723,0.8199,0.7633,0.6865,0.6602,0.6451,0.6338,0.63,0.63,0.63,0.63,0.63,0.63,0.63,0.63,0.63,0.63,0.63,0.63,0.6149,0.602,0.602,0.5911,0.5692,0.5399,0.503,0.4738,0.4609,0.4587,0.4635,0.4741,0.4769,0.4828,0.3444,0.3256,0.2935,0.2992,0.3099,0.0,0.2818,0.2622,0.2456,0.0,0.0,0.0,0.0,0.0,0.0,0.0,0.0,0.0,0.0,0.0,0.0,0.0,0.0,0.0,0.0,0.0,0.0,0.0,0.0,0.0,0.0,0.0,0.7065,0.6676,0.7026,0.7219,0.7257,0.7369,0.7353,0.721,0.69,0.6573,0.63,0.63,0.63,0.63,0.63,0.63,0.63,0.63,0.63,0.63,0.63,0.6338,0.6335,0.6335,0.6416,0.6454,0.6454,0.6756,0.7249,0.7821,0.858,0.9453,1.0565,1.1174,1.1595,1.215,1.2305,1.2305,1.2305,1.2305,1.2305,1.2305,1.1929,1.1521,1.1335,1.085,1.0212,0.9513,0.877,0.8016,0.7134,0.6602,0.63,0.63,0.63,0.63,0.63,0.63,0.63,0.63,0.63,0.63,0.63,0.63,0.63,0.63,0.63,0.63,0.63,0.63,0.6064,0.5562,0.5552,0.5274,0.467,0.4676,0.4737,0.4828,0.4828,0.4882,0.3114,0.0,0.2995,0.0,0.3047,0.3095,0.0,0.0,0.2855,0.0,0.0,0.0,0.0,0.0,0.0,0.0,0.0,0.0,0.0,0.0,0.0,0.0,0.0,0.0,0.0,0.0,0.0,0.0,0.0,0.0,0.0,0.7446,0.7288,0.6865,0.7061,0.7296,0.7446,0.7296,0.7217,0.7207,0.6465,0.6166,0.63,0.63,0.63,0.63,0.63,0.63,0.63,0.63,0.63,0.63,0.63,0.6412,0.6563,0.6563,0.6795,0.7069,0.7069,0.7561,0.8284,0.8699,0.949,1.0438,1.1105,1.1595,1.1966,1.2224,1.2305,1.2305,1.2305,1.2305,1.2305,1.2305,1.2224,1.215,1.215,1.1713,1.1149,1.0619,0.9193,0.7983,0.7484,0.6795,0.63,0.63,0.63,0.63,0.63,0.63,0.63,0.63,0.63,0.63,0.63,0.63,0.63,0.63,0.63,0.63,0.63,0.63,0.6262,0.618,0.618,0.5895,0.5269,0.4883,0.4791,0.4955,0.4955,0.5002,0.3086,0.3299,0.3383,0.0,0.3099,0.3166,0.3042,0.0,0.0,0.0,0.0,0.0,0.0,0.0,0.0,0.0,0.0,0.0,0.0,0.0,0.0,0.0,0.0,0.0,0.0,0.0,0.0,0.0,0.0,0.0,0.7484,0.7484,0.7326,0.6903,0.7103,0.718,0.7173,0.7061,0.6984,0.687,0.6384,0.6196,0.63,0.63,0.63,0.63,0.63,0.63,0.63,0.63,0.63,0.63,0.63,0.6412,0.6641,0.6984,0.7292,0.7595,0.8055,0.8585,0.9188,0.982,1.0464,1.1111,1.1706,1.204,1.2194,1.2268,1.2305,1.2305,1.2305,1.2305,1.2305,1.2305,1.2305,1.2305,1.2305,1.212,1.1744,1.1068,1.0657,1.0389,1.0233,0.9145,0.8016,0.7103,0.6988,0.6795,0.6377,0.63,0.63,0.63,0.63,0.63,0.63,0.63,0.63,0.63,0.63,0.63,0.63,0.63,0.63,0.63,0.63,0.617,0.5904,0.5499,0.522,0.5018,0.5018,0.5018,0.3059,0.3421,0.3636,0.3214,0.3183,0.3226,0.0,0.0,0.0,0.0,0.0,0.0,0.0,0.0,0.0,0.0,0.0,0.0,0.0,0.0,0.0,0.0,0.0,0.0,0.0,0.0,0.0,0.0,0.0,0.0,0.7484,0.7484,0.7326,0.698,0.7142,0.7103,0.6903,0.6865,0.6753,0.6602,0.6412,0.63,0.63,0.63,0.63,0.63,0.63,0.63,0.63,0.63,0.6338,0.6374,0.6451,0.6641,0.6984,0.7518,0.794,0.8356,0.9003,0.9566,1.0083,1.0757,1.1211,1.1632,1.215,1.2305,1.2305,1.2305,1.2305,1.2305,1.2305,1.2305,1.2305,1.2305,1.2305,1.2305,1.2305,1.2305,1.2114,1.1521,1.1892,1.2305,1.2305,1.1149,0.9722,0.8318,0.794,0.7446,0.6416,0.63,0.63,0.63,0.63,0.63,0.63,0.63,0.63,0.63,0.63,0.63,0.63,0.63,0.63,0.63,0.63,0.63,0.63,0.6067,0.5735,0.5329,0.5093,0.5018,0.2883,0.3209,0.3507,0.3479,0.3289,0.0,0.0,0.0,0.0,0.0,0.0,0.0,0.0,0.0,0.0,0.0,0.0,0.0,0.0,0.0,0.0,0.0,0.0,0.0,0.0,0.0,0.0,0.0,0.0,0.0,0.7484,0.7484,0.7407,0.718,0.7184,0.7103,0.6903,0.6714,0.6602,0.6602,0.6412,0.63,0.63,0.63,0.63,0.63,0.63,0.63,0.63,0.63,0.6412,0.6602,0.6791,0.7207,0.7783,0.8212,0.8861,0.9544,0.9771,1.0368,1.1074,1.1298,1.1632,1.2003,1.2224,1.2305,1.2305,1.2305,1.2305,1.2305,1.2305,1.2305,1.2305,1.2305,1.2305,1.2305,1.2305,1.2305,1.2298,1.2268,1.2268,1.2305,1.2305,1.1595,1.0738,0.9916,0.9122,0.8055,0.649,0.63,0.63,0.63,0.63,0.63,0.63,0.63,0.63,0.63,0.63,0.63,0.63,0.63,0.63,0.63,0.63,0.63,0.63,0.6282,0.6244,0.6222,0.5365,0.5018,0.2736,0.3124,0.0,0.3605,0.3661,0.3712,0.0,0.0,0.0,0.0,0.0,0.0,0.0,0.0,0.0,0.0,0.0,0.0,0.0,0.0,0.0,0.0,0.0,0.0,0.0,0.0,0.0,0.0,0.0,0.0,0.7484,0.7484,0.7407,0.7223,0.7184,0.7103,0.6903,0.6714,0.6602,0.6602,0.6412,0.63,0.63,0.63,0.63,0.63,0.63,0.63,0.63,0.6451,0.6683,0.7026,0.7476,0.8046,0.8656,0.9442,1.0019,1.0443,1.1037,1.1446,1.1706,1.1892,1.2077,1.2224,1.2268,1.2305,1.2305,1.2305,1.2305,1.2305,1.2305,1.2305,1.2305,1.2305,1.2305,1.2305,1.2305,1.2305,1.2305,1.2305,1.2305,1.2305,1.2305,1.2077,1.1781,1.1484,1.0325,0.8889,0.7292,0.7065,0.6872,0.6338,0.63,0.63,0.63,0.63,0.63,0.63,0.63,0.63,0.63,0.63,0.63,0.63,0.63,0.63,0.63,0.63,0.63,0.63,0.599,0.5524,0.2632,0.309,0.0,0.0,0.0,0.3931,0.0,0.0,0.0,0.0,0.0,0.0,0.0,0.0,0.0,0.0,0.0,0.0,0.0,0.0,0.0,0.0,0.0,0.0,0.0,0.0,0.0,0.0,0.0,0.0,0.7484,0.7484,0.7446,0.7296,0.7296,0.7253,0.7096,0.6907,0.6795,0.6795,0.6602,0.6486,0.6486,0.6486,0.6486,0.6486,0.6486,0.6451,0.6412,0.6563,0.6907,0.7446,0.805,0.8694,0.9415,1.0346,1.0875,1.1186,1.1781,1.204,1.2114,1.2261,1.2305,1.2305,1.2305,1.2305,1.2305,1.2305,1.2305,1.2305,1.2305,1.2305,1.2305,1.2305,1.2305,1.2305,1.2305,1.2305,1.2305,1.2305,1.2305,1.2305,1.2305,1.2305,1.2305,1.2305,1.0925,0.9311,0.771,0.7484,0.7176,0.6377,0.63,0.63,0.63,0.63,0.63,0.63,0.63,0.63,0.63,0.63,0.63,0.63,0.63,0.63,0.63,0.63,0.63,0.63,0.63,0.599,0.0,0.0,0.0,0.0,0.0,0.0,0.0,0.0,0.0,0.0,0.0,0.0,0.0,0.0,0.0,0.0,0.0,0.0,0.0,0.0,0.0,0.0,0.0,0.0,0.0,0.0,0.0,0.0,0.0,0.7484,0.7484,0.7484,0.7484,0.7484,0.7484,0.7484,0.7484,0.7296,0.7184,0.7184,0.6984,0.6903,0.6903,0.6903,0.6903,0.6903,0.6903,0.6791,0.6637,0.6602,0.7096,0.7897,0.8508,0.9236,1.003,1.085,1.1372,1.1744,1.1929,1.215,1.2305,1.2305,1.2305,1.2305,1.2305,1.2305,1.2305,1.2305,1.2305,1.2305,1.2305,1.2305,1.2305,1.2305,1.2305,1.2305,1.2305,1.2305,1.2305,1.2305,1.2305,1.2305,1.2305,1.2305,1.2305,1.2305,1.0925,0.9311,0.771,0.7484,0.7215,0.6416,0.6338,0.6338,0.63,0.63,0.63,0.63,0.63,0.63,0.63,0.63,0.63,0.63,0.63,0.63,0.63,0.63,0.63,0.63,0.63,0.63,0.3325,0.0,0.0,0.0,0.0,0.0,0.0,0.0,0.0,0.0,0.0,0.0,0.0,0.0,0.0,0.0,0.0,0.0,0.0,0.0,0.0,0.0,0.0,0.0,0.0,0.0,0.0,0.0,0.7484,0.7484,0.7484,0.7484,0.7484,0.7484,0.7484,0.7484,0.7484,0.7296,0.7184,0.7184,0.6984,0.6903,0.6903,0.6903,0.6903,0.6903,0.6903,0.7019,0.7253,0.7103,0.7522,0.8322,0.9221,1.0051,1.085,1.1669,1.204,1.215,1.2187,1.2268,1.2305,1.2305,1.2305,1.2305,1.2305,1.2305,1.2305,1.2305,1.2305,1.2305,1.2305,1.2305,1.2305,1.2305,1.2305,1.2305,1.2305,1.2305,1.2305,1.2305,1.2305,1.2305,1.2305,1.2305,1.2305,1.2305,1.0925,0.9311,0.771,0.7484,0.7407,0.7176,0.7176,0.6949,0.6338,0.63,0.63,0.63,0.63,0.63,0.63,0.63,0.63,0.63,0.63,0.63,0.63,0.63,0.63,0.63,0.63,0.63,0.3517,0.3527,0.3527,0.0,0.0,0.0,0.0,0.0,0.0,0.0,0.0,0.0,0.0,0.0,0.0,0.0,0.0,0.0,0.0,0.0,0.0,0.0,0.0,0.0,0.0,0.0,0.0,0.0,0.7374,0.7374,0.7374,0.7374,0.7407,0.748,0.7484,0.7484,0.7484,0.7369,0.7334,0.7334,0.7215,0.7134,0.7134,0.7134,0.7134,0.7134,0.7134,0.7365,0.7753,0.7791,0.8212,0.8861,0.9793,1.0582,1.1298,1.204,1.2305,1.2305,1.2305,1.2305,1.2305,1.2305,1.2305,1.2305,1.2305,1.2305,1.2305,1.2305,1.2305,1.2305,1.2305,1.2305,1.2305,1.2305,1.2305,1.2305,1.2305,1.2305,1.2305,1.2305,1.2305,1.2305,1.2305,1.2305,1.2305,1.2305,1.1223,0.9949,0.8665,0.8208,0.7863,0.7522,0.7484,0.7176,0.6377,0.63,0.63,0.63,0.63,0.63,0.63,0.63,0.63,0.63,0.63,0.63,0.63,0.63,0.63,0.63,0.63,0.63,0.3533,0.3621,0.3723,0.3525,0.0,0.0,0.3956,0.3866,0.0,0.0,0.0,0.0,0.0,0.0,0.0,0.0,0.0,0.0,0.0,0.0,0.0,0.0,0.0,0.0,0.0,0.0,0.7442,0.7269,0.7245,0.7196,0.7196,0.7179,0.7297,0.7447,0.7472,0.7484,0.7484,0.7484,0.7484,0.7484,0.7484,0.7484,0.7484,0.7484,0.7484,0.7484,0.7484,0.7753,0.8178,0.8589,0.9008,0.9435,1.0255,1.0925,1.1484,1.2077,1.2305,1.2305,1.2305,1.2305,1.2305,1.2305,1.2305,1.2305,1.2305,1.2305,1.2305,1.2305,1.2305,1.2305,1.2305,1.2305,1.2331,1.2472,1.2498,1.2498,1.2498,1.2498,1.2498,1.2498,1.2392,1.2305,1.2305,1.2305,1.2305,1.2305,1.1706,1.0962,1.0255,0.9382,0.847,0.7599,0.7484,0.7215,0.649,0.6416,0.6416,0.6416,0.6416,0.6377,0.63,0.63,0.63,0.63,0.63,0.63,0.63,0.63,0.63,0.63,0.63,0.63,0.4594,0.4434,0.4223,0.4016,0.0,0.0,0.0,0.3713,0.0,0.0,0.0,0.0,0.0,0.0,0.0,0.0,0.0,0.0,0.0,0.0,0.0,0.0,0.0,0.0,0.0,0.0,0.7539,0.7688,0.7368,0.7144,0.7041,0.7147,0.7203,0.7277,0.7411,0.7484,0.7484,0.7484,0.7484,0.7484,0.7484,0.7484,0.7484,0.7484,0.7484,0.7484,0.7484,0.7829,0.8403,0.8965,0.942,0.9846,1.0663,1.126,1.1706,1.215,1.2305,1.2305,1.2305,1.2305,1.2305,1.2305,1.2305,1.2305,1.2305,1.2305,1.2305,1.2305,1.2305,1.2305,1.2305,1.2305,1.2545,1.3514,1.3741,1.3741,1.3741,1.3741,1.3741,1.3741,1.2959,1.2305,1.2305,1.2305,1.2305,1.2305,1.215,1.2003,1.1855,1.055,0.9122,0.7672,0.7484,0.7446,0.7292,0.7253,0.7253,0.7253,0.7253,0.6988,0.6338,0.63,0.63,0.63,0.63,0.63,0.63,0.63,0.63,0.63,0.63,0.63,0.4727,0.4517,0.4313,0.4153,0.0,0.0,0.0,0.0,0.0,0.0,0.0,0.0,0.0,0.0,0.0,0.0,0.0,0.0,0.0,0.0,0.0,0.0,0.0,0.0,0.0,0.0,0.7381,0.7509,0.716,0.6962,0.6954,0.6947,0.7041,0.7183,0.7309,0.7395,0.7484,0.7484,0.7484,0.7484,0.7484,0.7484,0.7484,0.7484,0.7484,0.7484,0.7484,0.7902,0.8589,0.9296,0.9938,1.055,1.1149,1.1595,1.1892,1.2194,1.2305,1.2305,1.2305,1.2305,1.2305,1.2305,1.2305,1.2305,1.2305,1.2305,1.2305,1.2305,1.2305,1.2305,1.2305,1.2305,1.2452,1.3053,1.32,1.32,1.32,1.3667,1.4088,1.4088,1.3601,1.3193,1.3193,1.3193,1.2993,1.2392,1.2305,1.2305,1.2305,1.126,1.0024,0.8813,0.8322,0.794,0.7522,0.7484,0.7484,0.7484,0.7484,0.7138,0.6338,0.63,0.63,0.63,0.63,0.63,0.63,0.63,0.63,0.63,0.63,0.63,0.0,0.0,0.0,0.0,0.0,0.404,0.0,0.0,0.0,0.3975,0.0,0.0,0.0,0.0,0.0,0.0,0.0,0.0,0.0,0.0,0.0,0.0,0.0,0.0,0.0,0.0,0.7198,0.72,0.6891,0.6738,0.6861,0.6775,0.6842,0.7163,0.7171,0.7309,0.748,0.7484,0.7484,0.7484,0.7484,0.7484,0.7484,0.7484,0.7484,0.7484,0.7484,0.794,0.8703,0.9485,1.0276,1.1037,1.1595,1.1892,1.2077,1.2224,1.2305,1.2305,1.2305,1.2305,1.2305,1.2305,1.2305,1.2305,1.2305,1.2305,1.2305,1.2305,1.2305,1.2305,1.2305,1.2305,1.2305,1.2305,1.2305,1.2305,1.2305,1.306,1.3808,1.4041,1.4088,1.4088,1.4088,1.4088,1.3681,1.2478,1.2305,1.2305,1.2305,1.1744,1.1074,1.0438,0.9496,0.8551,0.7599,0.7484,0.7484,0.7484,0.7484,0.7215,0.6567,0.6377,0.63,0.63,0.63,0.63,0.63,0.63,0.63,0.63,0.63,0.63,0.0,0.0,0.0,0.0,0.4653,0.0,0.0,0.0,0.3964,0.3992,0.0,0.0,0.0,0.0,0.0,0.0,0.0,0.0,0.0,0.0,0.0,0.0,0.0,0.0,0.0,0.0,0.0,0.7189,0.682,0.6638,0.6729,0.6704,0.6781,0.7012,0.7143,0.7309,0.748,0.7484,0.7484,0.7484,0.7484,0.7484,0.7484,0.7484,0.7484,0.7484,0.7484,0.7868,0.8475,0.9112,0.983,1.0663,1.1781,1.2268,1.2268,1.2298,1.2305,1.2305,1.2305,1.2305,1.2305,1.2305,1.2305,1.2305,1.2305,1.2305,1.2305,1.2305,1.2305,1.2305,1.2305,1.2305,1.2305,1.2305,1.2305,1.2305,1.2305,1.2405,1.2819,1.3881,1.4088,1.4088,1.4088,1.4088,1.3681,1.2478,1.2305,1.2305,1.2305,1.2231,1.212,1.204,1.0663,0.916,0.7638,0.7484,0.7484,0.7484,0.7484,0.7446,0.7369,0.6683,0.63,0.63,0.63,0.63,0.63,0.63,0.63,0.63,0.63,0.63,0.0,0.0,0.0,0.0,0.0,0.0,0.3938,0.0,0.4037,0.0,0.0,0.0,0.0,0.0,0.0,0.0,0.0,0.0,0.0,0.0,0.0,0.0,0.0,0.0,0.0,0.0,0.0,0.0,0.0,0.6475,0.663,0.6564,0.6664,0.698,0.7061,0.72,0.748,0.7484,0.7484,0.7484,0.7484,0.7484,0.7484,0.7484,0.7484,0.7484,0.7484,0.7791,0.8255,0.8737,0.942,1.0255,1.1223,1.1818,1.215,1.2261,1.2305,1.2305,1.2305,1.2305,1.2305,1.2305,1.2305,1.2305,1.2305,1.2305,1.2305,1.2305,1.2305,1.2305,1.2305,1.2305,1.2305,1.2305,1.2305,1.2305,1.2305,1.2305,1.2452,1.2953,1.3614,1.4088,1.4088,1.4088,1.3681,1.2478,1.2305,1.2305,1.2305,1.2305,1.2305,1.2305,1.1298,1.0137,0.9003,0.8475,0.7978,0.7522,0.7484,0.7484,0.7484,0.6718,0.63,0.63,0.63,0.63,0.63,0.63,0.63,0.63,0.63,0.63,0.6258,0.0,0.0,0.0,0.0,0.0,0.0,0.0,0.0,0.0,0.0,0.0,0.0,0.0,0.0,0.0,0.0,0.0,0.0,0.0,0.0,0.0,0.0,0.0,0.0,0.0,0.0,0.0,0.0,0.0,0.6603,0.6481,0.6562,0.691,0.6963,0.7139,0.7411,0.746,0.7484,0.7484,0.7484,0.7484,0.7484,0.7484,0.7484,0.7484,0.7484,0.7714,0.803,0.8403,0.9008,0.9809,1.0625,1.1298,1.1855,1.2194,1.2305,1.2305,1.2305,1.2305,1.2305,1.2305,1.2305,1.2305,1.2305,1.2305,1.2305,1.2305,1.2305,1.2305,1.2305,1.2305,1.2305,1.2305,1.2305,1.2305,1.2305,1.2305,1.2398,1.2726,1.3494,1.4088,1.4088,1.4088,1.3681,1.2478,1.2305,1.2305,1.2305,1.2305,1.2305,1.2305,1.1781,1.1186,1.0625,0.9609,0.8589,0.7557,0.7484,0.7484,0.7484,0.6949,0.6644,0.6644,0.6644,0.6644,0.6644,0.6412,0.63,0.63,0.63,0.63,0.0,0.0,0.0,0.5132,0.0,0.0,0.0,0.0,0.4452,0.0,0.0,0.0,0.0,0.0,0.0,0.4461,0.0,0.0,0.0,0.0,0.0,0.0,0.0,0.0,0.0,0.0,0.0,0.0,0.0,0.0,0.6594,0.6481,0.6505,0.6696,0.6902,0.7077,0.7195,0.7399,0.7484,0.7484,0.7484,0.7484,0.7484,0.7484,0.7484,0.7484,0.7484,0.7603,0.7842,0.803,0.8599,0.9397,1.0218,1.0887,1.1484,1.2077,1.2305,1.2305,1.2305,1.2305,1.2305,1.2305,1.2305,1.2305,1.2305,1.2305,1.2305,1.2305,1.2305,1.2305,1.2305,1.2305,1.2305,1.2305,1.2305,1.2305,1.2305,1.2305,1.2645,1.3808,1.4062,1.4088,1.4088,1.4088,1.3681,1.2478,1.2305,1.2305,1.2305,1.2305,1.2305,1.2305,1.2268,1.2268,1.2224,1.0775,0.9198,0.7595,0.7484,0.7484,0.7484,0.7484,0.7446,0.7446,0.7446,0.7446,0.7446,0.6683,0.63,0.63,0.63,0.63,0.0,0.0,0.6432,0.5801,0.0,0.0,0.0,0.0,0.0,0.0,0.0,0.0,0.0,0.0,0.5306,0.504,0.4822,0.0,0.0,0.0,0.0,0.0,0.0,0.0,0.0,0.0,0.0,0.0,0.0,0.0,0.0,0.6329,0.6412,0.6684,0.6898,0.7077,0.7187,0.7399,0.7484,0.7484,0.7484,0.7484,0.7484,0.7484,0.7484,0.7484,0.7484,0.7522,0.7603,0.768,0.8174,0.897,0.9793,1.0539,1.1298,1.204,1.2305,1.2305,1.2305,1.2305,1.2305,1.2305,1.2305,1.2305,1.2305,1.2305,1.2305,1.2305,1.2305,1.2305,1.2305,1.2305,1.2305,1.2305,1.2305,1.2305,1.2305,1.2926,1.3601,1.4008,1.4088,1.4088,1.4088,1.4088,1.3948,1.3547,1.2806,1.2305,1.2305,1.2305,1.2305,1.2305,1.2305,1.2305,1.2305,1.0812,0.9425,0.8356,0.7787,0.7484,0.7484,0.7484,0.7484,0.7484,0.7484,0.7484,0.7484,0.6683,0.6567,0.7099,0.7099,0.6795,0.7232,0.7058,0.0,0.0,0.5991,0.0,0.5212,0.0,0.0,0.0,0.0,0.0,0.0,0.0,0.0,0.5462,0.5201,0.0,0.0,0.0,0.0,0.0,0.0,0.0,0.0,0.0,0.5927,0.5812,0.0,0.0,0.0,0.0,0.6446,0.6656,0.7003,0.7189,0.7196,0.748,0.7561,0.7484,0.7561,0.7561,0.7484,0.7561,0.7561,0.7484,0.7484,0.7484,0.7484,0.7484,0.794,0.8665,0.941,1.0164,1.0999,1.1966,1.2305,1.2305,1.2305,1.2305,1.2305,1.2305,1.2305,1.2305,1.2305,1.2305,1.2305,1.2305,1.2305,1.2305,1.2305,1.2305,1.2305,1.2305,1.2305,1.2305,1.2305,1.324,1.4088,1.4088,1.4088,1.4088,1.4088,1.4088,1.4088,1.4088,1.3434,1.2786,1.2358,1.2305,1.2305,1.2305,1.2305,1.2472,1.2899,1.1998,1.0892,0.9707,0.8286,0.7484,0.7484,0.7484,0.7606,0.7902,0.7614,0.7484,0.7484,0.6988,0.6988,0.7484,0.7484,0.7138]}]]